     2              OBSERVATION DATA    G (GPS)             RINEX VERSION / TYPE
ASRINEXO V2.9.9 LH AIUB 01-FEB- 1 17:15                     PGM / RUN BY / DATE
BERN ASHTECH Z-12                                           COMMENT
BIT 2 OF LLI (+4) FLAGS DATA COLLECTED UNDER "AS" CONDITION COMMENT
USNB                                                        MARKER NAME
                                                            OBSERVER / AGENCY
? ASHTECH Z-XII3 1D15                                       REC # / TYPE / VERS
? CHOKE RING                                                ANT # / TYPE
  1112164.5400 -4842859.8700  3985502.1700                  APPROX POSITION XYZ
        0.0000        0.0000        0.0000                  ANTENNA: DELTA H/E/N
     1     1                                                WAVELENGTH FACT L1/2
     5    C1    L1    L2    P1    P2                        # / TYPES OF OBSERV
  2000     7     5     0     0   30.000000                  TIME OF FIRST OBS
                                                            END OF HEADER
 00  7  5  0  0 30.0000000  0  8 11 21 05 29 15 23 25 30
  23837421.475    -5108992.236 8  -3967891.95545  23837425.004    23837436.8784
  20248053.270   -25330309.101 9 -19721308.14948  20248056.007    20248065.2684
  22488828.698   -13392861.053 8 -10417300.90646  22488828.615    22488839.0254
  20501266.183   -23103367.449 9 -17980527.78848  20501268.990    20501277.4554
  22431387.627   -10516126.034 8  -8175487.88546  22431391.963    22431403.5704
  22968201.056   -10867608.586 8  -8448779.34546  22968200.976    22968214.3494
  22001207.771   -17019947.352 9 -13247423.57647  22001211.026    22001220.6934
  21751857.043   -15329617.190 9 -11931058.02647  21751860.973    21751870.4534
 00  7  5  0  1  0.0000000  0  8 11 21 05 29 15 23 25 30
  23833853.523    -5127759.194 8  -3982515.54145  23833852.306    23833864.0404
  20253502.621   -25301673.135 9 -19698994.42448  20253505.373    20253514.5134
  22494394.101   -13363592.454 8 -10394494.22346  22494397.795    22494408.1674
  20501778.258   -23100674.635 9 -17978429.49148  20501781.528    20501790.0404
  22446480.974   -10436816.692 8  -8113688.45946  22446483.919    22446495.5824
  22985927.068   -10774432.176 8  -8376174.47846  22985932.423    22985945.9394
  21988184.809   -17088380.910 8 -13300748.33747  21988188.563    21988197.8914
  21743432.594   -15373884.150 9 -11965551.68347  21743436.932    21743446.7044
 00  7  5  0  1 30.0000000  0  8 11 21 05 29 15 23 25 30
  23830377.311    -5146004.273 8  -3996732.40745  23830379.934    23830392.5634
  20259059.714   -25272471.367 9 -19676239.81348  20259062.233    20259071.0724
  22500070.194   -13333764.903 8 -10371251.98846  22500074.520    22500083.9984
  20502334.040   -23097760.043 9 -17976158.38548  20502336.325    20502344.6314
  22461641.781   -10357159.499 8  -8051617.99146  22461642.457    22461654.3884
  23003709.260   -10680977.739 8  -8303352.95646  23003716.369    23003727.6604
  21975222.305   -17156506.418 8 -13353833.06347  21975224.841    21975233.8014
  21735109.264   -15417624.406 9 -11999634.93047  21735114.011    21735122.6974
 00  7  5  0  2  0.0000000  0  8 11 21 05 29 15 23 25 30
  23827006.130    -5163727.231 8  -4010542.47645  23827008.195    23827019.9444
  20264724.414   -25242703.990 9 -19653044.47247  20264726.595    20264735.7204
  22505851.595   -13303379.177 8 -10347574.79846  22505856.434    22505865.9144
  20502930.693   -23094623.484 9 -17973714.31748  20502933.176    20502941.6434
  22476863.548   -10277157.815 8  -7989279.08246  22476865.679    22476878.3454
  23021556.210   -10587246.955 8  -8230316.07946  23021552.448    23021565.6274
  21962316.672   -17224323.221 8 -13406677.24047  21962319.353    21962329.1934
  21726887.913   -15460836.177 9 -12033306.37147  21726890.998    21726900.3324
 00  7  5  0  2 30.0000000  0  8 11 21 05 29 15 23 25 30
  23823730.840    -5180927.950 8  -4023945.60645  23823734.824    23823746.6044
  20270494.165   -25212371.297 9 -19629408.62247  20270498.646    20270507.9024
  22511741.695   -13272435.984 8 -10323463.24146  22511744.147    22511754.3804
  20503568.793   -23091264.389 9 -17971096.85048  20503572.467    20503581.0104
  22492152.265   -10196814.948 8  -7926674.33846  22492155.479    22492166.7924
  23039440.175   -10493241.436 8  -8157065.15446  23039440.894    23039454.0834
  21949469.888   -17291830.659 8 -13459280.34547  21949472.634    21949482.9354
  21718765.809   -15503517.545 9 -12066564.50847  21718769.149    21718778.0344
 00  7  5  0  3  0.0000000  0  8 11 21 05 29 15 23 25 30
  23820562.562    -5197606.388 8  -4036941.77445  23820562.187    23820572.6254
  20276376.178   -25181473.264 9 -19605332.24447  20276378.265    20276387.8114
  22517735.322   -13240936.297 8 -10298918.02846  22517737.935    22517749.2174
  20504250.241   -23087682.363 9 -17968305.66348  20504253.938    20504262.4534
  22507506.403   -10116133.999 8  -7863806.15246  22507508.764    22507519.6684
  23057383.970   -10398962.753 8  -8083601.36446  23057381.680    23057395.0524
  21936681.860   -17359028.130 8 -13511641.92747  21936685.710    21936694.9154
  21710746.632   -15545666.453 9 -12099407.75047  21710748.906    21710757.8794
 00  7  5  0  3 30.0000000  0  8 11 21 05 29 15 23 25 30
  23817480.557    -5213762.561 8  -4049530.96345  23817485.752    23817498.5814
  20282363.360   -25150010.174 9 -19580815.56547  20282365.815    20282375.0184
  22523836.613   -13208881.066 8 -10273939.95746  22523839.122    22523849.3654
  20504975.609   -23083877.216 9 -17965340.62348  20504978.228    20504986.4494
  22522922.042   -10035118.224 8  -7800677.05346  22522924.931    22522936.5944
  23075372.743   -10304412.828 8  -8009926.20346  23075374.484    23075387.9134
  21923955.865   -17425915.039 9 -13563761.52147  21923957.938    21923966.9404
  21702826.402   -15587281.314 9 -12131834.85647  21702829.089    21702838.3344
 00  7  5  0  4  0.0000000  0  8 11 21 05 29 15 23 25 30
  23814511.084    -5229396.279 8  -4061713.03345  23814511.355    23814522.9814
  20288457.737   -25117982.256 9 -19555858.76147  20288460.363    20288469.5704
  22530042.975   -13176271.258 8 -10248529.71146  22530043.764    22530054.7384
  20505741.437   -23079848.350 9 -17962201.25848  20505744.894    20505753.1524
  22538402.884    -9953770.937 8  -7737289.64746  22538405.290    22538416.3914
  23093418.292   -10209593.338 8  -7936041.02046  23093418.089    23093431.0874
  21911284.904   -17492490.620 9 -13615638.51547  21911288.661    21911298.1064
  21695011.108   -15628359.932 9 -12163844.10947  21695011.830    21695021.1634
 00  7  5  0  4 30.0000000  0  8 11 21 05 29 15 23 25 30
  23811625.509    -5244507.612 7  -4073488.07045  23811635.265    23811648.2104
  20294660.841   -25085389.236 9 -19530461.61847  20294662.703    20294671.9684
  22536352.464   -13143107.905 8 -10222688.15146  22536354.548    22536365.7254
  20506550.989   -23075595.515 9 -17958887.37048  20506554.206    20506562.5924
  22553941.547    -9872095.277 8  -7673646.33546  22553947.404    22553959.5124
  23111507.415   -10114506.032 8  -7861947.15846  23111512.020    23111525.3234
  21898673.992   -17558754.497 9 -13667272.62047  21898679.145    21898688.0114
  21687294.752   -15668900.294 9 -12195433.95147  21687297.234    21687306.4144
 00  7  5  0  5  0.0000000  0  8 11 21 05 29 15 23 25 30
  23808858.307    -5259096.591 8  -4084856.13345  23808859.790    23808872.6274
  20300969.460   -25052231.260 9 -19504624.24948  20300972.523    20300981.9294
  22542766.186   -13109391.994 8 -10196416.02546  22542770.255    22542781.4454
  20507403.285   -23071118.397 9 -17955398.71948  20507406.397    20507414.5104
  22569549.504    -9790094.545 8  -7609749.75146  22569551.869    22569564.2024
  23129656.765   -10019152.601 8  -7787645.90445  23129657.615    23129670.3684
  21886126.533   -17624705.682 9 -13718663.07547  21886128.684    21886137.9664
  21679683.202   -15708900.619 9 -12226602.98647  21679685.439    21679695.0964
 00  7  5  0  5 30.0000000  0  8 11 21 05 29 15 23 25 30
  23806179.370    -5273163.079 8  -4095817.02145  23806183.966    23806194.9544
  20307386.322   -25018508.755 9 -19478346.98748  20307389.695    20307399.2074
  22549289.769   -13075124.365 8 -10169713.99046  22549291.194    22549302.2364
  20508297.238   -23066416.159 9 -17951734.65248  20508301.085    20508309.2144
  22585216.626    -9707771.971 8  -7545602.39546  22585216.922    22585229.4734
  23147851.376    -9923534.882 8  -7713138.74945  23147854.312    23147865.8394
  21873636.408   -17690344.200 9 -13769809.89247  21873638.364    21873647.4164
  21672175.080   -15748359.303 9 -12257349.95547  21672176.622    21672186.6864
 00  7  5  0  6  0.0000000  0  8 11 21 05 29 15 23 25 30
  23803604.353    -5286707.257 8  -4106370.90245  23803606.984    23803616.8904
  20313911.846   -24984222.564 9 -19451630.49548  20313914.444    20313923.7234
  22555919.666   -13040306.172 8 -10142582.96046  22555917.513    22555927.4474
  20509235.364   -23061488.827 9 -17947895.17948  20509238.919    20509246.8854
  22600941.293    -9625131.080 8  -7481206.98546  22600942.822    22600955.0054
  23166098.113    -9827654.533 8  -7638426.91846  23166100.059    23166111.4594
  21861203.367   -17755669.326 9 -13820712.50047  21861206.639    21861216.5054
  21664770.144   -15787274.132 9 -12287673.14747  21664771.233    21664781.0324
 00  7  5  0  6 30.0000000  0  8 11 21 05 29 15 23 25 30
  23801125.750    -5299729.240 8  -4116517.89945  23801127.894    23801138.8714
  20320543.489   -24949372.379 9 -19424474.51948  20320546.082    20320555.2324
  22562644.846   -13004938.367 8 -10115023.64346  22562647.469    22562657.1934
  20510215.266   -23056335.956 9 -17943879.96248  20510219.446    20510227.5354
  22616723.990    -9542175.011 8  -7416565.97946  22616728.973    22616741.0704
  23184386.748    -9731513.114 8  -7563511.63945  23184394.150    23184406.4224
  21848833.703   -17820680.036 9 -13871370.11347  21848836.156    21848845.2834
  21657465.079   -15825643.411 9 -12317571.23947  21657470.197    21657479.4294
 00  7  5  0  7  0.0000000  0  8 11 21 05 29 15 23 25 30
  23798744.373    -5312229.148 8  -4126258.08645  23798749.536    23798760.8674
  20327283.934   -24913958.448 9 -19396879.26247  20327285.013    20327294.1634
  22569480.449   -12969021.987 8 -10087036.87446  22569482.076    22569491.9404
  20511238.423   -23050956.896 9 -17939688.49448  20511242.965    20511251.1114
  22632571.938    -9458906.894 8  -7351681.81946  22632574.308    22632586.4144
  23202734.507    -9635112.630 8  -7488394.48645  23202739.053    23202750.9334
  21836520.504   -17885376.030 9 -13921782.49947  21836524.397    21836534.5754
  21650268.878   -15863464.987 9 -12347042.55247  21650272.900    21650282.4204
 00  7  5  0  7 30.0000000  0  8 11 21 05 29 15 23 25 30
  23796465.788    -5324206.872 8  -4135591.38345  23796469.940    23796481.9584
  20334127.781   -24877981.309 9 -19368845.13647  20334131.100    20334140.3424
  22576417.772   -12932558.257 8 -10058623.60146  22576421.182    22576431.3764
  20512306.643   -23045351.554 9 -17935320.70148  20512309.609    20512317.5484
  22648474.885    -9375330.103 8  -7286557.14546  22648479.194    22648490.4144
  23221129.064    -9538454.785 8  -7413076.78745  23221132.064    23221145.0394
  21824270.586   -17949756.758 9 -13971949.22447  21824273.347    21824282.7514
  21643174.111   -15900737.630 9 -12376086.13247  21643180.173    21643189.6854
 00  7  5  0  8  0.0000000  0  8 11 21 05 29 15 23 25 30
  23794283.723    -5335662.622 8  -4144518.00445  23794290.463    23794301.9334
  20341082.523   -24841441.442 9 -19340372.52747  20341084.619    20341093.6014
  22583461.672   -12895548.217 8 -10029784.62546  22583463.441    22583473.7324
  20513418.332   -23039519.264 9 -17930776.06348  20513419.586    20513427.3344
  22664436.653    -9291448.223 8  -7221194.73446  22664440.752    22664452.4654
  23239573.321    -9441541.380 8  -7337559.94045  23239574.228    23239587.5954
  21812078.332   -18013821.867 9 -14021870.01547  21812082.243    21812091.6044
  21636190.157   -15937459.396 9 -12404700.45247  21636192.058    21636200.9004
 00  7  5  0  8 30.0000000  0  8 11 21 05 29 15 23 25 30
  23792203.276    -5346596.817 7  -4153038.18445  23792208.272    23792220.1104
  20348143.046   -24804338.739 9 -19311461.34047  20348145.067    20348154.1024
  22590611.244   -12857992.945 8 -10000520.79946  22590610.017    22590620.3174
  20514569.746   -23033459.701 9 -17926054.32148  20514572.702    20514580.6194
  22680457.806    -9207264.373 8  -7155597.03546  22680460.944    22680473.2314
  23258065.560    -9344374.102 8  -7261845.30846  23258064.873    23258077.8734
  21799946.566   -18077570.874 9 -14071544.49047  21799951.606    21799960.2514
  21629304.846   -15973628.684 9 -12432884.28047  21629309.579    21629317.8754
 00  7  5  0  9  0.0000000  0  8 11 21 05 29 15 23 25 30
  23790220.173    -5357009.482 8  -4161151.99145  23790227.505    23790239.5534
  20355309.429   -24766673.602 9 -19282111.90247  20355312.387    20355321.4864
  22597858.093   -12819893.467 8  -9970832.92546  22597859.497    22597870.9224
  20515766.777   -23027172.369 9 -17921155.10048  20515769.229    20515776.8524
  22696540.622    -9122781.688 8  -7089766.46046  22696537.641    22696549.6684
  23276595.238    -9246954.862 8  -7185934.35245  23276602.896    23276616.1264
  21787878.644   -18141003.352 9 -14120972.33447  21787880.359    21787889.0684
  21622529.173   -16009243.422 9 -12460635.98247  21622532.097    21622541.0264
 00  7  5  0  9 30.0000000  0  8 11 21 05 29 15 23 25 30
  23788345.206    -5366900.821 8  -4168859.55745  23788345.795    23788356.8234
  20362584.525   -24728446.777 9 -19252324.78547  20362586.777    20362595.9304
  22605212.236   -12781251.163 8  -9940722.04146  22605212.951    22605224.0134
  20517007.401   -23020657.005 9 -17916078.19348  20517008.939    20517016.7794
  22712663.283    -9038003.474 8  -7023705.60546  22712670.948    22712683.3114
  23295183.564    -9149285.589 8  -7109828.57745  23295188.961    23295201.9994
  21775864.747   -18204118.495 9 -14170152.88847  21775869.698    21775878.5534
  21615858.614   -16044302.344 9 -12487954.57647  21615860.633    21615869.5744
 00  7  5  0 10  0.0000000  0  8 11 21 05 29 15 23 25 30
  23786557.943    -5376270.994 8  -4176161.03345  23786563.825    23786573.3024
  20369965.836   -24689658.699 9 -19222100.32347  20369967.922    20369977.0414
  22612666.651   -12742067.030 8  -9910188.95046  22612669.455    22612680.7784
  20518289.161   -23013913.142 9 -17910823.23148  20518292.276    20518300.1664
  22728855.154    -8952933.012 8  -6957417.02546  22728859.223    22728870.6974
  23313818.134    -9051367.915 8  -7033529.22645  23313822.505    23313834.7584
  21763914.904   -18266916.139 9 -14219086.04447  21763919.012    21763928.6884
  21609294.177   -16078803.375 9 -12514838.46247  21609295.342    21609303.9384
 00  7  5  0 10 30.0000000  0  8 11 21 05 29 15 23 25 30
  23784879.860    -5385120.384 8  -4183056.68345  23784879.854    23784889.5854
  20377453.828   -24650309.688 9 -19191438.76947  20377456.039    20377464.9484
  22620228.174   -12702342.401 8  -9879234.72546  22620229.554    22620239.9894
  20519615.285   -23006940.289 9 -17905389.83048  20519619.106    20519627.0684
  22745101.522    -8867573.846 8  -6890903.47946  22745102.295    22745114.1234
  23332495.386    -8953203.597 8  -6957037.66645  23332502.086    23332515.6404
  21752025.954   -18329395.679 9 -14267771.33447  21752030.111    21752038.8104
  21602833.458   -16112744.913 9 -12541286.37547  21602836.455    21602844.6524
 00  7  5  0 11  0.0000000  0  8 11 21 05 29 15 23 25 30
  23783283.948    -5393449.122 8  -4189546.64045  23783294.379    23783304.9344
  20385046.978   -24610400.490 9 -19160340.70147  20385050.325    20385059.8124
  22627890.182   -12662078.657 8  -9847860.39046  22627891.738    22627901.4364
  20520986.227   -22999738.141 9 -17899777.76548  20520989.544    20520997.3294
  22761393.290    -8781929.228 8  -6824167.49146  22761399.085    22761412.2774
  23351228.972    -8854794.350 8  -6880355.27545  23351228.245    23351240.3784
  21740199.445   -18391556.756 9 -14316208.46547  21740201.369    21740210.0794
  21596480.376   -16146125.758 9 -12567297.38447  21596483.303    21596492.8954
 00  7  5  0 11 30.0000000  0  8 11 21 05 29 15 23 25 30
  23781807.273    -5401257.544 8  -4195631.15845  23781807.296    23781819.5594
  20392748.489   -24569931.332 9 -19128806.31347  20392751.368    20392760.9714
  22635652.903   -12621277.120 8  -9816066.99546  22635655.993    22635666.5034
  20522401.196   -22992306.128 9 -17893986.58048  20522403.901    20522411.4164
  22777747.693    -8696002.379 8  -6757211.58746  22777751.092    22777762.7334
  23370002.005    -8756142.275 8  -6803483.68145  23370002.302    23370016.8234
  21728431.621   -18453398.865 9 -14364397.05747  21728433.472    21728441.8624
  21590234.859   -16178943.902 9 -12592869.92147  21590238.463    21590247.4694
 00  7  5  0 12  0.0000000  0  8 11 21 05 29 15 23 25 30
  23780412.913    -5408546.035 8  -4201310.53245  23780420.341    23780433.1694
  20400556.501   -24528902.537 9 -19096835.84547  20400558.786    20400568.4184
  22643519.212   -12579938.816 8  -9783855.35446  22643522.048    22643532.8164
  20523858.273   -22984643.816 9 -17888015.94048  20523861.781    20523869.7314
  22794151.452    -8609796.739 8  -6690038.44446  22794156.288    22794167.6724
  23388814.083    -8657249.169 8  -6726424.28145  23388820.691    23388835.2504
  21716719.014   -18514921.396 9 -14412336.61647  21716725.745    21716734.8274
  21584097.494   -16211197.781 9 -12618002.78047  21584100.668    21584109.9124
 00  7  5  0 12 30.0000000  0  8 11 21 05 29 15 23 25 30
  23779125.566    -5415314.985 7  -4206585.06545  23779132.626    23779144.3464
  20408469.126   -24487314.982 9 -19064429.97347  20408472.655    20408482.0364
  22651488.078   -12538065.157 8  -9751226.53446  22651490.718    22651501.0574
  20525360.457   -22976750.839 9 -17881865.56248  20525364.079    20525371.5494
  22810611.044    -8523315.764 8  -6622650.76446  22810612.971    22810624.5654
  23407687.202    -8558116.781 8  -6649178.43945  23407685.210    23407698.7774
  21705077.802   -18576123.986 9 -14460026.87847  21705079.148    21705088.4274
  21578065.835   -16242886.182 9 -12642695.00347  21578070.210    21578079.9384
 00  7  5  0 13  0.0000000  0  8 11 21 05 29 15 23 25 30
  23777941.613    -5421564.644 8  -4211454.93245  23777943.243    23777955.4784
  20416490.118   -24445169.170 9 -19031589.09947  20416492.654    20416501.8814
  22659556.503   -12495657.432 8  -9718181.57846  22659559.692    22659570.1384
  20526907.729   -22968626.732 9 -17875535.08648  20526909.967    20526917.9274
  22827118.409    -8436562.721 8  -6555051.07846  22827121.432    22827134.1114
  23426589.968    -8458747.197 7  -6571747.74545  23426594.397    23426608.8194
  21693488.785   -18637006.476 9 -14507467.70647  21693493.303    21693502.8114
  21572148.059   -16274007.264 9 -12666945.14947  21572148.397    21572158.0364
 00  7  5  0 13 30.0000000  0  8 11 21 05 29 15 23 25 30
  23776848.020    -5427295.355 7  -4215920.44645  23776852.848    23776863.8784
  20424615.025   -24402465.999 9 -18998313.91347  20424618.961    20424628.2204
  22667723.823   -12452716.934 8  -9684721.47446  22667731.094    22667741.5944
  20528496.080   -22960271.122 9 -17869024.21848  20528499.696    20528508.0924
  22843680.499    -8349540.729 8  -6487241.82146  22843681.809    22843693.3694
  23445543.660    -8359142.071 8  -6494133.53745  23445548.734    23445562.7954
  21681963.767   -18697568.349 9 -14554658.70547  21681968.719    21681978.1074
  21566332.020   -16304559.658 9 -12690752.17547  21566335.296    21566343.7994
 00  7  5  0 14  0.0000000  0  8 11 21 05 29 15 23 25 30
  23775861.880    -5432507.561 8  -4219981.92045  23775861.406    23775872.1474
  20432846.870   -24359205.301 9 -18964604.29647  20432851.107    20432860.3594
  22676002.604   -12409245.052 8  -9650847.31746  22676003.585    22676013.6724
  20530131.545   -22951683.512 9 -17862332.57148  20530134.064    20530142.2234
  22860292.923    -8262253.012 8  -6419225.49046  22860291.473    22860304.2834
  23464550.902    -8259303.321 8  -6416337.22145  23464548.164    23464561.8544
  21670501.387   -18757808.869 9 -14601599.30047  21670505.244    21670514.1534
  21560629.386   -16334541.798 9 -12714114.85147  21560629.764    21560638.4804
 00  7  5  0 14 30.0000000  0  8 11 21 05 29 15 23 25 30
  23774966.429    -5437201.882 8  -4223639.83745  23774968.180    23774978.5334
  20441187.287   -24315388.520 9 -18930461.36947  20441189.247    20441198.4344
  22684375.755   -12365243.313 8  -9616560.26446  22684377.490    22684387.5064
  20531808.210   -22942863.356 9 -17855459.72748  20531812.287    20531820.4824
  22876951.276    -8174703.076 8  -6351004.86146  22876951.366    22876964.5184
  23483585.703    -8159232.849 8  -6338360.42945  23483591.468    23483605.0004
  21659100.478   -18817728.115 9 -14648289.56347  21659103.536    21659111.7884
  21555028.794   -16363952.216 9 -12737032.02047  21555033.046    21555041.5544
 00  7  5  0 15  0.0000000  0  8 11 21 05 29 15 23 25 30
  23774170.768    -5441378.742 8  -4226894.51745  23774173.330    23774184.0404
  20449630.243   -24271015.907 9 -18895885.33047  20449633.108    20449642.2774
  22692852.546   -12320712.917 8  -9581861.27246  22692851.254    22692862.9804
  20533531.121   -22933810.248 9 -17848405.35548  20533534.999    20533543.2394
  22893654.415    -8086894.349 8  -6282582.57846  22893660.157    22893673.4764
  23502682.366    -8058932.508 8  -6260204.47145  23502677.055    23502691.2004
  21647758.477   -18877325.080 9 -14694728.69247  21647761.929    21647770.9184
  21549543.250   -16392789.473 9 -12759502.57847  21549545.544    21549554.2604
 00  7  5  0 15 30.0000000  0  8 11 21 05 29 15 23 25 30
  23773473.188    -5445038.507 8  -4229746.27445  23773476.889    23773489.3004
  20458179.682   -24226088.297 9 -18860876.82047  20458182.603    20458191.3554
  22701416.347   -12275655.134 8  -9546751.34346  22701425.787    22701436.1864
  20535299.687   -22924523.842 9 -17841169.19448  20535302.268    20535310.2244
  22910419.351    -7998830.231 8  -6213961.28046  22910419.630    22910431.7234
  23521801.079    -7958404.271 8  -6181870.95345  23521806.885    23521820.4824
  21636479.181   -18936599.802 9 -14740916.72447  21636481.843    21636491.2224
  21544165.048   -16421052.005 9 -12781525.29447  21544167.185    21544175.6224
 00  7  5  0 16  0.0000000  0  8 11 21 05 29 15 23 25 30
  23772875.428    -5448181.674 8  -4232195.50145  23772878.523    23772889.7584
  20466834.242   -24180606.390 9 -18825436.38947  20466837.355    20466846.7124
  22710101.536   -12230071.458 8  -9511231.59046  22710099.368    22710110.5534
  20537110.986   -22915003.566 9 -17833750.79548  20537113.820    20537121.8754
  22927222.523    -7910514.066 8  -6145143.55346  22927225.837    22927237.8864
  23540977.366    -7857649.940 8  -6103361.26845  23540980.525    23540994.4314
  21625262.048   -18995551.668 9 -14786853.18447  21625264.445    21625273.3514
  21538893.820   -16448738.966 9 -12803099.51147  21538898.678    21538907.4654
 00  7  5  0 16 30.0000000  0  8 11 21 05 29 15 23 25 30
  23772373.404    -5450808.935 8  -4234242.68145  23772377.838    23772390.2924
  20475596.486   -24134570.900 9 -18789564.59347  20475597.387    20475606.9384
  22718871.211   -12183963.546 8  -9475303.38546  22718874.477    22718885.3604
  20538966.732   -22905249.012 9 -17826149.84948  20538970.190    20538978.2534
  22944075.191    -7821949.204 8  -6076132.05446  22944078.418    22944091.3714
  23560197.957    -7756671.584 7  -6024677.00545  23560195.926    23560210.4304
  21614104.258   -19054180.732 9 -14832538.10347  21614107.692    21614116.7334
  21533735.208   -16475848.643 9 -12824223.89147  21533739.608    21533748.5194
 00  7  5  0 17  0.0000000  0  8 11 21 05 29 15 23 25 30
  23771972.403    -5452920.541 8  -4235888.08845  23771976.188    23771988.8444
  20484459.916   -24087982.997 9 -18753262.35047  20484463.222    20484472.4744
  22727744.891   -12137332.924 8  -9438967.83546  22727748.273    22727758.8904
  20540867.288   -22895259.825 9 -17818366.07148  20540870.858    20540878.9674
  22960975.640    -7733138.952 8  -6006929.36346  22960978.473    22960991.1794
  23579449.500    -7655470.911 7  -5945819.60645  23579453.687    23579467.9664
  21603009.620   -19112486.363 9 -14877971.00747  21603012.051    21603021.0424
  21528688.970   -16502379.694 9 -12844897.39547  21528690.690    21528699.8984
 00  7  5  0 17 30.0000000  0  8 11 21 05 29 15 23 25 30
  23771668.909    -5454517.060 8  -4237132.12445  23771674.077    23771684.6294
  20493432.036   -24040842.797 9 -18716529.75247  20493433.820    20493443.0184
  22736721.019   -12090180.994 8  -9402226.06746  22736720.232    22736731.0714
  20542812.938   -22885035.551 9 -17810399.10948  20542816.294    20542824.5364
  22977921.867    -7644086.575 8  -5937537.97846  22977924.989    22977937.3664
  23598759.769    -7554049.997 8  -5866790.46945  23598754.075    23598767.6564
  21591975.779   -19170468.196 9 -14923151.59947  21591978.445    21591987.4754
  21523749.842   -16528330.937 9 -12865119.10347  21523752.069    21523761.3484
 00  7  5  0 18  0.0000000  0  8 11 21 05 29 15 23 25 30
  23771462.963    -5455599.435 8  -4237975.51145  23771466.577    23771478.2364
  20502506.328   -23993151.527 9 -18679367.75347  20502509.148    20502518.1394
  22745786.916   -12042509.370 8  -9365079.38646  22745791.371    22745802.3214
  20544804.912   -22874575.554 9 -17802248.46648  20544807.054    20544815.0254
  22994915.250    -7554795.469 8  -5867960.57246  22994917.363    22994928.5664
  23618085.248    -7452410.742 7  -5787591.27245  23618094.647    23618108.1174
  21581004.211   -19228126.053 9 -14968079.72447  21581006.487    21581015.5474
  21518920.978   -16553701.024 9 -12884887.96047  21518924.464    21518933.5694
 00  7  5  0 18 30.0000000  0  8 11 21 05 29 15 23 25 30
  23771355.463    -5456168.134 7  -4238418.64445  23771357.976    23771370.2434
  20511688.120   -23944909.689 9 -18641776.73447  20511689.562    20511698.5524
  22754959.494   -11994319.453 8  -9327528.81746  22754962.038    22754972.2834
  20546838.962   -22863879.400 9 -17793913.80248  20546842.398    20546850.5004
  23011950.761    -7465269.134 8  -5798199.87946  23011953.075    23011965.9414
  23637473.601    -7350555.035 7  -5708223.36545  23637477.719    23637491.6974
  21570092.130   -19285459.644 9 -15012755.17047  21570096.114    21570104.9314
  21514205.712   -16578488.586 9 -12904202.90047  21514207.780    21514216.2524
 00  7  5  0 19  0.0000000  0  8 11 21 05 29 15 23 25 30
  23771344.827    -5456223.800 8  -4238461.98145  23771348.412    23771358.8464
  20520971.269   -23896118.429 9 -18603757.58947  20520974.088    20520983.0474
  22764229.975   -11945612.694 8  -9289575.51146  22764230.424    22764240.7044
  20548918.658   -22852946.922 9 -17785394.99248  20548922.638    20548930.8344
  23029032.687    -7375510.851 8  -5728258.43846  23029033.461    23029046.4354
  23656895.130    -7248484.842 7  -5628688.32945  23656901.431    23656914.2744
  21559247.146   -19342468.733 9 -15057177.77547  21559248.125    21559256.8134
  21509599.197   -16602692.442 9 -12923063.00847  21509601.862    21509610.2204
 00  7  5  0 19 30.0000000  0  8 11 21 05 29 15 23 25 30
  23771429.586    -5455767.027 7  -4238106.04245  23771435.062    23771446.2354
  20530361.561   -23846778.562 9 -18565310.96247  20530363.085    20530372.1724
  22773591.761   -11896390.879 8  -9251220.86246  22773596.420    22773607.7104
  20551043.797   -22841777.251 9 -17776691.35448  20551048.044    20551056.4334
  23046153.008    -7285523.914 8  -5658138.82146  23046157.979    23046169.9684
  23676365.753    -7146202.000 7  -5548987.59045  23676365.293    23676380.3134
  21548457.427   -19399152.962 9 -15101347.23747  21548461.275    21548470.1034
  21505104.149   -16626311.393 9 -12941467.33947  21505106.846    21505115.9644
 00  7  5  0 20  0.0000000  0  8 11 21 05 29 15 23 25 30
  23771619.164    -5454798.429 8  -4237351.27445  23771618.914    23771630.4304
  20539852.576   -23796891.402 9 -18526437.87047  20539856.189    20539865.4304
  22783056.244   -11846655.239 8  -9212465.85246  22783060.154    22783072.6194
  20553214.159   -22830370.027 9 -17767802.60948  20553218.657    20553227.0774
  23063325.283    -7195311.813 8  -5587843.74546  23063324.084    23063336.6414
  23695863.528    -7043708.789 7  -5469122.87445  23695869.039    23695883.3064
  21537732.700   -19455511.802 9 -15145263.16647  21537736.629    21537745.2754
  21500720.258   -16649344.167 9 -12959414.91147  21500724.154    21500733.3554
 00  7  5  0 20 30.0000000  0  8 11 21 05 29 15 23 25 30
  23771899.275    -5453318.753 8  -4236198.31945  23771900.566    23771912.3684
  20549449.600   -23746457.321 9 -18487138.61147  20549453.197    20549462.8844
  22792619.495   -11796407.538 8  -9173311.84846  22792623.045    22792634.2094
  20555430.772   -22818724.935 9 -17758728.50848  20555434.453    20555443.0034
  23080530.034    -7104877.686 8  -5517375.67746  23080532.910    23080545.5314
  23715411.470    -6941006.811 7  -5389095.56445  23715413.388    23715427.2574
  21527072.306   -19511544.810 9 -15188925.18347  21527073.811    21527082.4624
  21496447.697   -16671789.636 9 -12976904.85247  21496452.988    21496461.8024
 00  7  5  0 21  0.0000000  0  8 11 21 05 29 15 23 25 30
  23772278.717    -5451328.904 8  -4234647.80345  23772279.964    23772290.5914
  20559150.893   -23695477.411 9 -18447414.03947  20559154.337    20559163.8164
  22802278.260   -11745649.547 8  -9133760.16146  22802282.744    22802292.2184
  20557694.232   -22806841.394 9 -17749468.60248  20557695.974    20557704.3064
  23097778.345    -7014225.112 8  -5446737.39946  23097784.245    23097796.3554
  23734995.828    -6838098.190 8  -5308907.15045  23734997.062    23735010.9024
  21516469.455   -19567251.900 9 -15232333.23947  21516473.230    21516481.8894
  21492290.923   -16693646.938 9 -12993936.46847  21492293.560    21492302.4944
 00  7  5  0 21 30.0000000  0  8 11 21 05 29 15 23 25 30
  23772748.940    -5448829.471 7  -4232700.21545  23772754.609    23772766.5004
  20568955.701   -23643952.338 9 -18407264.65947  20568959.429    20568968.9104
  22812035.605   -11694382.599 8  -9093811.89846  22812038.856    22812048.8294
  20559998.690   -22794718.988 9 -17740022.57148  20560003.017    20560010.9914
  23115075.004    -6923357.211 8  -5375931.30946  23115075.529    23115088.5004
  23754620.298    -6734984.957 7  -5228559.40845  23754617.333    23754632.7314
  21505928.216   -19622633.170 9 -15275487.41747  21505934.015    21505943.0364
  21488241.752   -16714914.868 9 -13010508.83647  21488245.917    21488255.4304
 00  7  5  0 22  0.0000000  0  8 11 21 05 29 15 23 25 30
  23773323.432    -5445821.329 8  -4230356.21345  23773327.293    23773339.0404
  20578866.641   -23591882.970 9 -18366691.15747  20578868.247    20578877.6824
  22821887.452   -11642608.637 8  -9053468.59046  22821890.674    22821901.3144
  20562352.409   -22782357.093 9 -17730389.92348  20562355.748    20562363.3044
  23132404.602    -6832277.421 8  -5304960.12646  23132407.476    23132420.4064
  23774277.247    -6631669.224 8  -5148053.87645  23774279.217    23774292.8624
  21495453.227   -19677688.262 9 -15318387.43147  21495457.122    21495466.0244
  21484309.852   -16735592.077 9 -13026620.90647  21484311.522    21484320.4054
 00  7  5  0 22 30.0000000  0  8 11 21 05 29 15 23 25 30
  23773993.083    -5442305.072 7  -4227616.31145  23773996.152    23774006.3984
  20588878.572   -23539270.814 9 -18325694.69247  20588880.155    20588888.9904
  22831836.987   -11590329.296 8  -9012731.45546  22831838.603    22831850.1284
  20564750.548   -22769755.213 9 -17720570.27048  20564753.793    20564761.6714
  23149775.873    -6740988.988 8  -5233826.35846  23149779.308    23149791.6644
  23793972.085    -6528152.772 7  -5067391.93345  23793978.005    23793991.1194
  21485041.977   -19732416.426 9 -15361032.67947  21485042.794    21485051.9024
  21480486.629   -16755677.644 9 -13042271.95447  21480489.509    21480498.2154
 00  7  5  0 23  0.0000000  0  8 11 21 05 29 15 23 25 30
  23774757.378    -5438281.668 8  -4224481.22845  23774762.226    23774773.3694
  20598990.412   -23486116.955 9 -18284276.12647  20598994.412    20599003.9214
  22841882.961   -11537546.170 8  -8971601.75846  22841883.192    22841895.0174
  20567195.292   -22756913.136 9 -17710563.45148  20567197.692    20567205.3974
  23167181.194    -6649495.516 8  -5162532.83146  23167189.353    23167202.4814
  23813718.338    -6424437.518 7  -4986575.01045  23813712.486    23813728.4974
  21474685.968   -19786817.788 9 -15403423.27147  21474690.431    21474699.7954
  21476777.215   -16775170.563 9 -13057461.20047  21476779.593    21476788.9874
 00  7  5  0 23 30.0000000  0  8 11 21 05 29 15 23 25 30
  23775625.161    -5433751.902 8  -4220951.61045  23775624.199    23775637.0594
  20609208.202   -23432422.285 9 -18242436.15047  20609212.117    20609221.3164
  22852022.290   -11484261.083 8  -8930080.94846  22852022.995    22852034.9974
  20569685.522   -22743830.109 9 -17700368.88248  20569687.382    20569695.1504
  23184637.803    -6557800.120 8  -5091081.95646  23184639.171    23184651.6754
  23833479.689    -6320525.508 7  -4905604.83545  23833486.717    23833502.3464
  21464397.598   -19840892.182 9 -15445559.09647  21464400.723    21464409.5284
  21473179.078   -16794069.745 9 -13072187.79447  21473183.768    21473192.5034
 00  7  5  0 24  0.0000000  0  8 11 21 05 29 15 23 25 30
  23776577.392    -5428716.671 8  -4217028.11645  23776582.985    23776594.0244
  20619527.277   -23378187.890 9 -18200175.60047  20619532.372    20619541.9474
  22862254.338   -11430475.768 8  -8888170.33446  22862258.419    22862269.0754
  20572218.727   -22730505.789 9 -17689986.29748  20572222.779    20572230.6624
  23202125.029    -6465906.240 8  -5019476.40946  23202126.099    23202139.2604
  23853307.901    -6216418.748 7  -4824482.84045  23853298.647    23853312.9104
  21454169.645   -19894639.361 9 -15487439.94847  21454172.726    21454181.5804
  21469697.843   -16812374.123 9 -13086450.90747  21469700.613    21469709.4004
 00  7  5  0 24 30.0000000  0  8 11 21 05 29 15 23 25 30
  23777630.013    -5423176.932 8  -4212711.48145  23777636.577    23777648.9654
  20629951.992   -23323414.681 9 -18157495.21447  20629955.552    20629965.6004
  22872585.024   -11376191.855 8  -8845871.19946  22872587.725    22872598.2294
  20574800.588   -22716939.809 9 -17679415.40248  20574804.040    20574812.5084
  23219647.629    -6373817.148 8  -4947718.76246  23219650.543    23219662.5844
  23873133.248    -6112119.495 7  -4743210.88445  23873145.753    23873160.5934
  21444003.197   -19948059.056 9 -15529065.62747  21444007.474    21444016.0124
  21466329.801   -16830082.718 9 -13100249.76647  21466330.580    21466339.5504
 00  7  5  0 25  0.0000000  0  8 11 21 05 29 15 23 25 30
  23778788.639    -5417133.510 8  -4208002.42745  23778786.509    23778798.3724
  20640477.961   -23268103.723 9 -18114395.79947  20640481.351    20640490.9944
  22883009.829   -11321411.018 8  -8803184.84346  22883012.016    22883023.4754
  20577430.054   -22703131.580 9 -17668655.74648  20577432.085    20577440.1364
  23237204.304    -6281536.376 8  -4875811.77346  23237210.584    23237223.9344
  23893030.396    -6007629.498 7  -4661790.27745  23893030.316    23893044.6154
  21433902.452   -20001151.227 9 -15570436.09847  21433904.067    21433913.1404
  21463070.944   -16847194.839 9 -13113583.86047  21463074.598    21463082.7614
 00  7  5  0 25 30.0000000  0  8 11 21 05 29 15 23 25 30
  23780029.009    -5410587.269 8  -4202901.54645  23780032.277    23780043.3814
  20651106.216   -23212256.525 9 -18070878.53747  20651109.194    20651118.2224
  22893526.204   -11266135.149 8  -8760112.76446  22893530.636    22893541.4834
  20580102.695   -22689080.532 9 -17657706.87748  20580105.727    20580113.8814
  23254805.310    -6189067.196 8  -4803757.97446  23254807.008    23254819.5884
  23912944.541    -5902950.769 7  -4580222.60745  23912949.450    23912965.1754
  21423859.847   -20053915.631 9 -15611551.14947  21423863.349    21423872.0444
  21459929.550   -16863709.462 9 -13126452.36247  21459931.749    21459939.8854
 00  7  5  0 26  0.0000000  0  8 11 21 05 29 15 23 25 30
  23781372.583    -5403539.194 8  -4197409.58245  23781374.643    23781384.9194
  20661835.405   -23155874.199 9 -18026944.28447  20661838.176    20661847.2354
  22904136.732   -11210366.085 8  -8716656.38346  22904142.752    22904153.9014
  20582822.007   -22674786.364 9 -17646568.56348  20582825.587    20582833.7704
  23272433.813    -6096413.108 8  -4731560.07746  23272437.992    23272451.2734
  23932906.510    -5798085.231 7  -4498509.30145  23932904.823    23932920.4194
  21413882.919   -20106351.797 9 -15652410.44947  21413884.968    21413893.7764
  21456900.128   -16879625.790 9 -13138854.65847  21456902.731    21456911.2834
 00  7  5  0 26 30.0000000  0  8 11 21 05 29 15 23 25 30
  23782804.427    -5395990.070 8  -4191527.22845  23782809.973    23782821.4804
  20672666.456   -23098958.122 9 -17982594.11747  20672668.934    20672678.0574
  22914846.925   -11154105.657 8  -8672817.11446  22914849.327    22914860.1254
  20585587.482   -22660248.297 9 -17635240.20548  20585592.202    20585600.3564
  23290104.344    -6003577.338 8  -4659220.58946  23290105.020    23290116.8744
  23952883.035    -5693035.060 7  -4416652.10845  23952895.285    23952910.3814
  21403966.290   -20158459.573 9 -15693013.84647  21403969.162    21403977.8694
  21453983.995   -16894942.834 9 -13150789.97747  21453987.864    21453996.3144
 00  7  5  0 27  0.0000000  0  8 11 21 05 29 15 23 25 30
  23784341.720    -5387941.056 8  -4185255.32945  23784343.606    23784354.7144
  20683597.804   -23041509.080 9 -17937828.65547  20683600.867    20683610.6814
  22925647.822   -11097355.706 8  -8628596.42246  22925648.108    22925659.1964
  20588402.421   -22645466.137 9 -17623721.64448  20588405.103    20588413.2904
  23307798.975    -5910563.285 8  -4586742.19546  23307804.870    23307816.8274
  23972912.384    -5587802.622 7  -4334652.86245  23972920.579    23972935.9144
  21394111.608   -20210239.159 9 -15733361.51247  21394115.804    21394124.5954
  21451184.163   -16909659.785 9 -13162257.70447  21451187.451    21451195.5584
 00  7  5  0 27 30.0000000  0  8 11 21 05 29 15 23 25 30
  23785963.988    -5379393.201 8  -4178594.70245  23785970.146    23785980.1144
  20694632.851   -22983528.994 9 -17892649.39447  20694634.486    20694643.5594
  22936535.670   -11040118.014 8  -8583995.64846  22936540.073    22936550.3524
  20591260.807   -22630439.216 9 -17612012.35548  20591264.746    20591272.8604
  23325534.396    -5817374.186 8  -4514127.39445  23325538.026    23325550.6614
  23992980.592    -5482389.674 7  -4252512.98945  23992980.595    23992994.9704
  21384322.128   -20261689.984 9 -15773453.00947  21384325.187    21384333.7254
  21448498.209   -16923775.965 9 -13173257.29647  21448500.668    21448509.6734
 00  7  5  0 28  0.0000000  0  8 11 21 05 29 15 23 25 30
  23787689.454    -5370347.417 8  -4171546.05845  23787690.460    23787701.9364
  20705764.893   -22925018.633 9 -17847056.93847  20705768.435    20705777.9334
  22947522.018   -10982394.561 8  -8539016.37846  22947524.695    22947535.4624
  20594167.973   -22615167.056 9 -17600111.97948  20594170.750    20594179.0134
  23343303.834    -5724013.385 8  -4441378.82945  23343304.367    23343317.0904
  24013067.109    -5376798.406 7  -4170234.22645  24013073.415    24013088.7214
  21374591.612   -20312812.383 9 -15813288.59847  21374596.827    21374605.2844
  21445925.503   -16937290.486 9 -13183788.07347  21445928.953    21445938.2514
 00  7  5  0 28 30.0000000  0  8 11 21 05 29 15 23 25 30
  23789497.245    -5360804.712 7  -4164110.19645  23789505.344    23789518.1014
  20717002.125   -22865978.788 9 -17801051.90047  20717003.440    20717012.5874
  22958597.434   -10924186.948 8  -8493659.84246  22958602.458    22958611.5854
  20597119.588   -22599649.385 9 -17588020.28948  20597123.434    20597131.9754
  23361098.414    -5630484.353 8  -4368499.19546  23361102.199    23361115.6144
  24033195.194    -5271030.870 7  -4087818.11945  24033200.309    24033215.7454
  21364928.062   -20363606.088 9 -15852868.05347  21364931.323    21364939.5124
  21443470.434   -16950202.760 9 -13193849.55547  21443472.284    21443480.8974
 00  7  5  0 29  0.0000000  0  8 11 21 05 29 15 23 25 30
  23791415.762    -5350766.297 8  -4156288.09745  23791416.921    23791427.7184
  20728336.399   -22806411.255 9 -17754635.66547  20728338.676    20728347.7864
  22969770.853   -10865497.227 8  -8447927.60846  22969770.210    22969780.5134
  20600120.465   -22583885.412 9 -17575736.68548  20600123.443    20600131.9264
  23378932.434    -5536790.344 8  -4295490.97846  23378932.159    23378945.0364
  24053358.817    -5165089.069 7  -4005266.28945  24053361.257    24053377.0874
  21355324.164   -20414070.633 9 -15892191.02247  21355327.869    21355336.2824
  21441127.295   -16962512.192 9 -13203441.29147  21441129.941    21441138.4164
 00  7  5  0 29 30.0000000  0  8 11 21 05 29 15 23 25 30
  23793415.907    -5340233.169 7  -4148080.45445  23793420.468    23793430.9544
  20739773.577   -22746317.478 9 -17707809.37647  20739774.438    20739783.8254
  22981024.763   -10806327.367 8  -8401821.26546  22981029.632    22981040.7294
  20603168.749   -22567874.742 9 -17563260.84848  20603170.267    20603178.7004
  23396787.847    -5442934.458 8  -4222356.61745  23396791.360    23396805.0344
  24073556.735    -5058975.101 7  -3922580.26145  24073553.793    24073571.1894
  21345784.022   -20464205.876 9 -15931257.39947  21345787.585    21345795.7724
  21438901.582   -16974217.571 9 -13212562.34447  21438902.205    21438911.1854
 00  7  5  0 30  0.0000000  0  8 11 21 05 29 15 23 25 30
  23795515.528    -5329206.439 8  -4139488.20245  23795519.394    23795531.9384
  20751307.277   -22685698.475 9 -17660573.82147  20751309.624    20751319.1454
  22992382.972   -10746679.051 8  -8355342.12546  22992380.111    22992391.2764
  20606260.988   -22551617.016 9 -17550592.49648  20606264.215    20606272.1934
  23414676.523    -5348920.233 8  -4149098.88745  23414681.572    23414695.1064
  24093777.754    -4952691.046 7  -3839761.70244  24093777.725    24093792.5844
  21336306.290   -20514012.255 9 -15970067.51647  21336309.809    21336317.9684
  21436785.873   -16985318.659 9 -13221212.52347  21436790.036    21436798.2234
 00  7  5  0 30 30.0000000  0  8 11 21 05 29 15 23 25 30
  23797710.719    -5317687.366 8  -4130512.28245  23797711.104    23797724.0514
  20762942.147   -22624555.326 9 -17612929.84847  20762944.406    20762954.4314
  23003821.291   -10686554.402 8  -8308491.79146  23003821.564    23003832.2814
  20609402.371   -22535111.687 9 -17537731.20748  20609405.153    20609412.8174
  23432602.217    -5254751.077 8  -4075720.42445  23432601.779    23432614.4364
  24114035.004    -4846238.954 7  -3756812.21244  24114036.833    24114050.1964
  21326891.822   -20563489.328 9 -16008621.02547  21326894.159    21326902.5164
  21434788.517   -16995814.775 9 -13229391.29747  21434792.678    21434801.0114
 00  7  5  0 31  0.0000000  0  8 11 21 05 29 15 23 25 30
  23799987.584    -5305676.978 7  -4121153.55545  23799996.296    23800009.4324
  20774678.030   -22562889.587 9 -17564878.66747  20774679.243    20774688.8624
  23015351.144   -10625955.229 8  -8261271.69646  23015353.632    23015364.2514
  20612590.528   -22518358.018 9 -17524676.40448  20612593.196    20612601.0034
  23450548.898    -5160430.310 8  -4002223.81145  23450550.984    23450563.4384
  24134333.381    -4739620.967 7  -3673733.50945  24134326.206    24134341.1354
  21317539.239   -20612637.194 9 -16046918.01147  21317541.312    21317550.0374
  21432905.359   -17005704.988 9 -13237097.94147  21432910.368    21432918.6574
 00  7  5  0 31 30.0000000  0  8 11 21 05 29 15 23 25 30
  23802368.987    -5293176.639 7  -4111413.02145  23802375.347    23802386.4814
  20786509.988   -22500703.194 9 -17516421.76847  20786513.260    20786522.4504
  23026967.849   -10564883.572 8  -8213683.44646  23026974.237    23026986.7204
  20615825.681   -22501355.832 9 -17511427.94648  20615828.369    20615836.5614
  23468527.318    -5065961.174 8  -3928611.61145  23468526.890    23468541.1784
  24154648.578    -4632839.156 7  -3590527.08945  24154647.746    24154659.3934
  21308250.341   -20661455.662 9 -16084958.31547  21308251.807    21308260.3004
  21431143.298   -17014988.740 9 -13244332.01847  21431143.664    21431152.2984
 00  7  5  0 32  0.0000000  0  8 11 21 05 29 15 23 25 30
  23804840.932    -5280187.420 8  -4101291.54845  23804847.093    23804858.6224
  20798444.434   -22437997.494 9 -17467560.21847  20798445.698    20798455.4874
  23038682.834   -10503341.461 8  -8165728.61446  23038685.739    23038697.1174
  20619107.938   -22484104.501 9 -17497985.35448  20619111.150    20619119.3744
  23486529.248    -4971347.119 8  -3854886.48745  23486532.246    23486545.3964
  24175006.780    -4525895.578 7  -3507194.59845  24174996.769    24175010.6344
  21299020.638   -20709944.619 9 -16122741.87347  21299024.899    21299032.7474
  21429488.666   -17023665.837 9 -13251093.37547  21429492.779    21429501.1394
 00  7  5  0 32 30.0000000  0  8 11 21 05 29 15 23 25 30
  23807405.432    -5266710.501 8  -4090790.00045  23807411.800    23807421.8504
  20810471.203   -22374773.810 9 -17418295.05347  20810476.549    20810486.4504
  23050485.807   -10441330.838 8  -8117408.66746  23050485.869    23050497.1274
  20622438.416   -22466603.503 9 -17484348.21948  20622441.756    20622449.7404
  23504564.923    -4876591.257 8  -3781050.86845  23504564.620    23504576.8114
  24195369.173    -4418792.086 7  -3423737.51344  24195376.339    24195393.2804
  21289857.869   -20758103.509 9 -16160268.22947  21289860.564    21289868.5714
  21427954.544   -17031735.604 9 -13257381.48847  21427957.437    21427965.6434
 00  7  5  0 33  0.0000000  0  8 11 21 05 29 15 23 25 30
  23810070.579    -5252747.169 8  -4079909.47645  23810069.152    23810079.9674
  20822604.044   -22311033.424 9 -17368627.26647  20822605.910    20822615.8264
  23062367.233   -10378853.491 8  -8068725.05746  23062375.063    23062386.6964
  20625817.026   -22448852.288 9 -17470516.10648  20625819.514    20625827.7424
  23522618.929    -4781697.056 8  -3707107.41545  23522621.634    23522635.4114
  24215773.975    -4311530.949 7  -3340157.59645  24215789.398    24215804.5204
  21280754.121   -20805933.131 9 -16197538.01547  21280758.477    21280767.4044
  21426534.596   -17039197.352 9 -13263195.82347  21426537.373    21426545.6454
 00  7  5  0 33 30.0000000  0  8 11 21 05 29 15 23 25 30
  23812813.791    -5238298.530 8  -4068650.75245  23812816.773    23812828.7444
  20834831.342   -22246777.742 9 -17318557.95747  20834833.520    20834843.3004
  23074351.692   -10315911.815 8  -8019679.66146  23074352.136    23074364.9864
  20629241.840   -22430850.591 9 -17456488.80448  20629245.267    20629253.3264
  23540699.918    -4686667.927 8  -3633058.87345  23540705.423    23540718.1364
  24236225.142    -4204114.341 7  -3256456.49644  24236230.299    24236246.5634
  21271717.615   -20853433.052 9 -16234550.89547  21271720.079    21271728.1474
  21425230.024   -17046050.688 9 -13268536.07447  21425232.778    21425241.5124
 00  7  5  0 34  0.0000000  0  8 11 21 05 29 15 23 25 30
  23815653.005    -5223366.070 7  -4057015.04145  23815660.327    23815671.7764
  20847157.623   -22182008.839 9 -17268088.72147  20847159.021    20847168.2364
  23086409.388   -10252507.867 8  -7970274.06346  23086418.152    23086429.8064
  20632713.693   -22412597.705 9 -17442265.77348  20632718.531    20632726.8454
  23558808.673    -4591507.116 8  -3558907.70945  23558813.293    23558826.8604
  24256702.251    -4096544.288 7  -3172635.86244  24256697.769    24256715.7714
  21262741.829   -20900603.130 9 -16271306.74947  21262743.829    21262751.4314
  21424041.835   -17052294.914 9 -13273401.69847  21424044.308    21424053.1604
 00  7  5  0 34 30.0000000  0  8 11 21 05 29 15 23 25 30
  23818586.303    -5207951.082 8  -4045003.33145  23818593.594    23818604.9214
  20859577.879   -22116727.479 9 -17217220.17947  20859581.823    20859591.4664
  23098573.799   -10188643.299 8  -7920509.53546  23098571.388    23098582.1714
  20636237.208   -22394093.193 9 -17427846.66848  20636239.472    20636248.1694
  23576939.320    -4496217.941 7  -3484656.51845  23576946.503    23576959.9954
  24277185.642    -3988822.854 7  -3088697.24244  24277199.157    24277211.8174
  21253828.334   -20947443.407 9 -16307805.61247  21253830.152    21253838.2734
  21422968.463   -17057929.905 9 -13277792.58247  21422972.255    21422980.5754
 00  7  5  0 35  0.0000000  0  8 11 21 05 29 15 23 25 30
  23821622.975    -5192054.804 8  -4032616.59245  23821617.973    23821630.8754
  20872098.220   -22050935.540 9 -17165953.77047  20872101.438    20872110.6494
  23110809.170   -10124320.101 8  -7870387.59946  23110811.616    23110822.3724
  20639807.698   -22375336.657 9 -17413231.18248  20639809.193    20639817.4084
  23595097.900    -4400803.575 8  -3410307.76945  23595103.476    23595117.0634
  24297730.055    -3880952.308 7  -3004642.43744  24297725.261    24297739.1774
  21244976.266   -20993954.181 9 -16344047.71447  21244979.077    21244988.0644
  21422010.852   -17062955.202 9 -13281708.39547  21422015.925    21422024.0574
 00  7  5  0 35 30.0000000  0  8 11 21 05 29 15 23 25 30
  23824730.012    -5175678.554 8  -4019855.84545  23824735.174    23824745.2654
  20884714.378   -21984634.494 9 -17114290.66147  20884718.271    20884727.5594
  23123136.999   -10059540.639 8  -7819910.16146  23123138.645    23123150.2144
  20643421.796   -22356327.422 9 -17398418.79148  20643426.643    20643434.4964
  23613284.427    -4305267.275 8  -3335864.02845  23613283.855    23613296.9444
  24318278.504    -3772934.865 7  -2920473.16744  24318282.107    24318294.4024
  21236189.956   -21040135.235 9 -16380032.89647  21236191.536    21236199.9374
  21421173.188   -17067370.667 9 -13285149.00747  21421175.809    21421183.7054
 00  7  5  0 36  0.0000000  0  8 11 21 05 29 15 23 25 30
  23827940.604    -5158823.725 7  -4006722.20345  23827942.277    23827954.2944
  20897431.374   -21917825.916 9 -17062232.08047  20897432.033    20897441.0104
  23135553.254    -9994306.922 8  -7769078.76846  23135553.170    23135563.7264
  20647087.847   -22337064.998 9 -17383409.10448  20647092.246    20647100.0774
  23631480.003    -4209612.454 7  -3261327.92245  23631486.294    23631499.8584
  24338855.537    -3664772.521 7  -2836191.03944  24338862.422    24338881.5934
  21227462.472   -21085986.308 9 -16415760.95547  21227466.353    21227474.4144
  21420449.405   -17071175.668 9 -13288113.93147  21420451.935    21420460.3134
 00  7  5  0 36 30.0000000  0  8 11 21 05 29 15 23 25 30
  23831235.857    -5141491.632 7  -3993216.66845  23831237.927    23831251.1744
  20910237.963   -21850511.297 9 -17009779.17647  20910241.364    20910250.3564
  23148049.785    -9928621.120 8  -7717895.10946  23148052.271    23148063.0664
  20650803.399   -22317548.905 9 -17368201.74647  20650805.687    20650813.5494
  23649710.709    -4113842.319 8  -3186701.96445  23649711.284    23649725.2994
  24359486.061    -3556467.363 7  -2751797.60144  24359474.145    24359488.9264
  21218802.457   -21131507.723 9 -16451232.13847  21218803.705    21218811.9864
  21419844.305   -17074369.875 9 -13290602.91647  21419843.774    21419852.2744
 00  7  5  0 37  0.0000000  0  8 11 21 05 29 15 23 25 30
  23834627.027    -5123683.808 8  -3979340.44545  23834628.292    23834639.2234
  20923142.743   -21782692.935 9 -16956933.74047  20923146.387    20923155.8914
  23160636.425    -9862485.352 8  -7666360.82946  23160637.449    23160648.2954
  20654564.837   -22297778.822 9 -17352796.47947  20654567.675    20654575.8764
  23667947.570    -4017960.431 7  -3111988.89645  23667956.160    23667969.7304
  24380093.193                                    24380113.862    24380127.2984
  21210199.326   -21176699.352 9 -16486446.34647  21210204.104    21210212.2394
  21419350.145   -17076953.082 9 -13292615.79347  21419352.338    21419360.7244
 00  7  5  0 37 30.0000000  0  7 11 21 05 29 15 25 30
  23838104.445    -5105401.617 8  -3965094.58745  23838107.964    23838120.5724
  20936143.402   -21714372.041 9 -16903696.72947  20936147.097    20936157.3484
  23173307.561    -9795901.621 8  -7614477.46646  23173307.984    23173318.7414
  20658375.265   -22277754.078 9 -17337192.77647  20658378.056    20658386.6634
  23686221.829    -3921969.979 8  -3037191.22145  23686223.415    23686236.6074
  21201665.053   -21221561.491 9 -16521403.80047  21201666.995    21201675.2104
  21418973.546   -17078924.834 9 -13294152.20647  21418977.139    21418985.4584
 00  7  5  0 38  0.0000000  0  7 11 21 05 29 15 25 30
  23841672.737    -5086646.516 8  -3950480.21745  23841676.772    23841687.2674
  20949239.259   -21645550.169 9 -16850069.35947  20949243.515    20949253.4184
  23186064.459    -9728872.092 8  -7562246.74146  23186062.374    23186074.3414
  20662234.360   -22257474.220 9 -17321390.27948  20662237.596    20662245.7604
  23704510.782    -3825874.112 7  -2962311.45345  23704509.593    23704523.3874
  21193187.557   -21266093.808 9 -16556104.25947  21193192.614    21193200.8884
  21418714.567   -17080285.123 9 -13295212.15947  21418718.214    21418726.7044
 00  7  5  0 38 30.0000000  0  7 11 21 05 29 15 25 30
  23845333.071    -5067419.900 8  -3935498.44245  23845335.780    23845346.3614
  20962435.496   -21576228.850 9 -16796052.80747  20962435.475    20962445.2334
  23198900.744    -9661398.782 8  -7509670.23446  23198902.692    23198914.0854
  20666142.450   -22236938.758 9 -17305388.62248  20666145.461    20666153.7534
  23722818.419    -3729676.056 8  -2887352.05745  23722816.151    23722829.2914
  21184777.306   -21310296.117 9 -16590547.57047  21184781.078    21184789.7364
  21418573.156   -17081033.427 9 -13295795.24547  21418575.807    21418584.0814
 00  7  5  0 39  0.0000000  0  7 11 21 05 29 15 25 30
  23849081.690    -5047723.170 8  -3920150.36245  23849084.016    23849094.2424
  20975719.306   -21506410.058 9 -16741648.59347  20975721.263    20975730.5114
  23211823.726    -9593483.893 8  -7456749.60446  23211827.181    23211837.2004
  20670096.581   -22216147.259 9 -17289187.45148  20670101.540    20670109.9584
  23741133.349    -3633379.196 7  -2812315.64345  23741139.859    23741154.7814
  21176428.980   -21354168.690 9 -16624733.93747  21176432.191    21176440.8174
  21418548.192   -17081169.871 9 -13295901.55347  21418550.143    21418558.1334
 00  7  5  0 39 30.0000000  0  7 11 21 05 29 15 25 30
  23852910.799    -5027557.980 8  -3904437.20745  23852919.851    23852932.1164
  20989098.723   -21436095.495 9 -16686858.06447  20989101.616    20989111.1954
  23224821.317    -9525129.655 8  -7403486.61146  23224834.107    23224845.3434
  20674102.939   -22195099.111 9 -17272786.28848  20674107.099    20674115.3104
  23759482.191    -3536986.883 8  -2737204.87645  23759483.206    23759497.3184
  21168144.072   -21397712.002 9 -16658663.74747  21168146.695    21168154.5344
  21418640.027   -17080694.199 9 -13295530.88547  21418640.547    21418648.7164
 00  7  5  0 40  0.0000000  0  7 11 21 05 29 15 25 30
  23856840.968    -5006925.650 8  -3888360.07945  23856847.072    23856859.2724
  21002574.924   -21365286.979 9 -16631682.63747  21002576.317    21002585.8264
  23237926.019    -9456338.231 8  -7349882.99546  23237924.584    23237936.1564
  20678157.629   -22173793.898 9 -17256184.82648  20678161.445    20678169.2814
  23777834.483    -3440502.470 8  -2662022.33045  23777844.270    23777858.3104
  21159917.977   -21440925.779 9 -16692336.78247  21159923.128    21159931.1924
  21418845.038   -17079606.114 9 -13294683.01147  21418847.494    21418855.5284
 00  7  5  0 40 30.0000000  0  7 11 21 05 29 15 25 30
  23860860.863    -4985827.938 8  -3871920.34045  23860862.121    23860873.2674
  21016139.811   -21293986.267 9 -16576123.69647  21016144.491    21016153.7354
  23251099.467    -9387111.912 8  -7295940.49746  23251098.618    23251109.9004
  20682259.834   -22152231.170 9 -17239382.69847  20682264.308    20682272.5734
  23796221.425    -3343928.955 8  -2586770.36245  23796220.988    23796234.6694
  21151756.157   -21483810.203 9 -16725753.17047  21151762.220    21151770.8264
  21419166.697   -17077905.817 9 -13293358.08447  21419170.530    21419179.0524
 00  7  5  0 41  0.0000000  0  7 11 21 05 29 15 25 30
  23864956.683    -4964266.482 8  -3855119.22145  23864964.049    23864976.2884
  21029801.008   -21222194.966 9 -16520182.47147  21029805.679    21029815.6544
  23264351.270    -9317452.922 8  -7241660.81746  23264355.321    23264365.4204
  20686414.475   -22130410.247 9 -17222379.38047  20686416.861    20686424.9494
  23814605.905    -3247269.640 7  -2511451.54445  23814614.305    23814627.5284
  21143660.610   -21526364.891 9 -16758912.62647  21143664.374    21143672.6474
  21419605.781   -17075593.144 9 -13291555.98947  21419610.578    21419619.9344
 00  7  5  0 41 30.0000000  0  7 11 21 05 29 15 25 30
  23869156.807    -4942242.450 8  -3837957.62845  23869155.619    23869169.2084
  21043558.416   -21149914.956 9 -16463860.44447  21043560.441    21043570.1154
  23277684.329    -9247363.341 8  -7187045.61146  23277691.638    23277702.6704
  20690615.195   -22108330.718 9 -17205174.55747  20690618.508    20690626.6484
  23833022.404    -3150527.941 8  -2436068.52745  23833024.171    23833037.1544
  21135624.285   -21568590.280 9 -16791815.48347  21135628.809    21135637.3204
  21420164.098   -17072667.999 9 -13289276.64447  21420167.782    21420176.3144
 00  7  5  0 42  0.0000000  0  7 11 21 05 29 15 25 30
  23873430.091    -4919757.706 8  -3820437.09345  23873435.242    23873445.7724
  21057405.680   -21077147.987 9 -16407158.95547  21057407.657    21057417.1754
  23291113.122    -9176845.459 8  -7132096.69346  23291110.630    23291122.1754
  20694866.829   -22085992.135 9 -17187767.87147  20694869.178    20694877.4324
  23851436.411    -3053707.032 8  -2360623.76045  23851448.976    23851462.1064
  21127653.343   -21610486.405 9 -16824461.76747  21127656.298    21127664.7744
  21420838.281   -17069130.264 9 -13286519.95147  21420841.159    21420849.2954
 00  7  5  0 42 30.0000000  0  7 11 21 05 29 15 25 30
  23877792.796    -4896814.022 7  -3802558.89145  23877800.179    23877811.0634
  21071343.617   -21003895.672 9 -16350079.27547  21071347.150    21071356.7484
  23304606.344    -9105901.519 8  -7076815.78346  23304611.119    23304623.0514
  20699165.249   -22063393.929 9 -17170158.87947  20699169.394    20699177.8364
  23869894.360    -2956810.055 8  -2285119.71045  23869888.934    23869901.5184
  21119743.661   -21652053.428 9 -16856851.60747  21119746.675    21119754.8494
  21421625.559   -17064979.997 9 -13283285.95547  21421630.263    21421639.2124
 00  7  5  0 43  0.0000000  0  7 11 21 05 29 15 25 30
  23882249.593    -4873412.793 8  -3784324.21845  23882254.152    23882265.4014
  21085375.949   -20930159.930 9 -16292622.90847  21085378.590    21085388.1494
  23318189.497    -9034533.808 8  -7021204.65546  23318193.210    23318203.7054
  20703516.199   -22040535.681 9 -17152347.26047  20703519.321    20703527.5874
  23888332.218    -2859840.371 8  -2209559.04845  23888340.902    23888354.2834
  21111897.686   -21693291.607 9 -16888985.21248  21111899.528    21111907.0374
  21422530.761   -17060217.269 9 -13279574.71947  21422536.652    21422545.4224
 00  7  5  0 43 30.0000000  0  7 11 21 05 29 15 25 30
  23886788.761    -4849555.813 7  -3765734.41345  23886793.327    23886803.8564
  21099497.816   -20855942.935 9 -16234791.52247  21099501.351    21099511.0844
  23331853.092    -8962744.508 8  -6965265.00346  23331853.132    23331865.1274
  20707912.667   -22017416.834 9 -17134332.57447  20707918.621    20707927.1634
  23906801.083    -2762801.171 8  -2133944.18745  23906806.953    23906819.7064
  21104110.060   -21734200.931 9 -16920862.56848  21104114.207    21104122.6804
  21423553.683   -17054842.275 9 -13275386.39347  21423559.773    21423568.0204
 00  7  5  0 44  0.0000000  0  7 11 21 05 29 15 25 30
  23891417.394    -4825244.509 7  -3746790.54345  23891419.967    23891432.5654
  21113710.702   -20781247.076 9 -16176587.01147  21113715.415    21113725.3994
  23345591.723    -8890535.948 8  -6908998.66246  23345593.986    23345605.5244
  20712364.251   -21994037.046 9 -17116114.56347  20712367.844    20712376.2854
  23925281.121    -2665695.402 8  -2058277.45545  23925284.834    23925298.4654
  21096389.621   -21774781.809 9 -16952483.97948  21096391.717    21096400.4384
  21424695.715   -17048854.943 9 -13270720.93047  21424698.973    21424707.4834
 00  7  5  0 44 30.0000000  0  7 11 21 05 29 15 25 30
  23896131.503    -4800480.447 7  -3727493.91945  23896132.881    23896144.7784
  21128016.285   -20706073.470 9 -16118010.21847  21128020.922    21128030.2014
  23359412.285    -8817910.185 8  -6852407.22346  23359414.317    23359426.4434
  20716863.425   -21970395.797 9 -17097692.81747  20716866.520    20716875.1024
  23943769.611    -2568526.488 8  -1982561.52545  23943775.571    23943788.3914
  21088728.060   -21815033.930 9 -16983849.22547  21088732.278    21088740.1724
  21425950.299   -17042255.233 9 -13265578.28247  21425955.005    21425963.2854
 00  7  5  0 45  0.0000000  0  7 11 21 05 29 15 25 30
  23900927.274    -4775265.786 7  -3707846.16745  23900930.480    23900941.9784
  21142418.352   -20630423.456 9 -16059062.19847  21142416.279    21142426.0274
  23373311.555    -8744869.470 8  -6795492.43446  23373313.894    23373325.8214
  20721411.943   -21946492.479 9 -17079066.85947  20721415.421    20721423.4524
  23962280.688    -2471297.554 8  -1906798.80945  23962278.844    23962292.2444
  21081131.415   -21854957.652 9 -17014958.57647  21081134.701    21081142.6894
  21427325.719   -17035043.453 9 -13259958.70347  21427327.285    21427335.5864
 00  7  5  0 45 30.0000000  0  7 11 21 05 29 15 25 30
  23905817.923    -4749601.924 8  -3687848.43945  23905815.397    23905826.3644
  21156898.093   -20554300.014 9 -15999745.28947  21156902.215    21156912.0624
  23387292.194    -8671416.337 8  -6738256.29946  23387291.658    23387303.6814
  20726009.452   -21922326.639 9 -17060236.33947  20726014.117    20726022.0224
  23980788.874    -2374012.046 8  -1830992.02545  23980790.757    23980805.1584
  21073597.217   -21894553.135 9 -17045812.15747  21073600.041    21073608.1024
  21428813.464   -17027219.903 9 -13253862.42947  21428815.522    21428824.5354
 00  7  5  0 46  0.0000000  0  7 11 21 05 29 15 25 30
  23910776.983    -4723490.887 7  -3667502.23245  23910782.493    23910795.6874
  21171473.397   -20477704.613 9 -15940060.62147  21171478.273    21171487.7664
  23401339.698    -8597552.995 8  -6680700.53346  23401347.441    23401359.1614
  20730659.620   -21897897.730 9 -17041200.83447  20730662.768    20730670.9184
  23999314.229    -2276672.995 8  -1755143.52045  23999314.411    23999327.8484
  21066124.095   -21933820.438 9 -17076410.01847  21066127.639    21066135.5994
  21430417.049   -17018784.368 9 -13247289.27347  21430420.788    21430429.8394
 00  7  5  0 46 30.0000000  0  7 11 21 05 29 15 25 30
  23915836.383    -4696934.115 8  -3646808.68645  23915836.601    23915848.8354
  21186142.276   -20400639.600 9 -15880010.00947  21186143.348    21186152.6724
  23415476.999    -8523281.653 8  -6622826.82246  23415480.607    23415491.9604
  20735358.015   -21873205.486 9 -17021960.13047  20735361.370    20735369.6704
  24017845.021    -2179283.604 8  -1679255.80245  24017846.065    24017861.0944
  21058715.288   -21972759.633 9 -17106752.21548  21058717.996    21058725.9934
  21432140.505   -17009737.378 9 -13240239.66147  21432142.843    21432151.0134
 00  7  5  0 47  0.0000000  0  7 11 21 05 29 15 25 30
  23920972.024    -4669933.461 8  -3625769.27245  23920974.097    23920985.6314
  21200892.242   -20323106.701 8 -15819594.82047  21200896.958    21200906.3484
  23429690.263    -8448604.753 8  -6564637.10546  23429691.158    23429703.0154
  20740107.085   -21848249.244 9 -17002513.71447  20740110.469    20740118.7144
  24036382.250    -2081847.040 8  -1603331.31245  24036388.900    24036401.4874
  21051367.633   -22011370.906 9 -17136838.88048  21051370.346    21051378.7614
  21433979.291   -17000079.142 9 -13232713.76047  21433980.516    21433989.2854
 00  7  5  0 47 30.0000000  0  7 11 21 05 29 15 25 30
  23926190.639    -4642490.661 7  -3604385.31045  23926197.206    23926209.0164
  21215733.145   -20245108.104 8 -15758816.73947  21215739.460    21215749.8264
  23443977.388    -8373524.739 8  -6506133.29646  23443978.784    23443990.6474
  20744905.301   -21823028.492 9 -16982861.19047  20744909.925    20744918.0064
  24054932.575    -1984366.797 8  -1527372.76245  24054938.576    24054951.9744
  21044083.376   -22049654.808 9 -17166670.44848  21044085.243    21044093.4864
  21435931.935   -16989809.784 9 -13224711.66447  21435934.854    21435943.2504
 00  7  5  0 48  0.0000000  0  7 11 21 05 29 15 25 30
  23931501.708    -4614607.564 8  -3582658.28445  23931503.083    23931515.5204
  21230666.867   -20166645.679 8 -15697677.25747  21230670.270    21230680.7134
  23458340.709    -8298043.972 8  -6447317.22046  23458342.514    23458353.7394
  20749755.989   -21797542.867 9 -16963002.27147  20749759.720    20749767.8904
  24073489.873    -1886846.019 8  -1451382.64145  24073495.959    24073509.3164
  21036859.863   -22087611.247 9 -17196246.85648  21036862.139    21036870.7514
  21438002.985   -16978929.593 9 -13216233.58947  21438005.432    21438013.6274
 00  7  5  0 48 30.0000000  0  7 11 21 05 29 15 25 30
  23936890.343    -4586286.191 8  -3560589.71245  23936892.337    23936903.6954
  21245688.016   -20087721.703 9 -15636178.11447  21245689.667    21245699.8344
  23472779.134    -8222164.652 8  -6388190.56546  23472781.906    23472792.6214
  20754658.149   -21771791.825 9 -16942936.53047  20754660.238    20754668.3754
  24092059.587    -1789287.565 8  -1375363.17145  24092060.999    24092074.3924
  21029698.550   -22125240.238 9 -17225568.11448  21029701.742    21029709.8294
  21440189.482   -16967438.986 9 -13207279.86147  21440192.093    21440200.1814
 00  7  5  0 49  0.0000000  0  7 11 21 05 29 15 25 30
  23942361.355    -4557528.200 7  -3538180.96045  23942364.363    23942376.3534
  21260791.858   -20008337.647 9 -15574320.46847  21260796.278    21260805.6704
  23487290.289    -8145889.120 8  -6328755.13245  23487296.404    23487307.9754
  20759606.111   -21745774.922 9 -16922663.62947  20759610.999    20759619.2774
  24110629.502    -1691694.434 8  -1299316.70845  24110632.881    24110646.2624
  21022601.301   -22162541.981 9 -17254634.37448  21022603.436    21022611.3844
  21442494.556   -16955338.282 9 -13197850.73247  21442494.605    21442503.0794
 00  7  5  0 49 30.0000000  0  7 11 21 05 29 15 25 30
  23947920.128    -4528335.435 8  -3515433.40445  23947920.211    23947930.8464
  21275989.231   -19928495.782 9 -15512106.06047  21275989.381    21275998.7544
  23501879.591    -8069219.550 8  -6269012.71045  23501885.007    23501898.0774
  20764609.234   -21719491.685 9 -16902183.20347  20764612.063    20764620.6864
  24129198.623    -1594070.061 7  -1223245.85145  24129209.201    24129223.9794
  21015564.792   -22199517.082 9 -17283446.10948  21015567.713    21015575.3074
  21444911.548   -16942628.078 9 -13187946.66847  21444913.101    21444921.8104
 00  7  5  0 50  0.0000000  0  7 11 21 05 29 15 25 30
  23953548.665    -4498709.908 7  -3492348.67745  23953557.712    23953570.7804
  21291262.634   -19848198.494 8 -15449536.80347  21291268.852    21291278.8034
  23516547.116    -7992158.405 8  -6208965.18646  23516550.165    23516562.9924
  20769660.451   -21692941.554 9 -16881494.80247  20769664.405    20769673.0574
  24147793.125    -1496417.671 8  -1147153.20145  24147792.660    24147806.2654
  21008590.038   -22236165.554 9 -17312003.33048  21008593.481    21008601.2834
  21447444.857   -16929308.560 9 -13177567.81047  21447447.634    21447456.6764
 00  7  5  0 50 30.0000000  0  7 11 21 05 29 15 25 30
  23959271.815    -4468653.494 7  -3468928.15545  23959277.542    23959290.1484
  21306633.784   -19767447.859 8 -15386614.26947  21306635.533    21306645.7474
  23531282.018    -7914708.259 8  -6148614.52146  23531288.901    23531300.7154
  20774765.621   -21666124.095 9 -16860598.09347  20774767.845    20774775.9794
  24166378.760    -1398740.349 8  -1071041.08945  24166380.612    24166394.2604
  21001679.554   -22272487.519 9 -17340306.12848  21001681.284    21001689.2974
  21450097.309   -16915380.120 9 -13166714.47447  21450098.313    21450107.0484
 00  7  5  0 51  0.0000000  0  7 11 21 05 29 15 25 30
  23965077.350    -4438168.009 7  -3445173.30945  23965079.044    23965091.5474
  21322082.334   -19686245.514 9 -15323339.77747  21322088.471    21322098.6014
  23546094.677    -7836871.537 8  -6087962.60445  23546100.929    23546112.6294
  20779916.919   -21639038.968 9 -16839492.81247  20779921.589    20779929.9114
  24184967.302    -1301041.181 8   -994911.96645  24184971.723    24184985.5364
  20994826.974   -22308483.468 9 -17368354.88948  20994831.400    20994839.5884
  21452862.318   -16900843.293 9 -13155387.06547  21452864.381    21452872.8224
 00  7  5  0 51 30.0000000  0  7 11 21 05 29 15 25 30
  23970958.884    -4407255.295 7  -3421085.53845  23970961.124    23970973.0234
  21337623.297   -19604594.310 8 -15259715.51147  21337626.151    21337635.9734
  23560986.594    -7758650.738 8  -6027011.42345  23560986.021    23560997.7834
  20785122.085   -21611685.510 9 -16818178.44647  20785126.663    20785135.1124
  24203561.554    -1203323.452 7   -918768.39745  24203567.558    24203580.5444
  20988039.331   -22344153.532 9 -17396149.71448  20988043.638    20988051.8204
  21455744.375   -16885698.244 9 -13143585.70947  21455746.351    21455754.9054
 00  7  5  0 52  0.0000000  0  7 11 21 05 29 15 25 30
  23976915.749    -4375917.350 7  -3396666.41345  23976924.054    23976934.9014
  21353248.642   -19522496.091 9 -15195742.93647  21353248.635    21353258.7194
  23575944.989    -7680048.314 8  -5965762.86946  23575943.193    23575955.3024
  20790379.643   -21584063.317 9 -16796654.67547  20790383.091    20790391.2724
  24222159.450    -1105590.317 7   -842612.83645  24222163.973    24222178.6154
  20981314.265   -22379497.830 9 -17423690.69648  20981318.135    20981326.2234
  21458742.520   -16869946.090 9 -13131311.29147  21458743.988    21458752.5794
 00  7  5  0 52 30.0000000  0  7 11 21 05 29 15 25 30
  23982960.392    -4344156.188 7  -3371917.53245  23982967.028    23982980.1914
  21368950.183   -19439952.962 8 -15131423.65647  21368956.282    21368966.3554
  23590972.761    -7601066.351 8  -5904218.57046  23590973.456    23590985.1774
  20795688.746   -21556171.945 9 -16774921.15047  20795690.864    20795699.1394
  24240765.014    -1007844.799 7   -766447.60545  24240765.307    24240779.1024
  20974649.353   -22414516.455 9 -17450977.90548  20974654.131    20974662.3814
  21461855.619   -16853586.801 9 -13118563.78947  21461857.373    21461865.8454
 00  7  5  0 53  0.0000000  0  7 11 21 05 29 15 25 30
  23989088.475    -4311973.796 7  -3346840.38845  23989092.726    23989105.4234
  21384744.945   -19356966.957 8 -15066759.29247  21384747.963    21384757.7854
  23606078.653    -7521707.281 8  -5842380.41445  23606075.058    23606086.7934
  20801046.542   -21528010.784 9 -16752977.40247  20801049.789    20801058.0974
  24259366.646     -910089.962 8   -690275.10945  24259366.818    24259382.3034
  20968049.316   -22449209.956 9 -17478011.77648  20968052.166    20968060.2304
  21465082.242   -16836621.179 9 -13105343.82247  21465085.807    21465094.5744
 00  7  5  0 53 30.0000000  0  7 11 21 05 29 15 25 30
  23995292.514    -4279372.161 7  -3321436.61545  23995296.648    23995309.0244
  21400619.111   -19273540.455 8 -15001751.66847  21400623.030    21400632.7274
  23621243.144    -7441973.652 8  -5780250.40645  23621247.836    23621259.4734
  20806456.562   -21499579.525 9 -16730823.18947  20806459.780    20806468.5014
  24277967.356     -812329.044 8   -614097.86345  24277971.513    24277985.5534
  20961506.456   -22483578.588 9 -17504792.50548  20961511.578    20961520.0744
  21468426.102   -16819049.769 9 -13091651.79647  21468429.369    21468437.6484
 00  7  5  0 54  0.0000000  0  7 11 21 05 29 15 25 30
  24001577.382    -4246353.309 7  -3295707.70645  24001581.771    24001592.1974
  21416578.323   -19189675.817 8 -14936402.65347  21416582.595    21416592.2804
  23636491.779    -7361867.748 8  -5717830.29345  23636491.741    23636503.4634
  20811920.496   -21470877.808 9 -16708458.23047  20811921.344    20811930.3164
  24296567.561     -714564.949 7   -537918.12545  24296574.738    24296588.9924
  20955029.298   -22517622.668 9 -17531320.32848  20955033.082    20955041.5784
  21471886.766   -16800873.321 9 -13077488.31847  21471888.318    21471896.5214
 00  7  5  0 54 30.0000000  0  7 11 21 05 29 15 25 30
  24007936.635    -4212919.048 7  -3269655.12645  24007942.220    24007954.1784
  21432621.865   -19105375.209 8 -14870713.93147  21432624.309    21432634.5904
  23651804.087    -7281392.257 8  -5655122.19046  23651805.798    23651818.0634
  20817432.639   -21441905.128 9 -16685882.12447  20817435.289    20817443.2444
  24315173.771     -616800.933 7   -461738.47445  24315178.108    24315192.3034
  20948613.817   -22551342.301 9 -17557595.34348  20948616.958    20948625.0144
  21475460.633   -16782092.304 9 -13062853.75547  21475461.996    21475470.3464
 00  7  5  0 55 30.0000000  0  7 11 21 05 29 15 25 30
  24020902.949    -4144812.635 7  -3216585.28045  24020901.339    24020915.5254
  21464946.513   -18935474.255 8 -14738323.69547  21464955.033    21464965.4764
  23682641.445    -7119341.561 8  -5528849.10445  23682642.835    23682655.2914
  20828614.188   -21383144.646 9 -16640094.74947  20828617.254    20828625.0694
  24352377.498     -421285.253 7   -309388.80245  24352383.636    24352399.0014
  20935966.349   -22617809.411 9 -17609387.85848  20935968.643    20935977.1254
  21482951.232   -16742719.375 9 -13032173.54647  21482954.539    21482962.7364
 00  7  5  0 56  0.0000000  0  7 11 21 05 29 15 25 30
  24027496.752    -4110144.783 7  -3189571.37645  24027501.442    24027512.2724
  21481241.374   -18849878.714 8 -14671625.93947  21481243.574    21481254.4174
  23698160.202    -7037771.560 8  -5465288.13145  23698165.346    23698177.5344
  20834282.145   -21353356.023 9 -16616882.84247  20834286.056    20834293.7854
  24370982.134     -323539.345 7   -233223.30345  24370985.994    24370998.8414
  20929733.237   -22650557.567 9 -17634905.88748  20929736.805    20929745.1054
  21486869.472   -16722128.586 9 -13016128.77147  21486872.522    21486880.9764
 00  7  5  0 56 30.0000000  0  8 11 20 21 05 29 15 25 30
  24034170.756    -4075069.806 7  -3162240.26045  24034174.236    24034186.3324
  24669195.086     -968991.03917   -737560.08355  24669194.379    24669206.7264
  21497609.254   -18763856.259 8 -14604595.50247  21497612.884    21497623.1064
  23713755.474    -6955841.559 8  -5401446.62445  23713756.172    23713768.5144
  20840002.420   -21323294.698 9 -16593458.44247  20840006.556    20840014.3504
  24389577.680     -225805.821 7   -157067.41145  24389582.936    24389597.4194
  20923561.745   -22682982.609 9 -17660172.12648  20923566.448    20923574.5814
  21490903.900   -16700935.996 9 -12999615.07147  21490905.515    21490914.1674
 00  7  5  0 57  0.0000000  0  8 11 20 21 05 29 15 25 30
  24040916.887    -4039589.987 7  -3134593.66345  24040924.445    24040937.3674
  24649498.359    -1072475.284 7   -818196.98845  24649502.659    24649514.6094
  21514059.696   -18677409.063 8 -14537234.11247  21514063.876    21514074.2174
  23729409.578    -6873554.122 8  -5337326.63045  23729415.880    23729427.7324
  20845777.051   -21292960.023 9 -16569821.04147  20845779.343    20845786.9914
  24408174.453     -128087.838 7    -80923.63645  24408177.455    24408192.2304
  20917456.028   -22715084.830 9 -17685186.82248  20917457.931    20917465.7964
  21495047.974   -16679142.412 9 -12982633.05447  21495052.917    21495061.3434
 00  7  5  0 57 30.0000000  0  8 11 20 21 05 29 15 25 30
  24047753.009    -4003707.280 7  -3106633.16345  24047754.385    24047765.2254
  24629838.215    -1175788.600 7   -898700.74445  24629842.782    24629853.9064
  21530591.479   -18590539.113 8 -14469543.29647  21530594.208    21530604.5894
  23745136.764    -6790911.629 8  -5272929.98845  23745141.467    23745153.3674
  20851602.081   -21262351.663 9 -16545970.38247  20851603.868    20851611.5764
  24426768.153      -30388.251 8     -4794.20345  24426769.281    24426784.1024
  20911405.873   -22746864.444 9 -17709950.13348  20911410.238    20911417.9664
  21499311.410   -16656748.539 9 -12965183.28247  21499314.347    21499322.6404
 00  7  5  0 58  0.0000000  0  8 11 20 21 05 29 15 25 30
  24054662.631    -3967423.894 7  -3078360.39145  24054658.573    24054671.0524
  24610222.111    -1278928.528 8   -979069.39745  24610216.766    24610227.2854
  21547200.392   -18503248.907 8 -14401525.01446  21547204.949    21547214.9184
  23760928.636    -6707916.563 8  -5208258.58445  23760934.390    23760946.9674
  20857477.315   -21231469.045 9 -16521906.00647  20857480.103    20857488.0644
  24445352.889       67289.817 7     71318.47645  24445357.204    24445371.8234
  20905420.439   -22778321.819 9 -17734462.35448  20905423.863    20905431.5724
  21503684.323   -16633755.309 9 -12947266.47147  21503689.224    21503698.0954
 00  7  5  0 58 30.0000000  0  8 11 20 21 05 29 15 25 30
  24061635.382    -3930741.975 8  -3049777.10745  24061637.757    24061650.9084
  24590623.489    -1381892.338 8  -1059300.80945  24590623.078    24590633.6824
  21563892.203   -18415541.095 8 -14333181.30647  21563895.650    21563906.0294
  23776786.146    -6624571.579 8  -5143314.51445  23776794.055    23776806.4944
  20863404.688   -21200311.927 9 -16497627.73947  20863409.315    20863417.1144
  24463939.799      164943.421 8    147412.09345  24463941.263    24463954.6484
  20899497.476   -22809457.714 9 -17758724.06948  20899499.144    20899507.0944
  21508173.876   -16610163.465 9 -12928883.21347  21508178.934    21508187.3514
 00  7  5  0 59  0.0000000  0  8 11 20 21 05 29 15 25 30
  24068689.325    -3893663.651 7  -3020884.92745  24068694.850    24068707.1244
  24571058.677    -1484677.499 7  -1139392.97845  24571063.278    24571075.6754
  21580661.676   -18327418.102 8 -14264514.09847  21580665.054    21580674.6674
  23792719.212    -6540879.248 8  -5078099.79745  23792719.912    23792733.2564
  20869387.129   -21168879.755 9 -16473135.14847  20869390.047    20869398.5414
  24482517.509      262569.412 8    223484.18245  24482519.130    24482532.8704
  20893631.585   -22840271.745 9 -17782734.97148  20893635.247    20893643.3284
  21512780.554   -16585974.005 9 -12910034.28147  21512782.489    21512790.9404
 00  7  5  0 59 30.0000000  0  8 11 20 21 05 29 15 25 30
  24075823.151    -3856190.987 7  -2991685.47345  24075826.389    24075839.1684
  24551533.337    -1587281.391 7  -1219343.89445  24551539.058    24551550.5484
  21597508.013   -18238881.984 8 -14195524.96047  21597512.955    21597522.9574
  23808703.953    -6456842.024 8  -5012616.36245  23808711.594    23808725.0394
  20875422.049   -21137172.091 9 -16448427.88047  20875423.870    20875432.0694
  24501086.263      360164.893 8    299532.49145  24501089.964    24501104.2874
  20887828.543   -22870764.815 9 -17806495.77748  20887832.850    20887840.7644
  21517496.702   -16561187.572 9 -12890720.18247  21517499.533    21517507.0864
 00  7  5  1  0  0.0000000  0  8 11 20 21 05 29 15 25 30
  24083013.458    -3818326.392 7  -2962180.61345  24083029.714    24083043.0324
  24532051.780    -1689701.291 7  -1299151.45345  24532048.707    24532058.1604
  21614434.640   -18149935.045 8 -14126215.71747  21614438.853    21614449.1744
  23824773.436    -6372462.308 8  -4946866.01645  23824770.140    23824782.0574
  20881507.723   -21105188.556 9 -16423505.64647  20881510.762    20881518.5414
  24519643.840      457726.910 7    375554.74445  24519653.847    24519670.1714
  20882087.724   -22900937.021 9 -17830006.55448  20882091.270    20882099.2614
  21522325.987   -16535805.270 9 -12870941.76647  21522328.658    21522337.5484
 00  7  5  1  0 30.0000000  0  7 11 20 21 05 29 25 30
  24090317.013    -3780071.794 8  -2932371.80845  24090311.805    24090322.7044
  24512593.860    -1791934.994 7  -1378813.88745  24512593.750    24512604.9244
  21631439.682   -18060580.089 8 -14056588.54546  21631442.923    21631452.1134
  23840888.644    -6287742.612 8  -4880850.74145  23840891.951    23840903.7994
  20887645.367   -21072928.595 9 -16398368.00947  20887649.146    20887657.3774
  20876407.249   -22930788.622 9 -17853267.51048  20876410.589    20876418.6104
  21527271.454   -16509827.958 9 -12850699.70547  21527271.818    21527280.4474
 00  7  5  1  1  0.0000000  0  7 11 20 21 05 29 25 30
  24097664.757    -3741429.561 7  -2902260.97545  24097665.568    24097676.6954
  24493165.402    -1893979.569 7  -1458328.98245  24493174.903    24493185.7094
  21648523.017   -17970819.127 8 -13986644.94746  21648523.547    21648533.2724
  23857076.957    -6202685.360 8  -4814572.44945  23857078.483    23857089.8984
  20893838.327   -21040392.034 9 -16373014.84647  20893840.683    20893848.9164
  20870789.110   -22960320.069 9 -17876279.00048  20870791.187    20870798.9274
  21532324.886   -16483256.557 9 -12829994.71447  21532328.920    21532336.9794
 00  7  5  1  1 30.0000000  0  7 11 20 21 05 29 25 30
  24105089.028    -3702402.038 7  -2871849.94245  24105091.389    24105103.8514
  24473790.436    -1995832.444 7  -1537694.75145  24473794.053    24473802.8764
  21665678.727   -17880654.685 8 -13916387.00547  21665681.460    21665691.8874
  23873328.982    -6117293.014 8  -4748033.05245  23873328.241    23873338.5864
  20900080.412   -21007578.228 9 -16347445.65247  20900084.661    20900093.1124
  20865227.083   -22989531.342 9 -17899041.00248  20865232.052    20865239.9404
  21537494.265   -16456091.885 9 -12808827.43547  21537498.238    21537505.9074
 00  7  5  1  2  0.0000000  0  7 11 20 21 05 29 25 30
  24112579.382    -3662991.169 7  -2841140.17845  24112591.329    24112602.4794
  24454444.590    -2097491.061 7  -1616909.11045  24454447.088    24454458.2244
  21682912.826   -17790089.291 8 -13845816.61946  21682915.363    21682925.2214
  23889641.325    -6031568.171 8  -4681234.54845  23889639.979    23889652.2964
  20906380.470   -20974486.874 9 -16321660.18747  20906381.907    20906390.6084
  20859730.835   -23018423.385 9 -17921554.25448  20859733.859    20859741.9324
  21542777.402   -16428335.442 9 -12787199.03847  21542779.393    21542788.1054
 00  7  5  1  2 30.0000000  0  7 11 20 21 05 29 25 30
  24120153.799    -3623199.237 7  -2810133.46545  24120162.496    24120175.2264
  24435140.100    -2198952.742 8  -1695970.08245  24435140.763    24435150.4974
  21700226.449   -17699125.161 8 -13774935.53247  21700225.844    21700236.0624
  23906013.842    -5945513.344 8  -4614178.90645  23906015.656    23906027.4824
  20912730.658   -20941117.492 9 -16295658.06847  20912731.844    20912740.6204
  20854293.531   -23046996.352 9 -17943818.88348  20854296.837    20854304.4054
  21548168.929   -16399987.833 9 -12765109.99047  21548173.956    21548182.1464
 00  7  5  1  3  0.0000000  0  7 11 20 21 05 29 25 30
  24127802.591    -3583028.723 7  -2778831.74945  24127807.542    24127819.9824
  24415865.784    -2300214.854 7  -1774875.57245  24415870.283    24415882.5204
  21717606.918   -17607764.597 8 -13703745.54046  21717611.215    21717620.2844
  23922450.758    -5859131.043 8  -4546868.09945  23922454.081    23922466.2254
  20919132.202   -20907469.719 9 -16269439.02647  20919135.008    20919143.0974
  20848916.388   -23075250.831 9 -17965835.34148  20848920.524    20848927.9824
  21553678.717   -16371050.028 9 -12742561.05647  21553681.147    21553688.8244
 00  7  5  1  3 30.0000000  0  7 11 20 21 05 29 25 30
  24135518.757    -3542481.781 7  -2747236.77345  24135521.669    24135534.7924
  24396629.260    -2401274.763 7  -1853623.46945  24396638.354    24396651.8614
  21735071.258   -17516010.707 8 -13632249.06346  21735071.264    21735080.4604
  23938954.039    -5772423.798 8  -4479304.08245  23938953.945    23938965.8454
  20925587.816   -20873543.117 9 -16243002.71647  20925591.311    20925599.2994
  20843598.852   -23103187.013 9 -17987603.76948  20843603.854    20843612.0364
  21559297.814   -16341523.336 9 -12719553.24747  21559299.591    21559307.3384
 00  7  5  1  4  0.0000000  0  7 11 20 21 05 29 25 30
  24143316.706    -3501560.736 8  -2715350.25745  24143310.241    24143321.7194
  24377446.750    -2502129.956 8  -1932211.86945  24377447.299    24377458.8444
  21752603.769   -17423865.756 8 -13560447.84646  21752605.850    21752615.7304
  23955513.713    -5685394.285 8  -4411488.96145  23955515.244    23955527.0844
  20932096.706   -20839337.337 9 -16216348.85447  20932100.380    20932108.3274
  20838346.101   -23130805.326 9 -18009124.49948  20838348.529    20838356.4734
  21565028.267   -16311408.896 9 -12696087.45647  21565030.000    21565038.5414
 00  7  5  1  4 30.0000000  0  7 11 20 21 05 29 25 30
  24151165.964    -3460268.038 7  -2683174.10645  24151167.618    24151179.5864
  24358291.477    -2602777.693 7  -2010638.64545  24358294.653    24358306.4144
  21770211.118   -17331331.920 8 -13488343.60546  21770214.453    21770224.3094
  23972138.614    -5598045.024 8  -4343424.67645  23972136.394    23972149.0454
  20938659.920   -20804851.821 9 -16189477.02647  20938662.995    20938670.9674
  20833147.934   -23158106.231 9 -18030397.90248  20833153.257    20833161.2094
  21570868.801   -16280707.813 9 -12672164.52647  21570872.339    21570880.9544
 00  7  5  1  5  0.0000000  0  7 11 20 21 05 29 25 30
  24159094.834    -3418606.095 7  -2650710.28445  24159096.266    24159107.9334
  24339177.032    -2703215.441 7  -2088901.78145  24339181.043    24339195.0194
  21787892.000   -17238411.809 8 -13415938.37546  21787895.628    21787906.9504
  23988809.885    -5510378.429 8  -4275113.13145  23988818.804    23988831.5544
  20945276.173   -20770086.547 9 -16162387.19747  20945278.473    20945286.6714
  20828015.360   -23185090.544 9 -18051424.60948  20828018.331    20828026.0284
  21576823.069   -16249421.204 9 -12647785.35547  21576826.085    21576834.7424
 00  7  5  1  5 30.0000000  0  7 11 20 21 05 29 25 30
  24167086.885    -3376576.866 7  -2617960.26345  24167092.870    24167106.2444
  24320103.184    -2803440.404 7  -2166999.11745  24320108.789    24320121.8114
  21805645.284   -17145108.155 8 -13343234.30846  21805651.298    21805662.0074
  24005554.809    -5422397.192 7  -4206556.36745  24005560.969    24005573.5784
  20951944.660   -20735040.797 9 -16135078.82147  20951947.489    20951955.4434
  20822940.375   -23211758.320 9 -18072204.66648  20822943.837    20822951.3784
  21582889.142   -16217550.270 9 -12622950.86547  21582890.754    21582899.4354
 00  7  5  1  6  0.0000000  0  7 11 20 21 05 29 25 30
  24175155.024    -3334182.603 7  -2584925.78945  24175160.698    24175171.4954
  24301080.319    -2903449.790 7  -2244928.53645  24301078.071    24301089.8064
  21823478.314   -17051423.312 8 -13270233.18446  21823478.828    21823490.0924
  24022368.196    -5334103.814 7  -4137756.39645  24022362.917    24022375.5744
  20958667.611   -20699714.332 9 -16107551.70147  20958669.725    20958677.7684
  20817926.548   -23238109.855 9 -18092738.30448  20817929.300    20817936.7274
  21589065.193   -16185096.191 9 -12597661.96747  21589066.584    21589075.0544
 00  7  5  1  6 30.0000000  0  7 11 20 21 05 29 25 30
  24183292.866    -3291425.574 8  -2551608.63245  24183298.096    24183309.9294
  24282084.454    -3003241.037 7  -2322687.93045  24282088.464    24282100.7974
  21841375.908   -16957359.719 8 -13196936.95746  21841378.917    21841389.4534
  24039206.844    -5245500.843 7  -4068715.17845  24039223.536    24039235.6694
  20965443.107   -20664106.705 9 -16079805.49247  20965445.492    20965453.6564
  20812971.695   -23264145.098 9 -18113025.48448  20812974.872    20812982.2444
  21595350.138   -16152059.961 9 -12571919.45647  21595353.699    21595361.9384
 00  7  5  1  7  0.0000000  0  7 11 20 21 05 29 25 30
  24191498.985    -3248308.425 7  -2518010.87945  24191503.327    24191514.7914
  24263135.030    -3102811.345 7  -2400275.15845  24263140.583    24263153.1024
  21859348.448   -16862920.072 8 -13123347.67346  21859350.495    21859361.1294
  24056144.060    -5156590.733 7  -3999434.67745  24056142.510    24056154.7454
  20972271.850   -20628217.443 9 -16051839.83147  20972274.962    20972283.0654
  20808077.741   -23289865.223 9 -18133067.10948  20808080.424    20808088.1824
  21601749.862   -16118443.072 9 -12545724.49747  21601750.882    21601758.2074
 00  7  5  1  7 30.0000000  0  7 11 20 21 05 29 25 30
  24199775.471    -3204833.408 7  -2484134.27945  24199776.156    24199787.9884
  24244228.394    -3202158.392 7  -2477688.41345  24244236.144    24244248.8674
  21877387.933   -16768106.739 8 -13049467.23546  21877392.567    21877403.2434
  24073120.262    -5067376.120 7  -3929916.85045  24073119.247    24073132.1694
  20979153.482   -20592046.343 9 -16023654.55747  20979158.043    20979166.3874
  20803241.960   -23315270.638 9 -18152863.50548  20803245.949    20803253.8884
  21608253.086   -16084246.731 9 -12519078.00647  21608257.751    21608265.9014
 00  7  5  1  8  0.0000000  0  7 11 20 21 05 29 25 30
  24208112.867    -3161003.410 7  -2449981.07845  24208115.549    24208129.2084
  24225371.459    -3301279.319 7  -2554925.44045  24225373.703    24225386.4954
  21895506.236   -16672922.621 8 -12975297.84146  21895506.180    21895516.2414
  24090147.107    -4977859.441 8  -3860163.66145  24090154.281    24090167.1224
  20986092.613   -20555592.979 9 -15995249.34047  20986094.768    20986103.0484
  20798466.754   -23340361.426 9 -18172414.72748  20798470.906    20798479.3054
  21614873.632   -16049472.136 9 -12491980.92247  21614875.619    21614882.9354
 00  7  5  1  8 30.0000000  0  8 11 20 22 21 05 29 25 30
  24216521.003    -3116820.356 7  -2415552.78945  24216522.991    24216535.3184
  24206545.855    -3400171.640 7  -2631984.35145  24206554.791    24206567.2314
  24521700.722    -4729528.11817  -3655115.23255  24521705.104    24521718.9544
  21913687.073   -16577370.280 8 -12900841.54846  21913688.835    21913698.5874
  24107241.894    -4888043.565 8  -3790177.32545  24107245.477    24107258.3514
  20993082.929   -20518856.710 9 -15966623.68647  20993085.368    20993094.0944
  20793754.394   -23365138.202 9 -18191721.28248  20793755.977    20793764.2334
  21621600.709   -16014120.511 9 -12464434.21747  21621602.906    21621610.9254
 00  7  5  1  9  0.0000000  0  8 11 20 22 21 05 29 25 30
  24224993.788    -3072286.657 7  -2380851.22345  24224998.935    24225010.4094
  24187777.547    -3498832.445 8  -2708862.82345  24187781.005    24187792.8024
  24498667.657    -4850575.604 7  -3749437.74345  24498670.557    24498684.3644
  21931940.856   -16481451.912 8 -12826100.03546  21931941.483    21931952.1564
  24124399.131    -4797930.878 8  -3719959.71145  24124394.286    24124406.6704
  21000126.289   -20481837.487 9 -15937777.54747  21000129.709    21000138.4634
  20789099.091   -23389601.341 9 -18210783.43448  20789100.985    20789108.9924
  21628437.960   -15978193.128 9 -12436438.86747  21628439.302    21628448.0204
 00  7  5  1  9 30.0000000  0  8 11 20 22 21 05 29 25 30
  24233533.217    -3027404.910 7  -2345878.46445  24233539.489    24233550.5854
  24169047.425    -3597259.048 7  -2785558.80345  24169049.876    24169061.7264
  24475648.171    -4971608.263 7  -3843748.66145  24475638.774    24475652.3924
  21950258.681   -16385170.084 8 -12751075.29746  21950263.313    21950274.1694
  24141592.833    -4707523.706 8  -3649512.63245  24141598.232    24141610.3494
  21007225.260   -20444534.920 9 -15908710.62547  21007228.402    21007236.9664
  20784500.451   -23413751.505 9 -18229601.71448  20784505.224    20784513.0514
  21635380.206   -15941691.640 9 -12407996.15947  21635384.947    21635393.6914
 00  7  5  1 10  0.0000000  0  8 11 20 22 21 05 29 25 30
  24242145.734    -2982177.513 7  -2310636.39345  24242144.908    24242157.1424
  24150363.550    -3695448.852 7  -2862070.25745  24150365.639    24150377.5354
  24452617.303    -5092623.049 8  -3938045.66645  24452610.140    24452622.7354
  21968646.990   -16288527.672 8 -12675769.58646  21968653.542    21968663.7984
  24158849.494    -4616824.584 8  -3578838.02545  24158857.026    24158870.3034
  21014375.583   -20406948.617 9 -15879422.60647  21014380.409    21014389.2674
  20779965.331   -23437589.087 9 -18248176.42748  20779968.922    20779976.9524
  21642437.877   -15904617.591 9 -12379107.30747  21642440.066    21642448.2664
 00  7  5  1 10 30.0000000  0  8 11 20 22 21 05 29 25 30
  24250818.418    -2936606.764 8  -2275126.72045  24250817.865    24250829.5224
  24131724.487    -3793399.079 8  -2938394.97745  24131726.764    24131738.6664
  24429581.740    -5213617.323 8  -4032326.69745  24429586.826    24429598.9124
  21987108.949   -16191527.181 8 -12600184.83946  21987112.387    21987122.7164
  24176172.730    -4525836.349 8  -3507938.16045  24176171.419    24176184.7694
  21021585.620   -20369078.210 9 -15849913.20847  21021587.439    21021595.7374
  20775488.527   -23461114.462 9 -18266507.85248  20775492.443    20775500.2784
  21649599.446   -15866972.030 9 -12349773.11447  21649603.935    21649611.9274
 00  7  5  1 11  0.0000000  0  8 11 20 22 21 05 29 25 30
  24259555.489    -2890695.211 8  -2239351.53545  24259554.556    24259566.8174
  24113123.712    -3891107.161 7  -3014531.01045  24113133.615    24113144.5494
  24406559.863    -5334588.546 7  -4126589.77245  24406566.586    24406579.0224
  22005636.161   -16094171.501 8 -12524323.34846  22005638.823    22005648.7534
  24193534.506    -4434561.640 8  -3436815.04245  24193541.032    24193553.9314
  21028844.745   -20330923.367 9 -15820182.16647  21028847.945    21028856.2104
  20771071.229   -23484328.030 9 -18284596.31748  20771074.980    20771082.8614
  21656872.401   -15828756.338 9 -12319994.66547  21656876.297    21656884.5644
 00  7  5  1 11 30.0000000  0  8 11 20 22 21 05 29 25 30
  24268347.488    -2844445.429 7  -2203312.82945  24268354.947    24268368.6134
  24094582.091    -3988570.561 8  -3090476.33945  24094586.027    24094597.7844
  24383546.679    -5455534.744 7  -4220833.31845  24383550.493    24383562.4764
  22024231.547   -15996463.116 8 -12448187.01846  22024232.074    22024243.1144
  24210959.909    -4343003.022 8  -3365470.72945  24210963.735    24210976.6954
  21036160.262   -20292483.624 9 -15790229.12647  21036163.060    21036170.9154
  20766715.225   -23507230.335 9 -18302442.23248  20766716.589    20766724.6154
  21664250.936   -15789971.813 9 -12289772.98247  21664256.471    21664264.5844
 00  7  5  1 12  0.0000000  0  8 11 20 22 21 05 29 25 30
  24277215.799    -2797859.675 7  -2167012.33145  24277220.107    24277231.1674
  24076088.578    -4085786.213 8  -3166228.63445  24076087.849    24076098.1264
  24360540.254    -5576453.035 7  -4315055.18045  24360540.210    24360552.4964
  22042888.998   -15898404.708 8 -12371777.94546  22042892.184    22042902.6374
  24228439.662    -4251163.112 8  -3293907.20345  24228440.444    24228452.9194
  21043529.249   -20253758.955 9 -15760054.06747  21043532.128    21043540.0284
  20762413.921   -23529822.014 9 -18320046.10948  20762417.755    20762425.6294
  21671743.485   -15750620.185 9 -12259109.39047  21671744.986    21671753.5024
 00  7  5  1 12 30.0000000  0  8 11 20 22 21 05 29 25 30
  24286146.222    -2750940.706 8  -2130452.13245  24286149.134    24286160.6534
  24057629.518    -4182751.612 7  -3241785.93345  24057635.128    24057646.4234
  24337532.336    -5697340.543 7  -4409252.98845  24337534.582    24337548.8734
  22061618.455   -15799998.761 8 -12295098.05446  22061618.209    22061628.8774
  24245968.048    -4159044.502 8  -3222126.53045  24245970.292    24245982.5734
  21050952.012   -20214748.642 9 -15729656.43147  21050955.574    21050963.7124
  20758172.441   -23552103.675 9 -18337408.40548  20758177.601    20758185.4384
  21679336.783   -15710702.768 9 -12228004.92247  21679341.067    21679349.2974
 00  7  5  1 13  0.0000000  0  8 11 20 22 21 05 29 25 30
  24295140.546    -2703690.892 7  -2093634.12745  24295140.565    24295151.4994
  24039228.659    -4279464.224 8  -3317146.20945  24039230.284    24039242.5924
  24314532.903    -5818194.406 7  -4503424.59945  24314537.594    24314550.8554
  22080405.817   -15701248.115 8 -12218149.57646  22080409.475    22080419.9464
  24263551.567    -4066649.498 8  -3150130.49045  24263552.416    24263564.4394
  21058429.253   -20175452.752 9 -15699036.27347  21058432.776    21058441.2094
  20753995.318   -23574075.539 9 -18354529.30548  20753996.890    20754004.2154
  21687044.246   -15670221.072 9 -12196460.76347  21687045.047    21687053.1964
 00  7  5  1 13 30.0000000  0  8 11 20 22 21 05 29 25 30
  24304193.708    -2656112.635 7  -2056560.19845  24304193.374    24304206.5134
  24020875.696    -4375921.388 8  -3392307.48745  24020876.244    24020887.0894
  24291537.064    -5939012.459 7  -4597568.33845  24291546.798    24291559.2634
  22099263.034   -15602155.117 8 -12140934.32346  22099266.246    22099276.6794
  24281188.800    -3973980.796 7  -3077921.15545  24281186.550    24281199.3444
  21065962.284   -20135870.620 9 -15668193.07647  21065965.431    21065973.8384
  20749869.811   -23595738.205 9 -18371409.27348  20749874.180    20749882.0044
  21694852.858   -15629176.773 9 -12164478.20947  21694854.979    21694862.6974
 00  7  5  1 14  0.0000000  0  8 11 20 22 21 05 29 25 30
  24313306.947    -2608208.379 7  -2019232.30045  24313308.822    24313322.0014
  24002568.497    -4472120.245 8  -3467267.49145  24002569.823    24002579.1284
  24268568.706    -6059792.331 7  -4691682.33645  24268562.142    24268575.1364
  22118185.500   -15502722.666 8 -12063454.56146  22118188.263    22118198.4104
  24298867.142    -3881040.968 7  -3005500.59945  24298872.238    24298884.2114
  21073547.674   -20096002.017 9 -15637126.64947  21073552.083    21073560.4484
  20745808.002   -23617092.069 9 -18388048.62048  20745810.753    20745818.2324
  21702769.087   -15587571.268 9 -12132058.34447  21702772.118    21702780.3584
 00  7  5  1 14 30.0000000  0  8 11 20 22 21 05 29 25 30
  24322480.935    -2559980.794 7  -1981652.42745  24322487.821    24322499.8634
  23984308.117    -4568058.163 8  -3542024.18945  23984313.349    23984323.7734
  24245584.219    -6180531.207 7  -4785764.34945  24245587.327    24245598.6734
  22137167.917   -15402953.540 8 -11985712.46146  22137173.522    22137183.3224
  24316604.355    -3787832.555 7  -2932870.73345  24316609.764    24316622.1034
  21081190.190   -20055846.665 9 -15605836.77947  21081193.694    21081201.3054
  20741802.224   -23638137.642 9 -18404447.73648  20741805.770    20741813.3654
  21710795.110   -15545406.163 9 -12099202.43747  21710795.726    21710804.2584
 00  7  5  1 15  0.0000000  0  8 11 20 22 21 05 29 25 30
  24331719.013    -2511432.427 7  -1943822.57945  24331724.679    24331737.0024
  23966100.166    -4663732.423 8  -3616575.42545  23966106.655    23966117.4204
  24222605.796    -6301226.124 7  -4879812.18945  24222619.635    24222631.9324
  22156220.570   -15302850.159 8 -11907709.86846  22156223.195    22156233.3234
  24334392.634    -3694358.043 7  -2860033.48345  24334396.534    24334409.4374
  21088886.444   -20015404.229 9 -15574323.20647  21088889.679    21088897.6844
  20737854.647   -23658875.642 9 -18420607.18848  20737859.616    20737867.1474
  21718921.895   -15502682.855 9 -12065911.57147  21718925.791    21718934.8494
 00  7  5  1 15 30.0000000  0  8 11 20 22 21 05 29 25 30
  24341024.503    -2462565.748 7  -1905744.71845  24341025.102    24341035.6904
  23947955.060    -4759140.344 8  -3690919.16945  23947950.888    23947961.6404
  24199659.880    -6421874.372 8  -4973823.61045  24199661.316    24199674.1954
  22175333.290   -15202415.667 8 -11829449.29646  22175335.169    22175346.2674
  24352231.739    -3600620.221 8  -2786991.10145  24352235.570    24352247.6514
  21096638.135   -19974674.345 9 -15542585.64847  21096640.626    21096648.6054
  20733969.334   -23679306.178 9 -18436527.05148  20733971.773    20733979.5494
  21727160.922   -15459403.147 9 -12032187.13147  21727161.489    21727170.1674
 00  7  5  1 16  0.0000000  0  8 11 20 22 21 05 29 25 30
  24350378.832    -2413383.402 7  -1867420.84345  24350384.165    24350396.6334
  23929842.073    -4854279.315 7  -3765053.35545  23929844.788    23929856.5244
  24176716.051    -6542473.639 8  -5067796.89145  24176711.894    24176723.1674
  22194503.916   -15101652.525 8 -11750932.65446  22194509.224    22194519.9724
  24370122.221    -3506621.572 8  -2713745.42445  24370124.022    24370133.8034
  21104442.273   -19933656.839 9 -15510623.96447  21104445.722    21104454.0694
  20730137.808   -23699429.924 9 -18452207.86748  20730142.166    20730150.1734
  21735501.270   -15415568.704 9 -11998030.43847  21735503.137    21735511.9134
 00  7  5  1 16 30.0000000  0  8 11 20 22 21 05 29 25 30
  24359793.628    -2363887.888 7  -1828852.95045  24359802.625    24359815.3864
  23911795.263    -4949146.648 8  -3838975.85745  23911794.459    23911805.7894
  24153764.878    -6663021.668 8  -5161730.24845  24153772.378    24153784.3984
  22213744.541   -15000563.402 8 -11672161.96746  22213744.978    22213756.5554
  24388064.536    -3412364.768 8  -2640298.60645  24388060.350    24388070.4764
  21112302.304   -19892351.305 9 -15478437.84247  21112306.139    21112314.2344
  20726367.445   -23719247.676 9 -18467650.23848  20726371.013    20726378.6604
  21743947.955   -15371181.031 9 -11963442.65747  21743949.870    21743958.2734
 00  7  5  1 17  0.0000000  0  8 11 20 22 21 05 29 25 30
  24369273.297    -2314081.732 7  -1790043.01345  24369280.287    24369292.4244
  23893788.591    -5043739.461 8  -3912684.49545  23893793.079    23893803.1124
  24130841.912    -6783515.379 7  -5255621.24745  24130841.561    24130854.6644
  22233045.183   -14899151.037 8 -11593139.43046  22233043.529    22233054.8874
  24406044.912    -3317852.424 8  -2566652.68945  24406044.584    24406055.9104
  21120217.770   -19850757.481 9 -15446027.07747  21120220.964    21120229.1274
  20722654.250   -23738759.607 9 -18482854.30848  20722657.915    20722665.7794
  21752496.443   -15326241.941 9 -11928425.19847  21752501.603    21752510.1544
 00  7  5  1 17 30.0000000  0  8 11 20 22 21 05 29 25 30
  24378815.625    -2263967.653 7  -1750993.12045  24378817.053    24378829.3894
  23875839.587    -5138055.064 8  -3986177.14345  23875845.679    23875856.6244
  24107920.420    -6903951.991 7  -5349467.75545  24107922.380    24107934.9904
  22252400.339   -14797418.379 8 -11513867.31846  22252403.714    22252414.1464
  24424074.599    -3223086.914 7  -2492809.48445  24424077.225    24424089.3184
  21128187.633   -19808875.214 9 -15413391.56047  21128190.868    21128199.1194
  20719002.080   -23757966.225 9 -18497820.48048  20719003.624    20719010.9334
  21761153.291   -15280752.989 9 -11892979.27847  21761157.798    21761166.1874
 00  7  5  1 18  0.0000000  0  8 11 20 22 21 05 29 25 30
  24388408.315    -2213548.090 7  -1711705.23545  24388411.212    24388424.0684
  23857951.953    -5232090.799 8  -4059451.66745  23857950.756    23857962.0134
  24085017.960    -7024328.719 8  -5443267.61645  24085016.774    24085030.2284
  22271821.913   -14695367.932 8 -11434347.55446  22271822.877    22271834.0604
  24442159.436    -3128070.825 8  -2418770.99045  24442159.148    24442171.5344
  21136213.171   -19766704.008 9 -15380530.88747  21136215.977    21136224.0354
  20715402.448   -23776868.089 9 -18512549.17848  20715406.346    20715413.7134
  21769914.155   -15234715.746 9 -11857106.10547  21769918.189    21769926.5764
 00  7  5  1 18 30.0000000  0  8 11 20 22 21 05 29 25 30
  24398060.046    -2162825.769 7  -1672181.40145  24398063.955    24398075.8534
  23840107.269    -5325844.017 8  -4132506.02945  23840109.718    23840121.4384
  24062119.726    -7144643.319 8  -5537019.06645  24062121.448    24062133.5914
  22291297.668   -14593002.284 8 -11354582.15146  22291302.217    22291312.5574
  24460280.874    -3032806.757 7  -2344539.29845  24460287.376    24460298.4904
  21144293.518   -19724243.640 9 -15347444.89047  21144295.682    21144303.7694
  20711863.606   -23795466.148 9 -18527041.14148  20711867.052    20711874.7374
  21778779.521   -15188132.170 9 -11820807.23447  21778782.576    21778791.0494
 00  7  5  1 19  0.0000000  0  8 11 20 22 21 05 29 25 30
  24407770.617    -2111803.270 8  -1632423.66845  24407773.337    24407785.3584
  23822320.759    -5419312.175 8  -4205338.26745  23822323.829    23822334.7474
  24039239.218    -7264893.380 8  -5630720.24745  24039237.833    24039250.7904
  22310840.254   -14490324.595 8 -11274573.63246  22310840.907    22310852.5194
  24478458.718    -2937297.383 7  -2270116.49645  24478462.715    24478473.7074
  21152426.868   -19681493.901 9 -15314133.41047  21152430.541    21152438.8074
  20708383.358   -23813760.984 9 -18541296.83348  20708385.570    20708393.2274
  21787748.152   -15141003.947 9 -11784083.97147  21787751.226    21787759.2734
 00  7  5  1 19 30.0000000  0  8 11 20 22 21 05 29 25 30
  24417535.934    -2060483.131 8  -1592433.99645  24417539.993    24417550.5424
  23804585.701    -5512492.162 8  -4277945.91345  23804592.628    23804603.8914
  24016361.554    -7385075.964 8  -5724368.82345  24016368.424    24016380.7694
  22330432.960   -14387337.624 8 -11194324.10546  22330439.192    22330449.5344
  24496680.916    -2841545.135 7  -2195504.35645  24496683.292    24496694.7174
  21160616.665   -19638454.601 9 -15280596.30047  21160620.554    21160628.9964
  20704958.809   -23831752.563 9 -18555316.21848  20704961.994    20704969.7094
  21796822.397   -15093332.976 9 -11746937.76147  21796822.596    21796830.6264
 00  7  5  1 20  0.0000000  0  8 11 20 22 21 05 29 25 30
  24427359.818    -2008868.049 7  -1552214.51945  24427360.746    24427372.8144
  23786921.097    -5605381.555 8  -4350327.15045  23786916.245    23786925.3734
  23993508.696    -7505188.012 8  -5817962.45045  23993512.009    23993524.0234
  22350095.782   -14284043.830 8 -11113835.51046  22350095.887    22350106.3694
  24514944.301    -2745552.702 7  -2120705.12045  24514950.594    24514962.2264
  21168862.078   -19595125.335 9 -15246833.24647  21168865.847    21168874.5724
  20701591.977   -23849441.740 9 -18569099.96648  20701595.697    20701603.4084
  21805994.369   -15045120.674 9 -11709369.74247  21805997.345    21806005.3204
 00  7  5  1 20 30.0000000  0  8 11 20 22 21 05 29 25 30
  24437232.110    -1956960.745 7  -1511767.35345  24437238.445    24437251.5074
  23769291.545    -5697977.554 8  -4422479.76345  23769294.994    23769307.9204
  23970662.599    -7625226.945 8  -5911499.09945  23970668.550    23970680.6964
  22369806.776   -14180446.276 8 -11033110.20346  22369809.796    22369820.2684
  24533258.876    -2649322.743 7  -2045720.77145  24533260.639    24533273.8964
  21177164.918   -19551506.078 9 -15212844.23047  21177166.823    21177175.2084
  20698284.828   -23866828.950 9 -18582648.41948  20698286.936    20698294.5284
  21815270.535   -14996368.818 9 -11671381.29547  21815274.649    21815283.0554
 00  7  5  1 21  0.0000000  0  8 11 20 22 21 05 29 25 30
  24447167.775    -1904763.613 7  -1471094.33245  24447172.606    24447183.9364
  23751723.632    -5790277.802 8  -4494401.83045  23751729.628    23751742.4514
  23947837.353    -7745190.594 8  -6004977.10645  23947840.321    23947851.6714
  22389575.673   -14076547.640 8 -10952150.29546  22389580.447    22389591.7404
  24551619.204    -2552857.678 7  -1970553.28245  24551618.550    24551630.4404
  21185519.228   -19507596.328 9 -15178628.85347  21185522.161    21185530.7284
  20695032.402   -23883914.962 9 -18595962.16748  20695035.914    20695043.2224
  21824648.145   -14947079.441 9 -11632974.00747  21824653.792    21824662.2184
 00  7  5  1 21 30.0000000  0  8 11 20 22 21 05 29 25 30
  24457156.367    -1852279.325 7  -1430197.55945  24457158.781    24457171.1284
  23734222.874    -5882279.166 8  -4566091.05545  23734224.968    23734235.1744
  23925021.661    -7865076.357 7  -6098394.40145  23925025.364    23925039.1864
  22409411.706   -13972350.837 8 -10870958.06046  22409409.165    22409420.2064
  24570022.107    -2456160.163 8  -1895204.59745  24570020.203    24570029.7224
  21193931.361   -19463395.832 9 -15144186.91847  21193933.594    21193941.6484
  20691838.099   -23900700.109 9 -18609041.48148  20691841.543    20691849.0844
  21834134.695   -14897254.260 9 -11594149.20047  21834135.795    21834144.0504
 00  7  5  1 22  0.0000000  0  8 11 20 22 21 05 29 25 30
  24467195.376    -1799510.796 7  -1389079.31345  24467199.684    24467213.4684
  23716772.214    -5973979.026 8  -4637545.33145  23716773.402    23716785.3284
  23902234.172    -7984881.207 8  -6191748.63745  23902228.612    23902241.1174
  22429287.511   -13867858.407 8 -10789535.46346  22429293.034    22429304.0554
  24588463.272    -2359232.906 8  -1819676.94145  24588463.844    24588475.7774
  21202394.683   -19418904.533 9 -15109518.38647  21202399.565    21202408.2794
  20688701.801   -23917185.122 9 -18621886.92048  20688704.830    20688712.0664
  21843713.425   -14846895.323 9 -11554908.48447  21843718.184    21843727.0704
 00  7  5  1 22 30.0000000  0  8 11 20 22 21 05 29 25 30
  24477289.713    -1746460.562 7  -1347741.55045  24477294.632    24477307.9354
  23699375.426    -6065374.826 8  -4708762.63745  23699381.451    23699393.7654
  23879443.733    -8104602.297 8  -6285037.66245  23879447.370    23879458.6864
  22449233.139   -13763073.239 8 -10707884.75846  22449232.802    22449244.0054
  24606948.945    -2262078.265 8  -1743972.09945  24606951.908    24606963.1604
  21210919.260   -19374122.058 9 -15074622.95747  21210921.826    21210930.0874
  20685621.764   -23933370.654 9 -18634499.00548  20685624.732    20685632.1604
  21853395.467   -14796004.508 9 -11515253.32647  21853402.184    21853411.1914
 00  7  5  1 23  0.0000000  0  7 11 20 22 21 29 25 30
  24487445.909    -1693131.167 8  -1306186.23145  24487444.776    24487456.7664
  23682049.429    -6156464.028 8  -4779741.05845  23682047.743    23682058.8104
  23856682.419    -8224236.950 8  -6378259.28845  23856680.128    23856692.8884
  22469220.219   -13657998.298 8 -10626008.26146  22469228.152    22469239.1014
  21219494.099   -19329048.317 9 -15039500.58147  21219498.840    21219507.2374
  20682597.872   -23949256.975 9 -18646877.93748  20682601.735    20682609.1134
  21863182.717   -14744583.251 8 -11475184.82747  21863187.149    21863196.0194
 00  7  5  1 23 30.0000000  0  7 11 20 22 21 29 25 30
  24497635.641    -1639525.370 7  -1264415.57045  24497644.385    24497658.1064
  23664770.448    -6247243.471 8  -4850478.15445  23664773.810    23664783.7474
  23833928.101    -8343782.962 8  -6471411.87845  23833931.610    23833943.1254
  22489274.968   -13552636.274 8 -10543908.04746  22489278.104    22489288.9634
  21228129.199   -19283682.891 9 -15004150.91847  21228131.600    21228140.0274
  20679631.581   -23964844.759 9 -18659024.23848  20679635.249    20679642.8654
  21873071.308   -14692633.896 9 -11434704.82547  21873073.218    21873081.3604
 00  7  5  1 24  0.0000000  0  6 20 22 21 29 25 30
  23647556.609    -6337710.842 8  -4920972.04345  23647557.087    23647567.9704
  23811199.584    -8463237.656 8  -6564493.31545  23811199.554    23811211.1754
  22509378.924   -13446990.132 8 -10461586.45646  22509382.066    22509392.5604
  21236815.990   -19238025.688 9 -14968573.89847  21236820.072    21236828.4584
  20676722.687   -23980134.424 9 -18670938.24248  20676725.603    20676733.4114
  21883056.207   -14640158.324 9 -11393814.76847  21883059.220    21883067.5174
 00  7  5  1 24 30.0000000  0  6 20 22 21 29 25 30
  23630395.910    -6427863.418 8  -4991220.62645  23630401.680    23630412.7594
  23788485.247    -8582597.965 8  -6657501.17245  23788485.915    23788498.2334
  22529539.942   -13341062.639 8 -10379045.62246  22529539.436    22529550.2744
  21245561.992   -19192076.619 9 -14932769.44547  21245563.498    21245572.1774
  20673870.110   -23995126.853 9 -18682620.63148  20673872.638    20673880.5584
  21893142.369   -14587158.026 8 -11352515.85247  21893144.990    21893153.0834
 00  7  5  1 25  0.0000000  0  6 20 22 21 29 25 30
  23613304.808    -6517698.552 8  -5061221.89546  23613306.348    23613318.6384
  23765794.516    -8701861.003 8  -6750433.22945  23765790.766    23765802.5394
  22549750.261   -13234856.548 8 -10296287.70446  22549749.789    22549761.0114
  21254359.967   -19145835.115 9 -14896737.12447  21254363.083    21254371.0084
  20671072.656   -24009822.523 9 -18694071.78148  20671076.408    20671083.9964
  21903326.873   -14533635.473 8 -11310809.97347  21903329.551    21903338.5994
 00  7  5  1 25 30.0000000  0  6 20 22 21 29 25 30
  23596266.557    -6607213.570 8  -5130973.69745  23596272.514    23596283.6844
  23743112.033    -8821024.239 8  -6843287.53845  23743115.635    23743125.9924
  22570010.777   -13128374.605 8 -10213314.83846  22570012.251    22570023.3084
  21263216.017   -19099301.256 9 -14860476.99747  21263218.294    21263226.4514
  20668332.264   -24024221.902 9 -18705292.05848  20668336.293    20668343.9464
  21913612.008   -14479592.146 8 -11268698.31247  21913613.888    21913622.4844
 00  7  5  1 26  0.0000000  0  6 20 22 21 29 25 30
  23579296.548    -6696405.555 8  -5200473.86645  23579299.278    23579310.2894
  23720457.203    -8940085.520 8  -6936062.42445  23720458.995    23720469.7934
  22590319.341   -13021619.720 8 -10130129.33346  22590326.637    22590338.5024
  21272126.094   -19052474.866 9 -14823988.91647  21272129.070    21272137.5254
  20665647.631   -24038325.480 9 -18716281.83748  20665652.180    20665659.9034
  21923991.294   -14425030.406 8 -11226182.68347  21923996.414    21924005.0684
 00  7  5  1 26 30.0000000  0  6 20 22 21 29 25 30
  23562383.981    -6785272.072 8  -5269720.38846  23562389.165    23562400.4984
  23697825.261    -9059041.993 8  -7028755.61045  23697820.983    23697832.6874
  22610697.489   -12914594.989 8 -10046733.51546  22610693.904    22610704.4774
  21281091.358   -19005355.747 9 -14787272.74647  21281095.527    21281103.9184
  20663021.641   -24052134.349 9 -18727041.97748  20663024.348    20663031.9974
  21934477.720   -14369952.001 9 -11183264.47747  21934478.310    21934485.6314
 00  7  5  1 27  0.0000000  0  6 20 22 21 29 25 30
  23545537.265    -6873810.355 8  -5338711.15345  23545539.482    23545551.0454
  23675202.019    -9177890.587 8  -7121364.74145  23675205.177    23675216.8984
  22631104.345   -12807303.276 8  -9963129.64146  22631111.514    22631121.4564
  21290116.046   -18957943.643 9 -14750328.27547  21290118.206    21290126.0844
  20660448.559   -24065648.802 9 -18737572.70848  20660452.656    20660460.4954
  21945053.889   -14314359.130 8 -11139945.37247  21945056.364    21945065.4254
 00  7  5  1 27 30.0000000  0  6 20 22 21 29 25 30
  23528755.029    -6962017.612 8  -5407444.00246  23528755.880    23528766.6804
  23652606.973    -9296628.481 8  -7213887.62545  23652609.959    23652620.1184
  22651576.042   -12699746.543 8  -9879319.25946  22651578.693    22651588.8164
  21299194.070   -18910238.372 9 -14713155.35047  21299196.385    21299203.9844
  20657935.114   -24078869.535 9 -18747874.55948  20657936.898    20657944.4724
  21955728.836   -14258254.006 8 -11096227.11847  21955733.206    21955740.9334
 00  7  5  1 28  0.0000000  0  6 20 22 21 29 25 30
  23512028.859    -7049891.182 8  -5475916.84046  23512033.226    23512044.0974
  23630030.573    -9415253.215 8  -7306322.33345  23630036.296    23630047.2924
  22672094.692   -12591928.055 8  -9795304.95646  22672095.616    22672107.0894
  21308325.498   -18862239.862 9 -14675753.93147  21308330.130    21308337.7994
  20655473.295   -24091796.946 9 -18757947.85448  20655477.101    20655484.2954
  21966502.718   -14201638.162 8 -11052110.89547  21966506.549    21966515.6474
 00  7  5  1 28 30.0000000  0  6 20 22 21 29 25 30
  23495374.771    -7137428.559 8  -5544127.70045  23495375.735    23495386.1934
  23607489.616    -9533762.398 8  -7398666.96745  23607483.741    23607496.2304
  22692662.937   -12483851.190 8  -9711089.31946  22692661.446    22692673.1874
  21317516.011   -18813947.919 9 -14638123.86447  21317519.717    21317527.6314
  20653069.066   -24104431.550 9 -18767792.98148  20653072.633    20653080.0044
  21977374.462   -14144513.899 8 -11007598.50847  21977377.085    21977385.7364
 00  7  5  1 29  0.0000000  0  6 20 22 21 29 25 30
  23478775.083    -7224626.832 8  -5612074.32345  23478781.740    23478794.0274
  23584957.675    -9652153.329 8  -7490919.45045  23584956.050    23584966.5094
  22713269.832   -12375518.551 8  -9626674.37146  22713276.759    22713287.8404
  21326763.481   -18765362.315 9 -14600264.97947  21326765.118    21326773.7804
  20650721.244   -24116773.891 9 -18777410.37748  20650724.001    20650731.2914
  21988340.578   -14086883.222 8 -10962691.50347  21988343.484    21988352.9784
 00  7  5  1 29 30.0000000  0  6 20 22 21 29 25 30
  23462250.016    -7311483.659 8  -5679754.89045  23462253.363    23462264.1414
  23562443.606    -9770422.742 8  -7583077.28345  23562448.567    23562461.2734
  22733940.846   -12266933.287 8  -9542062.54746  22733940.377    22733951.5224
  21336063.910   -18716482.926 9 -14562177.16747  21336066.332    21336075.2024
  20648426.707   -24128825.280 9 -18786801.05448  20648430.753    20648437.9754
  21999402.459   -14028748.159 8 -10917391.49147  21999406.903    21999415.8354
 00  7  5  1 30  0.0000000  0  6 20 22 21 29 25 30
  23445792.874    -7397996.313 8  -5747167.27445  23445789.652    23445800.7584
  23539961.757    -9888567.938 8  -7675138.27945  23539966.291    23539978.3944
  22754646.554   -12158098.354 8  -9457256.18446  22754650.536    22754661.3074
  21345419.581   -18667309.720 9 -14523860.40647  21345423.788    21345432.1794
  20646189.504   -24140585.841 9 -18795965.12048  20646192.828    20646200.1004
  22010564.458   -13970111.019 8 -10871700.24347  22010564.772    22010574.1944
 00  7  5  1 30 30.0000000  0  6 20 22 21 29 25 30
  23429386.236    -7484161.961 8  -5814309.22846  23429394.599    23429404.9764
  23517503.578   -10006586.558 8  -7767100.70945  23517508.255    23517519.5574
  22775404.158   -12049016.321 8  -9372257.26545  22775407.762    22775419.1694
  21354834.420   -18617842.288 9 -14485314.37247  21354837.284    21354845.7384
  20644006.583   -24152055.929 9 -18804902.83448  20644009.946    20644017.3604
  22021815.792   -13910974.000 8 -10825619.48347  22021818.741    22021827.1984
 00  7  5  1 31  0.0000000  0  6 20 22 21 29 25 30
  23413067.856    -7569978.118 8  -5881178.89246  23413064.136    23413074.5914
  23495082.452   -10124476.188 8  -7858962.58245  23495074.748    23495086.5584
  22796205.117   -11939690.251 8  -9287068.18046  22796212.356    22796223.7364
  21364302.066   -18568080.899 9 -14446539.27847  21364306.576    21364314.6204
  20641879.090   -24163236.830 9 -18813615.20648  20641882.075    20641889.9224
  22033164.902   -13851339.023 8 -10779150.69547  22033166.594    22033176.3334
 00  7  5  1 31 30.0000000  0  6 20 22 21 29 25 30
  23396796.758    -7655442.003 8  -5947774.02546  23396799.383    23396810.7194
  23472658.556   -10242233.899 8  -7950721.64545  23472666.081    23472677.8404
  22817060.803   -11830122.991 8  -9201691.16446  22817061.088    22817074.3104
  21373828.492   -18518025.068 9 -14407534.76147  21373831.956    21373840.1994
  20639806.793   -24174128.751 9 -18822102.40148  20639809.407    20639817.1584
  22044603.056   -13791208.381 8 -10732295.69347  22044608.775    22044617.5414
 00  7  5  1 32  0.0000000  0  6 20 22 21 29 25 30
  23380602.951    -7740550.950 8  -6014092.57546  23380605.511    23380615.0574
  23450286.286   -10359856.629 8  -8042375.56045  23450283.584    23450294.6614
  22837955.374   -11720317.102 8  -9116128.26046  22837957.421    22837969.3914
  21383411.302   -18467674.923 9 -14368300.88347  21383413.231    21383421.9634
  20637789.227   -24184731.957 9 -18830364.62448  20637791.911    20637799.3524
  22056142.360   -13730583.963 8 -10685055.93147  22056145.463    22056154.1444
 00  7  5  1 32 30.0000000  0  7 20 22 21 29 25 30 06
  23364471.566    -7825302.395 8  -6080132.57945  23364477.654    23364485.7524
  23427921.215   -10477341.575 8  -8133922.10445  23427925.526    23427936.8684
  22858898.022   -11610275.682 8  -9030381.75646  22858898.419    22858909.5564
  21393045.178   -18417030.265 8 -14328837.53447  21393050.161    21393058.6744
  20635825.429   -24195047.559 9 -18838402.74048  20635828.862    20635836.4454
  22067772.740   -13669468.175 8 -10637433.27547  22067775.755    22067784.0324
  24855152.271    -2159094.74717  -1670669.00655  24855155.472    24855168.9744
 00  7  5  1 33  0.0000000  0  7 20 22 21 29 25 30 06
  23348412.714    -7909693.730 8  -6145891.93546  23348416.299    23348428.1464
  23405591.588   -10594686.459 8  -8225359.51645  23405596.345    23405606.7704
  22879879.350   -11500001.693 8  -8944454.02546  22879882.760    22879893.8344
  21402739.266   -18366090.991 8 -14289144.60247  21402743.567    21402751.8234
  20633917.978   -24205076.088 9 -18846217.16548  20633920.615    20633927.9324
  22079496.081   -13607863.098 8 -10589429.33847  22079499.025    22079506.4434
  24843513.073    -2220215.154 7  -1718295.25245  24843522.652    24843534.1914
 00  7  5  1 33 30.0000000  0  7 20 22 21 29 25 30 06
  23332429.592    -7993722.157 8  -6211368.51346  23332427.658    23332437.8794
  23383294.527   -10711888.849 8  -8316685.86545  23383293.069    23383304.3864
  22900901.298   -11389497.937 8  -8858347.28346  22900910.483    22900921.9454
  21412491.278   -18314857.089 9 -14249222.09447  21412493.098    21412501.8484
  20632061.696   -24214818.144 9 -18853808.35948  20632066.530    20632073.9434
  22091308.203   -13545771.160 8 -10541046.05947  22091313.619    22091323.5734
  24831925.721    -2281132.490 7  -1765763.10445  24831931.701    24831944.8974
 00  7  5  1 34  0.0000000  0  7 20 22 21 29 25 30 06
  23316506.034    -8077385.219 8  -6276560.40146  23316507.727    23316517.1604
  23361000.745   -10828945.674 8  -8407898.79246  23361018.067    23361028.8924
  22921979.347   -11278767.422 8  -8772063.85346  22921981.742    22921993.4924
  21422296.002   -18263328.359 9 -14209069.83347  21422299.090    21422307.3944
  20630263.595   -24224274.429 9 -18861176.87448  20630266.749    20630274.3864
  22103220.117   -13483194.486 8 -10492285.04446  22103221.799    22103230.9344
  24820382.010    -2341844.045 8  -1813070.57845  24820378.127    24820390.9004
 00  7  5  1 34 30.0000000  0  7 20 22 21 29 25 30 06
  23300655.271    -8160680.158 8  -6341465.41946  23300656.520    23300667.3324
  23338780.397   -10945853.787 8  -8498995.87046  23338770.710    23338781.7464
  22943089.635   -11167812.968 8  -8685605.93045  22943096.457    22943106.8104
  21432157.714   -18211504.706 8 -14168687.75947  21432160.816    21432168.6274
  20628519.046   -24233445.651 9 -18868323.26648  20628521.525    20628529.3144
  22115217.124   -13420135.247 8 -10443148.01646  22115221.388    22115231.1204
  24808860.916    -2402347.323 7  -1860215.80945  24808865.711    24808878.3344
 00  7  5  1 35  0.0000000  0  7 20 22 21 29 25 30 06
  23284876.550    -8243604.517 8  -6406081.67546  23284876.448    23284886.7454
  23316548.543   -11062610.805 8  -8589975.20146  23316552.821    23316562.8154
  22964248.368   -11056637.795 8  -8598975.99246  22964252.290    22964263.4494
  21442075.435   -18159386.030 8 -14128075.80547  21442078.222    21442087.1634
  20626828.930   -24242332.306 9 -18875247.91148  20626830.662    20626838.2454
  22127309.520   -13356595.615 8 -10393636.63846  22127312.362    22127322.3134
  24797382.403    -2462639.681 7  -1907196.65345  24797391.015    24797404.7144
 00  7  5  1 35 30.0000000  0  7 20 22 21 29 25 30 06
  23269160.519    -8326155.577 8  -6470407.09846  23269166.238    23269177.4854
  23294362.687   -11179214.191 8  -8680834.84846  23294363.835    23294374.3844
  22985441.835   -10945244.772 8  -8512176.33546  22985449.590    22985461.1954
  21452048.703   -18106972.374 8 -14087234.00747  21452052.293    21452061.0774
  20625190.805   -24250934.755 9 -18881951.10848  20625193.818    20625201.0224
  22139491.615   -13292577.733 8 -10343752.60946  22139495.435    22139504.5684
  24785959.660    -2522718.407 7  -1954011.16145  24785958.045    24785970.2774
 00  7  5  1 36  0.0000000  0  7 20 22 21 29 25 30 06
  23253531.294    -8408330.748 8  -6534439.56246  23253528.941    23253539.9544
  23272196.916   -11295661.466 8  -8771572.84945  23272204.360    23272214.8194
  23006683.999   -10833636.311 8  -8425208.78046  23006688.527    23006699.7514
  21462079.313   -18054263.650 9 -14046162.29147  21462083.000    21462091.4434
  20623608.167   -24259253.551 9 -18888433.26948  20623610.729    20623618.2454
  22151764.633   -13228083.957 8 -10293497.75746  22151767.634    22151777.7544
  24774560.074    -2582580.583 7  -2000656.90845  24774566.512    24774579.3504
 00  7  5  1 36 30.0000000  0  7 20 22 21 29 25 30 06
  23237957.270    -8490127.329 8  -6598177.03046  23237963.210    23237974.9774
  23250084.527   -11411949.519 8  -8862186.76245  23250073.848    23250085.9064
  23027967.965   -10721815.703 8  -8338075.88946  23027967.163    23027978.4404
  21472166.855   -18001259.802 9 -14004860.58047  21472169.113    21472177.4494
  20622076.985   -24267289.592 9 -18894695.10048  20622081.434    20622089.2654
  22164129.053   -13163116.407 8 -10242873.72346  22164130.851    22164139.2654
  24763220.516    -2642223.493 7  -2047131.83945  24763217.142    24763227.8164
 00  7  5  1 37  0.0000000  0  7 20 22 21 29 25 30 06
  23222469.019    -8571542.928 8  -6661617.62246  23222472.141    23222481.7724
  23227973.973   -11528075.346 8  -8952674.27545  23227977.519    23227987.7944
  23049287.388   -10609785.850 8  -8250779.98545  23049285.581    23049297.7724
  21482310.148   -17947960.705 8 -13963328.83147  21482311.345    21482319.5304
  20620602.569   -24275043.464 9 -18900737.06748  20620606.133    20620613.6264
  22176580.906   -13097677.899 8 -10191882.71246  22176583.344    22176593.0984
  24751900.875    -2701644.303 7  -2093433.69145  24751910.065    24751920.0174
 00  7  5  1 37 30.0000000  0  7 20 22 21 29 25 30 06
  23207047.831    -8652574.795 8  -6724759.23846  23207051.141    23207061.4304
  23205908.743   -11644036.381 8  -9043033.40845  23205911.041    23205921.1654
  23070632.925   -10497549.257 8  -8163322.97545  23070643.117    23070654.9144
  21492504.651   -17894366.455 8 -13921567.07847  21492509.834    21492518.6914
  20619180.312   -24282515.955 9 -18906559.77348  20619184.102    20619191.3914
  22189121.384   -13031770.469 8 -10140526.32446  22189124.975    22189134.1114
  24740647.762    -2760840.322 7  -2139560.39245  24740645.729    24740659.4584
 00  7  5  1 38  0.0000000  0  7 20 22 21 29 25 30 06
  23191705.739    -8733220.570 8  -6787599.98046  23191705.493    23191714.7964
  23183866.739   -11759830.287 8  -9133262.31345  23183874.642    23183885.7614
  23092040.358   -10385109.549 8  -8075707.67045  23092040.853    23092051.6804
  21502763.488   -17840477.010 8 -13879575.31447  21502765.104    21502773.3814
  20617812.514   -24289707.600 9 -18912163.63348  20617815.398    20617822.9054
  22201753.995   -12965396.201 8 -10088806.15146  22201756.073    22201764.1854
  24729415.029    -2819808.913 7  -2185509.85445  24729422.222    24729436.9974
 00  7  5  1 38 30.0000000  0  7 20 22 21 29 25 30 06
  23176429.218    -8813477.464 8  -6850137.70046  23176432.184    23176442.4144
  23161874.412   -11875454.558 8  -9223359.01546  23161872.839    23161883.7524
  23113471.116   -10272469.262 8  -7987936.08245  23113474.480    23113486.7264
  21513069.560   -17786292.293 8 -13837353.46747  21513075.917    21513084.2394
  20616496.049   -24296618.972 9 -18917549.10048  20616500.441    20616507.9134
  22214468.161   -12898557.669 8 -10036724.21446  22214475.240    22214484.5234
  24718243.868    -2878547.356 7  -2231279.96045  24718244.976    24718258.5454
 00  7  5  1 39  0.0000000  0  7 20 22 21 29 25 30 06
  23161229.135    -8893342.956 8  -6912370.43846  23161234.206    23161243.1524
  23139900.022   -11990905.933 8  -9313321.01546  23139904.289    23139914.1044
  23134941.960   -10159631.256 8  -7900010.44445  23134947.484    23134958.0224
  21523438.025   -17731812.266 8 -13794901.50847  21523442.976    21523451.6064
  20615235.438   -24303250.860 9 -18922716.79148  20615238.397    20615245.8334
  22227281.831   -12831256.967 8  -9984282.14646  22227282.020    22227291.2874
  24707101.785    -2937052.814 7  -2276868.49645  24707112.013    24707124.0104
 00  7  5  1 39 30.0000000  0  7 20 22 21 29 25 30 06
  23146107.237    -8972814.468 8  -6974296.20146  23146110.741    23146120.8134
  23117964.444   -12106181.515 8  -9403146.02446  23117966.799    23117977.3534
  23156452.378   -10046598.628 8  -7811933.11045  23156456.686    23156467.6224
  21533863.488   -17677036.997 8 -13752219.49247  21533866.369    21533875.0814
  20614024.053   -24309603.826 9 -18927667.14248  20614029.268    20614036.9894
  22240174.050   -12763496.814 8  -9931482.06946  22240176.638    22240185.3324
  24696026.435    -2995322.643 7  -2322273.45945  24696024.402    24696035.6014
 00  7  5  1 40  0.0000000  0  7 20 22 21 29 25 30 06
  23131061.846    -9051889.428 8  -7035912.91246  23131063.526    23131074.7974
  23096061.099   -12221278.799 8  -9492832.08946  23096064.468    23096074.8214
  23178007.455    -9933374.225 8  -7723706.36345  23178002.344    23178013.7914
  21544341.649   -17621966.466 8 -13709307.41247  21544345.829    21544354.3214
  20612869.378   -24315678.384 9 -18932400.54348  20612873.411    20612880.9904
  22253155.660   -12695279.372 8  -9878325.65146  22253157.382    22253166.8524
  24684972.435    -3053353.971 7  -2367492.60945  24684981.666    24684993.3394
 00  7  5  1 40 30.0000000  0  7 20 22 21 29 25 30 06
  23116092.660    -9130565.524 8  -7097218.86646  23116092.612    23116101.8764
  23074199.366   -12336195.364 8  -9582377.34646  23074196.529    23074207.4764
  23199580.342    -9819961.049 8  -7635332.54445  23199583.840    23199595.3954
  21554878.140   -17566600.607 8 -13666165.19847  21554881.699    21554890.1184
  20611766.051   -24321475.496 9 -18936917.75548  20611770.174    20611777.7994
  22266223.275   -12626606.789 8  -9824814.59946  22266225.590    22266234.5604
  24673981.857    -3111144.070 7  -2412523.85945  24673984.620    24673995.9744
 00  7  5  1 41  0.0000000  0  7 20 22 21 29 25 30 06
  23101191.728    -9208839.842 8  -7158211.74746  23101196.971    23101207.4714
  23052362.752   -12450928.521 8  -9671779.68346  23052364.129    23052375.0964
  23221205.021    -9706362.355 8  -7546814.14345  23221201.215    23221213.1214
  21565471.324   -17510939.561 8 -13622792.97247  21565474.128    21565481.8504
  20610716.074   -24326995.392 9 -18941218.95948  20610719.741    20610727.3314
  22279375.200   -12557481.762 8  -9770950.97546  22279379.359    22279388.2954
  24663033.011    -3168690.445 7  -2457365.11045  24663033.481    24663046.1624
 00  7  5  1 41 30.0000000  0  7 20 22 21 29 25 30 06
  23086370.816    -9286710.155 8  -7218889.82746  23086377.579    23086388.4064
  23030561.098   -12565475.237 8  -9761036.72746  23030565.303    23030576.6724
  23242852.298    -9592581.011 8  -7458153.42745  23242854.027    23242865.7584
  21576118.158   -17454983.106 8 -13579190.55547  21576121.905    21576129.8424
  20609718.284   -24332239.044 9 -18945304.90248  20609721.885    20609729.5144
  22292621.635   -12487906.631 8  -9716736.63246  22292619.895    22292628.4134
  24652127.870    -3225990.342 7  -2502014.28145  24652128.413    24652143.0244
 00  7  5  1 42  0.0000000  0  7 20 22 21 29 25 30 06
  23071635.746    -9364173.793 8  -7279251.00646  23071637.297    23071647.6214
  23008802.837   -12679832.529 8  -9850146.19045  23008803.538    23008814.3894
  23264538.323    -9478619.809 8  -7369352.54445  23264539.855    23264551.8144
  21586822.003   -17398731.467 8 -13535358.13347  21586826.116    21586834.4834
  20608772.759   -24337206.747 9 -18949175.82648  20608776.514    20608784.2754
  22305935.818   -12417883.677 8  -9662173.33846  22305944.053    22305953.7784
  24641261.460    -3283041.140 7  -2546469.30545  24641269.951    24641285.1104
 00  7  5  1 42 30.0000000  0  7 20 22 21 29 25 30 06
  23056975.967    -9441228.015 8  -7339293.15746  23056974.375    23056984.7504
  22987078.018   -12793997.983 8  -9939106.14645  22987077.982    22987089.4434
  23286258.426    -9364481.795 8  -7280413.89045  23286259.815    23286271.7444
  21597586.713   -17342184.609 8 -13491295.67747  21597586.896    21597595.0194
  20607879.005   -24341899.422 9 -18952832.44048  20607883.379    20607891.1624
  22319350.273   -12347415.074 8  -9607262.79246  22319355.108    22319363.7894
  24630464.499    -3339839.831 7  -2590727.92745  24630463.890    24630476.3284
 00  7  5  1 43  0.0000000  0  7 20 22 21 29 25 30 06
  23042389.907    -9517870.606 8  -7399014.57446  23042389.879    23042398.9284
  22965384.859   -12907969.270 8 -10027914.81746  22965390.755    22965401.2524
  23308015.363    -9250169.618 8  -7191339.51945  23308012.840    23308024.1824
  21608401.608   -17285342.737 8 -13447003.33447  21608403.885    21608412.0474
  20607040.669   -24346317.606 9 -18956275.17048  20607042.607    20607050.3714
  22332846.922   -12276503.549 8  -9552007.08646  22332848.318    22332856.6924
  24619701.765    -3396383.887 8  -2634788.13845  24619704.309    24619716.7054
 00  7  5  1 43 30.0000000  0  7 20 22 21 29 25 30 06
  23027878.163    -9594099.117 8  -7458413.33846  23027884.343    23027895.0844
  22943740.083   -13021743.535 8 -10116569.97046  22943740.124    22943751.5044
  23329784.458    -9135686.087 8  -7102131.65845  23329797.719    23329809.0414
  21619274.980   -17228205.574 9 -13402480.88847  21619276.749    21619284.7284
  20606251.433   -24350462.163 9 -18959504.67848  20606253.805    20606261.6094
  22346419.238   -12205151.543 8  -9496408.16646  22346426.717    22346435.6724
  24608987.592    -3452670.739 8  -2678647.97045  24608992.597    24609005.3474
 00  7  5  1 44  0.0000000  0  7 20 22 21 29 25 30 06
  23013454.708    -9669910.810 8  -7517487.29146  23013458.509    23013467.4084
  22922120.376   -13135317.658 8 -10205069.17146  22922127.665    22922137.8474
  23351619.809    -9021034.380 8  -7012792.71845  23351615.897    23351626.8724
  21630203.315   -17170773.435 8 -13357728.59047  21630205.764    21630213.6064
  20605513.701   -24354333.747 9 -18962521.48848  20605517.189    20605524.9664
  22360083.352   -12133361.420 8  -9440467.86746  22360087.576    22360096.6004
  24598328.764    -3508697.765 7  -2722305.34645  24598331.793    24598343.1414
 00  7  5  1 44 30.0000000  0  7 20 22 21 29 25 30 06
  22999105.637    -9745303.385 8  -7576234.69146  22999110.203    22999120.3614
  22900552.101   -13248688.856 8 -10293410.26046  22900553.755    22900564.9784
  23373457.872    -8906217.459 8  -6923325.04745  23373465.305    23373475.8914
  21641186.386   -17113046.420 8 -13312746.51247  21641190.506    21641198.7564
  20604830.510   -24357932.782 9 -18965325.91848  20604832.386    20604840.0504
  22373828.142   -12061135.814 8  -9384188.20746  22373832.321    22373840.1594
  24587717.642    -3564462.192 7  -2765758.05345  24587719.791    24587733.0064
 00  7  5  1 45  0.0000000  0  7 20 22 21 29 25 30 06
  22984843.618    -9820274.238 8  -7634653.45946  22984844.000    22984853.5614
  22879015.506   -13361854.799 8 -10381591.38446  22879018.436    22879029.5314
  23395342.526    -8791238.122 8  -6833730.82545  23395344.731    23395355.9354
  21652228.764   -17055024.427 8 -13267534.57747  21652231.671    21652240.3004
  20604195.974   -24361259.990 9 -18967918.53648  20604199.245    20604206.9504
  22387650.435   -11988476.932 8  -9327570.94246  22387657.938    22387667.8124
  24577153.928    -3619961.445 7  -2809004.08545  24577157.015    24577171.0764
 00  7  5  1 45 30.0000000  0  7 20 22 21 29 25 30 06
  22970654.578    -9894820.911 8  -7692741.70746  22970658.033    22970667.1914
  22857512.214   -13474813.024 8 -10469610.66746  22857523.356    22857534.0734
  23417252.441    -8676099.396 8  -6744012.42745  23417254.286    23417265.9984
  21663326.459   -16996707.486 8 -13222092.83247  21663329.649    21663337.6274
  20603616.191   -24364315.992 9 -18970299.82248  20603617.981    20603625.4334
  22401567.892   -11915387.294 8  -9270618.03146  22401567.032    22401575.7314
  24566636.243    -3675192.856 7  -2852041.40945  24566648.606    24566660.8194
 00  7  5  1 46  0.0000000  0  7 20 22 21 29 25 30 06
  22956549.139    -9968940.968 8  -7750497.55246  22956554.214    22956563.1274
  22836067.119   -13587560.633 8 -10557465.81846  22836068.342    22836079.3984
  23439192.716    -8560804.317 7  -6654172.15245  23439194.983    23439206.4084
  21674479.475   -16938095.889 8 -13176421.47547  21674482.966    21674491.0184
  20603085.130   -24367101.513 9 -18972470.34548  20603088.000    20603095.1194
  22415554.111   -11841869.442 8  -9213331.42246  22415556.394    22415566.0474
  24556198.285    -3730153.757 7  -2894867.94845  24556188.539    24556203.1414
 00  7  5  1 46 30.0000000  0  7 20 22 21 29 25 30 06
  22942534.243   -10042632.033 8  -7807919.09946  22942530.736    22942540.8214
  22814647.782   -13700094.604 8 -10645154.48546  22814653.603    22814664.5994
  23461158.569    -8445355.798 8  -6564212.30545  23461164.544    23461175.9094
  21685688.624   -16879189.646 8 -13130520.52147  21685692.196    21685700.8074
  20602603.608   -24369617.041 9 -18974430.48848  20602609.056    20602616.3514
  22429623.916   -11767925.966 8  -9155713.18446  22429628.007    22429637.1054
  24545782.406    -3784841.475 7  -2937481.66245  24545782.418    24545795.0994
 00  7  5  1 47  0.0000000  0  7 20 22 21 29 25 30 06
  22928587.054   -10115891.484 8  -7865004.32546  22928590.698    22928599.6764
  22793279.311   -13812412.211 8 -10732674.57246  22793280.171    22793290.1164
  23483159.365    -8329756.567 8  -6474135.06545  23483160.968    23483174.7344
  21696950.422   -16819988.891 8 -13084390.07647  21696957.218    21696965.5094
  20602178.817   -24371863.159 9 -18976180.69648  20602181.656    20602189.0974
  22443773.097   -11693559.114 8  -9097765.03346  22443779.448    22443788.6474
  24535428.509    -3839253.408 8  -2979880.44745  24535428.556    24535439.5774
 00  7  5  1 47 30.0000000  0  7 20 22 21 29 25 30 06
  22914732.792   -10188717.060 8  -7921751.47946  22914731.860    22914741.4654
  22771945.734   -13924511.012 8 -10820024.19246  22771948.755    22771959.1264
  23505176.282    -8214009.645 7  -6383942.73845  23505186.970    23505199.8174
  21708275.070   -16760493.695 8 -13038030.20047  21708279.082    21708287.4744
  20601802.590   -24373840.525 9 -18977721.48848  20601805.282    20601812.8954
  22458008.350   -11618771.371 8  -9039488.92546  22458011.294    22458020.4014
  24525113.328    -3893387.070 7  -3022062.35745  24525126.135    24525139.5274
 00  7  5  1 48  0.0000000  0  7 20 22 21 29 25 30 06
  22900953.018   -10261106.166 8  -7978158.52246  22900955.835    22900965.1994
  22750652.546   -14036388.596 8 -10907201.39946  22750658.550    22750669.9224
  23527235.935    -8098118.100 8  -6293637.72145  23527240.521    23527253.0604
  21719654.337   -16700704.186 8 -12991440.98047  21719656.883    21719665.4194
  20601476.359   -24375550.212 9 -18979053.69448  20601479.575    20601487.3184
  22472318.049   -11543565.495 8  -8980886.97346  22472322.520    22472331.8804
  24514879.112    -3947239.891 7  -3064025.43645  24514878.770    24514890.2544
 00  7  5  1 48 30.0000000  0  7 20 22 21 29 25 30 06
  22887260.849   -10333056.565 8  -8034223.71246  22887264.719    22887274.2724
  22729408.920   -14148041.929 8 -10994203.86246  22729411.678    22729422.8864
  23549316.429    -7982085.100 8  -6203222.46045  23549321.427    23549334.0184
  21731088.026   -16640620.496 8 -12944622.53847  21731090.337    21731098.4384
  20601202.204   -24376992.830 9 -18980177.80248  20601205.226    20601212.7724
  22486708.089   -11467943.686 8  -8921960.92946  22486712.567    22486722.4324
  24504683.465    -4000809.115 7  -3105767.55845  24504684.564    24504696.6484
 00  7  5  1 49  0.0000000  0  7 20 22 21 29 25 30 06
  22873650.720   -10404565.764 8  -8089945.12346  22873656.754    22873666.3434
  22708209.452   -14259468.092 8 -11081029.32846  22708208.474    22708218.9074
  23571426.806    -7865913.213 8  -6112698.95745  23571428.513    23571440.6654
  21742576.533   -16580242.805 8 -12897574.99447  21742580.310    21742588.1854
  20600979.807   -24378168.661 9 -18981094.02248  20600981.885    20600989.3254
  22501178.683   -11391908.438 8  -8862712.74046  22501181.912    22501191.0904
  24494543.280    -4054092.184 7  -3147286.68845  24494544.994    24494557.3384
 00  7  5  1 49 30.0000000  0  7 20 22 21 29 25 30 06
  22860128.712   -10475631.307 8  -8145320.81946  22860133.380    22860143.1694
  22687041.635   -14370664.411 8 -11167675.66546  22687048.160    22687058.4814
  23593562.224    -7749604.994 8  -6022069.26045  23593561.867    23593574.2264
  21754119.512   -16519571.216 8 -12850298.45047  21754125.134    21754133.3864
  20600803.292   -24379078.313 9 -18981802.82848  20600808.469    20600816.0424
  22515727.674   -11315462.622 8  -8803144.62246  22515729.420    22515738.4004
  24484455.707    -4107086.473 8  -3188580.84245  24484460.992    24484473.4084
 00  7  5  1 50  0.0000000  0  7 20 22 21 29 25 30 06
  22846695.811   -10546250.934 8  -8200349.04646  22846696.160    22846704.2754
  22665929.555   -14481628.512 8 -11254141.07746  22665932.237    22665943.1454
  23615715.277    -7633164.518 8  -5931336.48945  23615720.197    23615731.4464
  21765724.648   -16458605.925 8 -12802793.03947  21765726.687    21765735.0894
  20600682.892   -24379722.573 9 -18982304.83348  20600685.889    20600693.4884
  22530348.682   -11238608.603 8  -8743258.42746  22530353.931    22530363.3734
  24474423.595    -4159789.592 7  -3229648.06445  24474431.015    24474443.6454
 00  7  5  1 50 30.0000000  0  7 20 22 21 29 25 30 06
  22833338.410   -10616422.219 8  -8255027.93946  22833341.392    22833351.2844
  22644861.599   -14592358.047 8 -11340423.68346  22644860.716    22644871.1274
  23637898.673    -7516593.785 8  -5840502.18645  23637902.245    23637913.6094
  21777382.269   -16397347.045 8 -12755058.85647  21777384.251    21777392.4834
  20600611.153   -24380102.052 9 -18982600.51748  20600613.807    20600620.9954
  22545052.104   -11161348.926 8  -8683056.12946  22545055.714    22545065.1924
  24464451.805    -4212198.760 7  -3270486.26245  24464458.778    24464469.8004
 00  7  5  1 51  0.0000000  0  7 20 22 21 29 25 30 06
  22820077.113   -10686142.726 8  -8309355.55646  22820074.730    22820084.4744
  22623832.610   -14702849.784 8 -11426521.02346  22623835.344    22623844.8984
  23660108.755    -7399896.168 8  -5749569.06445  23660109.286    23660120.2274
  21789091.432   -16335794.732 8 -12707096.03147  21789096.933    21789104.9174
  20600587.518   -24380217.460 9 -18982690.43348  20600591.651    20600599.1224
  22559830.702   -11083686.287 8  -8622539.83346  22559834.510    22559844.1594
  24454538.722    -4264311.445 8  -3311093.46045  24454541.526    24454554.0814
 00  7  5  1 51 30.0000000  0  7 20 22 21 29 25 30 06
  22806890.153   -10755410.368 8  -8363330.27046  22806893.173    22806903.4614
  22602854.672   -14813100.829 8 -11512430.79846  22602855.020    22602864.8694
  23682325.754    -7283074.339 7  -5658539.13345  23682338.834    23682350.1004
  21800861.486   -16273949.245 8 -12658904.74547  21800865.794    21800874.1384
  20600616.278   -24380069.587 9 -18982575.19648  20600619.730    20600627.3334
  22574682.480   -11005623.099 8  -8561711.44946  22574689.054    22574699.7664
  24444676.305    -4316125.134 7  -3351467.65445  24444680.812    24444693.3124
 00  7  5  1 52  0.0000000  0  7 20 22 21 29 25 30 06
  22793796.524   -10824222.341 8  -8416949.93946  22793798.660    22793808.5054
  22581919.353   -14923108.743 8 -11598151.11646  22581921.394    22581931.1884
  23704593.065    -7166131.222 7  -5567414.70545  23704592.958    23704603.5494
  21812685.697   -16211810.748 8 -12610485.14247  21812690.090    21812697.9594
  20600695.443   -24379658.769 9 -18982255.06248  20600698.178    20600705.3924
  22589621.093   -10927162.019 8  -8500573.00046  22589620.708    22589630.0184
  24434879.106    -4367637.195 8  -3391606.83445  24434880.515    24434890.8574
 00  7  5  1 52 30.0000000  0  7 20 22 21 29 25 30 06
  22780790.403   -10892576.548 8  -8470212.89646  22780791.410    22780800.8484
  22561033.890   -15032871.185 8 -11683680.16246  22561033.556    22561044.0174
  23726872.987    -7049069.930 7  -5476198.18145  23726868.086    23726879.2714
  21824567.655   -16149379.417 8 -12561837.36547  21824570.032    21824578.8164
  20600821.534   -24378985.710 9 -18981730.58448  20600826.237    20600833.3974
  22604621.065   -10848305.384 8  -8439126.31346  22604626.015    22604635.6634
  24425125.844    -4418845.105 8  -3431509.01045  24425134.221    24425147.1614
 00  7  5  1 53  0.0000000  0  7 20 22 21 29 25 30 06
  22767868.148   -10960470.748 8  -8523117.42146  22767871.779    22767880.4594
  22540188.252   -15142385.471 8 -11769015.84146  22540193.754    22540204.4554
  23749162.749    -6931893.555 8  -5384891.90445  23749168.075    23749177.8314
  21836500.191   -16086655.341 8 -12512961.49347  21836506.120    21836514.7334
  20600999.020   -24378051.245 9 -18981002.40948  20601003.471    20601011.0914
  22619706.607   -10769055.746 8  -8377373.41646  22619707.028    22619716.7884
  24415442.629    -4469746.265 8  -3471172.11845  24415448.632    24415461.4034
 00  7  5  1 53 30.0000000  0  7 20 22 21 29 25 30 06
  22755039.271   -11027902.583 8  -8575661.65446  22755039.668    22755049.1274
  22519402.106   -15251648.582 8 -11854155.79946  22519401.165    22519411.4284
  23771476.714    -6814604.884 7  -5293498.16845  23771486.078    23771498.6324
  21848492.773   -16023638.832 8 -12463857.74147  21848498.092    21848506.5934
  20601227.067   -24376856.062 9 -18980071.07848  20601231.012    20601238.5504
  22634862.011   -10689416.060 8  -8315316.56546  22634861.585    22634871.1004
  24405817.499    -4520338.263 8  -3510594.35245  24405821.084    24405833.7564
 00  7  5  1 54  0.0000000  0  7 20 22 21 29 25 30 06
  22742291.325   -11094869.727 8  -8627843.75446  22742295.692    22742305.1014
  22498649.515   -15360657.714 8 -11939097.84246  22498657.500    22498667.4544
  23793828.301    -6697207.235 7  -5202019.51045  23793825.375    23793837.5104
  21860542.709   -15960330.065 8 -12414526.27347  21860545.349    21860553.6644
  20601507.409   -24375400.587 9 -18978936.92648  20601508.448    20601515.2834
  22650090.372   -10609388.519 8  -8252957.51046  22650090.330    22650100.0624
  24396249.481    -4570618.416 7  -3549773.57745  24396252.419    24396264.1584
 00  7  5  1 54 30.0000000  0  7 20 22 21 29 25 30 06
  22729639.386   -11161369.977 8  -8679662.06946  22729641.239    22729650.4884
  22477962.681   -15469410.291 8 -12023839.99646  22477962.416    22477972.8544
  23816181.547    -6579702.902 7  -5110457.78045  23816186.400    23816198.1424
  21872645.917   -15896729.313 8 -12364967.27746  21872648.248    21872656.0324
  20601831.128   -24373685.388 9 -18977600.38548  20601834.430    20601841.8164
  22665386.857   -10528975.772 8  -8190298.31046  22665392.258    22665402.8484
  24386746.688    -4620584.179 8  -3588707.83345  24386745.223    24386756.1554
 00  7  5  1 55  0.0000000  0  7 20 22 21 29 25 30 06
  22717075.743   -11227401.042 8  -8731114.77946  22717077.730    22717086.1284
  22457309.412   -15577904.131 8 -12108380.53446  22457315.837    22457326.7954
  23838560.887    -6462094.713 7  -5018815.11045  23838566.061    23838577.9244
  21884805.662   -15832836.834 8 -12315180.96146  21884806.321    21884814.5814
  20602204.751   -24371711.418 9 -18976062.20548  20602210.231    20602217.8024
  22680764.177   -10448180.677 8  -8127341.15446  22680767.711    22680776.4474
  24377292.994    -4670233.356 8  -3627395.43245  24377296.109    24377307.7404
 00  7  5  1 55 30.0000000  0  7 20 22 21 29 25 30 06
  22704597.081   -11292960.631 8  -8782200.09946  22704599.950    22704610.2544
  22436721.740   -15686136.541 8 -12192717.34946  22436720.096    22436730.7134
  23860960.854    -6344385.838 8  -4927093.95845  23860966.058    23860977.1924
  21897017.542   -15768652.812 8 -12265167.48046  21897020.555    21897028.5224
  20602633.592   -24369478.918 9 -18974322.58448  20602635.548    20602642.5474
  22696214.231   -10367005.558 8  -8064087.86046  22696215.222    22696224.3614
  24367898.560    -4719563.250 7  -3665834.19945  24367908.772    24367920.9824
 00  7  5  1 56  0.0000000  0  7 20 22 21 29 25 30 06
  22692210.215   -11358046.477 8  -8832916.26046  22692215.704    22692224.8704
  22416171.218   -15794104.386 8 -12276848.02946  22416175.388    22416184.8824
  23883381.469    -6226579.157 8  -4835296.55145  23883383.752    23883394.9884
  21909286.199   -15704177.535 8 -12214927.03446  21909289.824    21909297.6974
  20603105.998   -24366988.635 9 -18972382.08548  20603109.126    20603116.2814
  22711731.172   -10285453.267 8  -8000540.69646  22711734.215    22711742.9214
  24358583.690    -4768571.378 7  -3704022.19545  24358582.703    24358595.9994
 00  7  5  1 56 30.0000000  0  7 20 22 21 29 25 30 06
  22679920.679   -11422656.279 8  -8883261.50246  22679920.057    22679929.7654
  22395675.322   -15901804.895 8 -12360770.39846  22395680.252    22395690.0494
  23905825.283    -6108677.982 8  -4743425.53745  23905819.966    23905831.6914
  21921610.680   -15639411.288 8 -12164459.85547  21921614.911    21921622.8834
  20603626.935   -24364241.659 9 -18970241.56948  20603631.370    20603639.1464
  22727324.631   -10203526.400 8  -7936701.63346  22727323.798    22727333.2864
  24349314.126    -4817255.502 7  -3741957.76945  24349318.559    24349330.2874
 00  7  5  1 57  0.0000000  0  7 20 22 21 29 25 30 06
  22667713.359   -11486787.940 8  -8933234.13746  22667715.529    22667725.4454
  22375238.031   -16009235.751 8 -12444482.63446  22375236.474    22375246.6934
  23928270.079    -5990684.877 7  -4651482.90845  23928273.535    23928285.5634
  21933992.754   -15574354.234 8 -12113766.07847  21933994.830    21934002.4834
  20604200.564   -24361238.360 9 -18967901.32148  20604202.883    20604210.6474
  22742983.016   -10121227.496 8  -7872572.69946  22742984.980    22742994.8994
  24340112.318    -4865613.039 7  -3779638.82945  24340115.979    24340128.6924
 00  7  5  1 57 30.0000000  0  7 20 22 21 29 25 30 06
  22655601.641   -11550439.420 8  -8982832.61646  22655604.054    22655613.8834
  22354842.754   -16116394.583 8 -12527982.89746  22354845.044    22354855.2044
  23950736.000    -5872602.906 7  -4559471.03845  23950742.343    23950756.1124
  21946426.228   -15509006.771 8 -12062846.01347  21946430.107    21946438.6964
  20604820.351   -24357979.237 9 -18965361.72948  20604823.143    20604830.6384
  22758711.253   -10038559.012 8  -7808155.78946  22758716.002    22758725.2274
  24330972.293    -4913641.714 7  -3817063.65545  24330976.451    24330988.5204
 00  7  5  1 58  0.0000000  0  7 20 22 21 29 25 30 06
  22643580.686   -11613608.202 8  -9032054.95946  22643583.715    22643592.7544
  22334501.850   -16223278.715 8 -12611269.12146  22334505.533    22334515.5764
  23973230.652    -5754435.263 7  -4467392.44045  23973230.009    23973242.5484
  21958920.259   -15443369.042 8 -12011699.76747  21958921.228    21958928.5704
  20605487.585   -24354465.047 9 -18962623.38748  20605491.663    20605499.4984
  22774514.751    -9955523.647 8  -7743452.97246  22774516.998    22774525.9804
  24321896.304    -4961338.997 8  -3854230.27545  24321901.041    24321911.9874
 00  7  5  1 58 30.0000000  0  7 20 22 21 29 25 30 06
  22631650.197   -11676292.374 8  -9080899.70446  22631654.399    22631664.1234
  22314218.766   -16329885.166 8 -12694338.95946  22314218.192    22314228.9364
  23995725.798    -5636184.207 7  -4375248.83045  23995731.977    23995745.2354
  21971464.064   -15377441.417 8 -11960327.62847  21971466.303    21971473.9834
  20606205.750   -24350696.374 9 -18959686.74748  20606209.013    20606216.8744
  22790382.717    -9872123.932 8  -7678466.26746  22790387.369    22790397.0904
  24312883.921    -5008702.242 7  -3891136.61745  24312886.971    24312898.8384
 00  7  5  1 59  0.0000000  0  7 20 22 21 29 25 30 06
  22619814.015   -11738489.480 8  -9129364.89346  22619818.947    22619828.3294
  22293978.898   -16436211.148 8 -12777190.24946  22293985.765    22293995.0834
  24018248.947    -5517852.533 7  -4283042.42245  24018250.864    24018261.6044
  21984062.203   -15311224.263 8 -11908729.86946  21984066.894    21984074.5144
  20606970.252   -24346673.920 9 -18956552.35248  20606974.537    20606982.0914
  22806326.357    -9788362.799 8  -7613197.93846  22806327.162    22806335.8584
  24303935.687    -5055729.247 7  -3927780.94545  24303936.644    24303950.6274
 00  7  5  1 59 30.0000000  0  7 20 22 21 29 25 30 06
  22608075.981   -11800197.620 8  -9177449.08346  22608076.538    22608085.4054
  22273804.460   -16542254.283 8 -12859821.14846  22273806.348    22273816.2224
  24040767.630    -5399443.637 7  -4190775.82045  24040782.384    24040794.7664
  21996717.240   -15244717.991 8 -11856906.83846  21996722.282    21996731.4114
  20607786.587   -24342398.399 9 -18953220.76248  20607788.105    20607795.8504
  22822329.994    -9704242.700 8  -7547649.86046  22822334.986    22822343.5744
  24295047.726    -5102417.463 7  -3964161.24845  24295054.018    24295065.8044
 00  7  5  2  0  0.0000000  0  7 20 22 21 29 25 30 06
  22596426.789   -11861414.621 8  -9225150.57646  22596427.080    22596436.9374
  22253683.008   -16648012.366 8 -12942229.92646  22253681.750    22253691.0694
  24063325.691    -5280960.117 7  -4098451.07045  24063328.383    24063341.8324
  22009431.030   -15177922.693 8 -11804858.60146  22009432.865    22009441.3504
  20608647.825   -24337870.271 9 -18949692.34348  20608650.197    20608657.4704
  22838406.667    -9619766.310 8  -7481824.18646  22838409.697    22838419.5354
  24286222.967    -5148764.457 7  -4000275.60445  24286234.007    24286246.1634
 00  7  5  2  0 30.0000000  0  7 20 22 21 29 25 30 06
  22584868.433   -11922138.206 8  -9272467.56846  22584870.840    22584880.7944
  22233609.329   -16753482.457 8 -13024414.29746  22233610.686    22233620.4974
  24085901.159    -5162405.071 7  -4006070.63345  24085889.633    24085901.4374
  22022196.025   -15110838.685 8 -11752585.36946  22022198.825    22022207.0674
  20609558.103   -24333090.175 9 -18945967.58348  20609559.665    20609566.8274
  22854547.625    -9534935.938 8  -7415722.68746  22854553.007    22854562.0154
  24277479.196    -5194767.928 7  -4036122.33145  24277479.131    24277491.6274
 00  7  5  2  1  0.0000000  0  7 20 22 21 29 25 30 06
  22573406.906   -11982366.415 8  -9319398.56846  22573409.172    22573419.7824
  22213591.950   -16858661.702 8 -13106372.03246  22213596.136    22213605.4524
  24108459.961    -5043781.447 7  -3913636.77445  24108463.412    24108476.0544
  22035013.909   -15043466.442 8 -11700087.55346  22035018.796    22035027.2964
  20610514.699   -24328058.740 9 -18942046.96748  20610516.911    20610524.1384
  22870756.809    -9449754.682 8  -7349347.76046  22870762.469    22870771.8154
  24268783.901    -5240425.647 7  -4071699.64845  24268790.360    24268802.5074
 00  7  5  2  1 30.0000000  0  7 20 22 21 29 25 30 06
  22562042.106   -12042097.097 8  -9365941.87146  22562043.565    22562053.5264
  22193634.156   -16963547.448 8 -13188101.06446  22193636.876    22193646.3594
  24131039.880    -4925092.185 7  -3821151.76645  24131048.940    24131060.8844
  22047891.801   -14975806.170 8 -11647365.29146  22047894.353    22047903.1814
  20611519.895   -24322776.475 9 -18937930.90948  20611522.225    20611529.7624
  22887035.401    -9364224.823 8  -7282701.21946  22887037.966    22887047.4854
  24260170.305    -5285735.078 8  -4107005.58745  24260169.100    24260180.9244
 00  7  5  2  2  0.0000000  0  7 20 22 21 29 25 30 06
  22550766.406   -12101328.277 8  -9412095.97946  22550772.159    22550782.1554
  22173730.115   -17068137.367 8 -13269599.57846  22173733.951    22173743.7254
  24153644.996    -4806340.298 7  -3728618.02645  24153646.650    24153659.0754
  22060818.264   -14907858.333 8 -11594418.96346  22060823.921    22060833.4614
  20612572.468   -24317244.064 9 -18933619.92248  20612574.854    20612582.5094
  22903376.885    -9278349.330 8  -7215785.32546  22903380.324    22903388.7654
  24251616.792    -5330693.893 8  -4142038.33445  24251613.554    24251625.6844
 00  7  5  2  2 30.0000000  0  7 20 22 21 29 25 30 06
  22539594.775   -12160057.787 8  -9457859.18246  22539596.785    22539605.9844
  22153888.084   -17172429.290 8 -13350865.89246  22153887.604    22153896.8524
  24176257.047    -4687528.434 7  -3636037.52545  24176256.043    24176268.1794
  22073807.540   -14839623.220 8 -11541248.79046  22073808.692    22073817.9654
  20613672.053   -24311462.579 9 -18929114.86348  20613674.719    20613682.3084
  22919786.760    -9192130.819 8  -7148602.13746  22919786.550    22919796.2074
  24243124.602    -5375299.720 8  -4176795.98445  24243125.417    24243136.8134
 00  7  5  2  3  0.0000000  0  7 20 22 21 29 25 30 06
  22528516.590   -12218283.764 8  -9503230.00846  22528516.481    22528526.2104
  22134096.865   -17276420.258 8 -13431897.68946  22134099.014    22134108.5054
  24198884.414    -4568659.353 7  -3543412.47545  24198875.412    24198888.4564
  22086846.653   -14771101.419 8 -11487855.20346  22086848.075    22086856.8144
  20614820.067   -24305432.132 9 -18924415.80948  20614822.533    20614829.8124
  22936247.919    -9105572.009 8  -7081153.80346  22936257.817    22936267.3464
  24234701.194    -5419550.293 7  -4211276.83245  24234704.497    24234716.8084
 00  7  5  2  3 30.0000000  0  7 20 22 21 29 25 30 06
  22517530.509   -12276003.977 8  -9548206.73946  22517532.494    22517542.2494
  22114363.857   -17380107.354 8 -13512692.71746  22114367.701    22114377.0024
  24221510.373    -4449736.118 7  -3450745.25345  24221506.768    24221518.6164
  22099941.916   -14702293.027 8 -11434238.29946  22099942.198    22099950.8024
  20616013.064   -24299153.482 9 -18919523.34648  20616017.185    20616024.7324
  22952788.618    -9018675.257 8  -7013442.11346  22952793.642    22952803.1924
  24226354.510    -5463443.444 8  -4245479.20445  24226352.157    24226363.4784
 00  7  5  2  4  0.0000000  0  7 20 22 21 29 25 30 06
  22506640.216   -12333216.471 8  -9592787.85246  22506645.183    22506655.6594
  22094691.775   -17483488.108 8 -13593249.02346  22094695.023    22094704.0274
  24244141.135    -4330761.366 7  -3358037.82945  24244146.897    24244158.8984
  22113088.474   -14633198.641 8 -11380398.54546  22113091.410    22113098.4314
  20617254.686   -24292627.347 9 -18914438.04148  20617258.735    20617266.4494
  22969392.969    -8931443.423 8  -6945469.34546  22969393.781    22969403.2644
  24218064.457    -5506976.641 8  -4279401.11245  24218067.781    24218079.3134
 00  7  5  2  4 30.0000000  0  6 20 22 29 25 30 06
  22495854.687   -12389919.235 8  -9636971.75546  22495855.733    22495864.4124
  22075077.577   -17586560.242 8 -13673564.87546  22075080.740    22075090.3494
  22126291.165   -14563818.512 8 -11326336.13746  22126293.966    22126301.4354
  20618545.486   -24285854.082 9 -18909160.16348  20618547.850    20618555.2614
  22986048.509    -8843879.122 8  -6877237.50946  22986056.995    22986066.4524
  24209848.117    -5550147.649 8  -4313040.80345  24209852.337    24209863.4274
 00  7  5  2  5  0.0000000  0  6 20 22 29 25 30 06
  22485160.873   -12446110.287 8  -9680756.92346  22485162.698    22485171.9014
  22055524.963   -17689321.421 8 -13753638.39546  22055525.266    22055535.8744
  22139549.364   -14494153.066 8 -11272051.41046  22139550.942    22139558.6364
  20619881.717   -24278834.501 9 -18903690.35448  20619883.750    20619891.0044
  23002780.563    -8755984.864 8  -6808748.56746  23002781.850    23002791.0214
  24201704.984    -5592954.198 8  -4346396.51945  24201706.940    24201718.3624
 00  7  5  2  5 30.0000000  0  6 20 22 29 25 30 06
  22474567.820   -12501787.578 8  -9724141.77346  22474568.028    22474576.5714
  22036022.137   -17791768.694 8 -13833467.33846  22036029.946    22036039.9284
  22152857.487   -14424202.837 8 -11217544.75446  22152861.368    22152869.5394
  20621263.309   -24271569.442 9 -18898029.26648  20621266.091    20621273.6414
  23019562.511    -8667763.408 8  -6740004.63546  23019570.648    23019580.0224
  24193623.122    -5635394.099 8  -4379466.57045  24193630.695    24193641.3914
 00  7  5  2  6  0.0000000  0  6 20 22 29 25 30 06
  22464071.681   -12556949.303 8  -9767124.85946  22464071.327    22464080.0514
  22016595.177   -17893899.338 8 -13913049.56646  22016596.052    22016605.3184
  22166217.662   -14353968.070 8 -11162816.39946  22166225.550    22166234.9784
  20622692.343   -24264059.163 9 -18892177.09748  20622694.987    20622702.9144
  23036411.409    -8579217.614 8  -6671007.98846  23036420.148    23036430.6194
  24185617.732    -5677464.891 7  -4412248.98045  24185623.217    24185636.0404
 00  7  5  2  6 30.0000000  0  6 20 22 29 25 30 06
  22453666.829   -12611593.495 8  -9809704.69346  22453671.841    22453680.5844
  21997217.032   -17995710.829 8 -13992383.09146  21997221.552    21997231.1074
  22179643.353   -14283449.412 8 -11107866.81946  22179646.236    22179654.1584
  20624167.611   -24256304.510 9 -18886134.51148  20624170.846    20624178.7414
  23053325.222    -8490349.908 8  -6601760.49546  23053331.387    23053341.3354
  24177679.989    -5719164.346 7  -4444741.94045  24177689.142    24177700.7684
 00  7  5  2  7  0.0000000  0  6 20 22 29 25 30 06
  22443370.853   -12665718.197 8  -9851879.73046  22443372.399    22443381.1144
  21977906.567   -18097201.038 8 -14071466.25846  21977908.499    21977917.7214
  22193112.210   -14212647.144 8 -11052696.24746  22193119.581    22193127.3874
  20625688.163   -24248305.970 9 -18879901.88348  20625693.119    20625700.6574
  23070295.435    -8401163.144 8  -6532264.37946  23070303.114    23070312.6644
  24169817.761    -5760490.306 8  -4476943.90445  24169825.683    24169836.5824
 00  7  5  2  7 30.0000000  0  6 20 22 29 25 30 06
  22433169.335   -12719321.420 8  -9893648.43046  22433172.432    22433181.1034
  21958653.616   -18198367.547 8 -14150297.21446  21958657.485    21958666.0974
  22206642.664   -14141561.780 8 -10997305.08946  22206646.130    22206654.0594
  20627257.836   -24240064.406 9 -18873479.87948  20627261.557    20627269.1324
  23087339.541    -8311660.107 8  -6462521.83246  23087334.167    23087345.1284
  24162035.483    -5801440.603 8  -4508853.14345  24162033.155    24162044.0464
 00  7  5  2  8  0.0000000  0  6 20 22 29 25 30 06
  22423066.661   -12772401.409 8  -9935009.40146  22423070.455    22423080.1654
  21939467.623   -18299207.446 8 -14228873.66546  21939467.464    21939477.1944
  22220223.950   -14070193.610 8 -10941693.57046  22220226.904    22220235.6244
  20628872.486   -24231580.042 9 -18866868.68748  20628875.930    20628883.3944
  23104422.610    -8221843.311 8  -6392534.81746  23104426.334    23104436.7044
  24154310.817    -5842013.056 8  -4540467.97345  24154311.579    24154322.5954
 00  7  5  2  8 30.0000000  0  6 20 22 29 25 30 06
  22413065.652   -12824956.398 8  -9975961.27746  22413069.244    22413078.5994
  21920335.618   -18399718.049 8 -14307193.51446  21920341.307    21920350.5314
  22233855.700   -13998543.326 8 -10885862.21546  22233861.184    22233870.8624
  20630533.110   -24222853.288 9 -18860068.61648  20630536.874    20630544.1184
  23121572.002    -8131715.105 8  -6322305.07246  23121577.566    23121587.0744
  24146658.549    -5882205.384 8  -4571786.63445  24146663.967    24146675.7544
 00  7  5  2  9  0.0000000  0  6 20 22 29 25 30 06
  22403167.869   -12876984.279 8 -10016502.40246  22403169.271    22403179.1394
  21901275.090   -18499896.902 8 -14385254.85547  21901278.130    21901286.9694
  22247543.434   -13926611.384 8 -10829811.40746  22247550.062    22247558.5004
  20632239.370   -24213885.054 9 -18853080.38348  20632243.830    20632250.6324
  23138776.536    -8041278.332 8  -6251834.91646  23138786.627    23138796.7984
  24139081.426    -5922015.434 8  -4602807.38845  24139087.111    24139099.1234
 00  7  5  2  9 30.0000000  0  6 20 22 29 25 30 06
  22393369.009   -12928483.488 8 -10056631.59046  22393371.475    22393378.1334
  21882273.558   -18599742.003 8 -14463056.15647  21882278.374    21882286.6484
  22261287.325   -13854398.142 8 -10773541.37546  22261291.557    22261299.9894
  20633994.022   -24204675.758 9 -18845904.30348  20633996.024    20634003.2294
  23156053.369    -7950535.883 8  -6181126.57146  23156055.290    23156064.1904
  24131582.080    -5961441.070 7  -4633528.57345  24131585.316    24131596.8304
 00  7  5  2 10  0.0000000  0  6 20 22 29 25 30 06
  22383667.290   -12979452.077 8 -10096347.31446  22383670.578    22383679.1024
  21863344.338   -18699250.839 8 -14540595.43247  21863342.216    21863351.6234
  22275081.833   -13781904.104 8 -10717052.54646  22275087.176    22275095.2824
  20635792.780   -24195226.285 9 -18838541.07348  20635794.444    20635801.3884
  23173384.786    -7859490.334 8  -6110182.01746  23173380.152    23173390.2534
  24124156.771    -6000480.094 8  -4663948.46745  24124156.693    24124169.5264
 00  7  5  2 10 30.0000000  0  6 20 22 29 25 30 06
  22374073.386   -13029888.351 8 -10135648.22546  22374073.463    22374081.4544
  21844462.792   -18798420.477 8 -14617870.36447  21844469.960    21844480.1754
  22288935.537   -13709129.908 8 -10660345.42446  22288936.177    22288943.6094
  20637633.445   -24185537.477 9 -18830991.34948  20637638.094    20637645.0684
  23190753.082    -7768144.366 8  -6039003.41646  23190761.748    23190772.3304
  24116796.412    -6039130.424 8  -4694065.50545  24116801.884    24116813.0824
 00  7  5  2 11  0.0000000  0  6 20 22 29 25 30 06
  22364571.653   -13079790.366 8 -10174532.82746  22364576.185    22364585.1194
  21825660.741   -18897248.318 8 -14694878.96447  21825664.066    21825673.2404
  22302833.144   -13636075.918 8 -10603420.29246  22302837.088    22302845.9164
  20639525.431   -24175609.707 9 -18823255.41848  20639527.204    20639534.3444
  23208197.166    -7676500.640 8  -5967592.78946  23208201.368    23208211.8894
  24109515.610    -6077389.893 7  -4723877.99745  24109520.820    24109533.7084
 00  7  5  2 11 30.0000000  0  6 20 22 29 25 30 06
  22355179.982   -13129156.336 8 -10212999.75146  22355182.912    22355190.7684
  21806921.938   -18995732.097 8 -14771619.48347  21806923.664    21806932.4544
  22316785.453   -13562742.920 8 -10546277.76546  22316792.041    22316800.5414
  20641457.825   -24165443.462 9 -18815333.65948  20641461.780    20641468.9464
  23225693.240    -7584561.752 8  -5895952.14346  23225696.665    23225707.1404
  24102307.959    -6115256.343 7  -4753384.22445  24102314.564    24102325.8884
 00  7  5  2 12  0.0000000  0  6 20 22 29 25 30 06
  22345886.627   -13177984.596 8 -10251047.69146  22345890.446    22345898.5814
  21788242.683   -19093869.672 8 -14848090.24847  21788248.087    21788257.2574
  22330797.893   -13489131.121 8 -10488917.96446  22330799.949    22330808.3784
  20643438.211   -24155039.256 9 -18807226.48148  20643441.609    20643448.7204
  23243243.853    -7492330.457 8  -5824083.67146  23243248.359    23243258.3704
  24095177.571    -6152727.744 8  -4782582.64345  24095184.272    24095195.6774
 00  7  5  2 12 30.0000000  0  6 20 22 29 25 30 06
  22336695.583   -13226273.721 8 -10288675.50346  22336700.610    22336710.2704
  21769634.740   -19191658.548 8 -14924289.27647  21769639.580    21769648.8624
  22344858.061   -13415241.167 8 -10431341.42946  22344860.163    22344868.5904
  20645463.659   -24144397.569 9 -18798934.25048  20645466.683    20645473.5804
  23260855.281    -7399809.678 8  -5751989.60446  23260855.209    23260864.8864
  24088123.327    -6189801.839 8  -4811471.49745  24088129.386    24088141.3454
 00  7  5  2 13  0.0000000  0  6 20 22 29 25 30 06
  22327611.984   -13274021.725 8 -10325881.67146  22327615.215    22327623.8354
  21751095.868   -19289095.897 8 -15000214.38747  21751096.881    21751106.9444
  22358969.008   -13341073.666 8 -10373548.63546  22358973.916    22358983.5424
  20647533.848   -24133519.107 9 -18790457.51048  20647536.704    20647543.6204
  23278507.595    -7307001.678 8  -5679671.73046  23278515.032    23278525.5474
  24081145.044    -6226476.634 8  -4840049.19645  24081150.693    24081160.9024
 00  7  5  2 13 30.0000000  0  7 20 22 29 16 25 30 06
  22318630.877   -13321226.921 8 -10362664.86246  22318633.413    22318640.5164
  21732620.415   -19386179.112 8 -15075863.54347  21732623.281    21732632.1774
  22373138.467   -13266629.044 8 -10315539.88746  22373140.516    22373149.7944
  24617400.758    -2189368.12017  -1686957.74955  24617402.659    24617416.0644
  20649648.676   -24122404.694 9 -18781796.92048  20649651.709    20649658.7774
  23296228.395    -7213909.179 8  -5607132.18546  23296230.177    23296240.8394
  24074244.058    -6262750.145 8  -4868314.19045  24074247.434    24074258.9624
 00  7  5  2 14  0.0000000  0  7 20 22 29 16 25 30 06
  22309751.971   -13367887.682 8 -10399023.83746  22309753.702    22309761.6394
  21714213.848   -19482906.114 8 -15151235.15247  21714216.340    21714225.3874
  22387352.019   -13191908.079 8 -10257315.82446  22387358.949    22387369.1774
  24600019.181    -2280679.192 7  -1758109.12745  24600025.566    24600041.0814
  20651807.273   -24111054.493 9 -18772952.59748  20651811.168    20651818.6664
  23313996.876    -7120534.969 8  -5534373.15646  23313999.633    23314010.2334
  24067418.791    -6298620.278 8  -4896264.87645  24067422.401    24067432.8844
 00  7  5  2 14 30.0000000  0  7 20 22 29 16 25 30 06
  22300974.327   -13414002.264 8 -10434957.21446  22300977.713    22300986.0754
  21695873.614   -19579274.820 8 -15226327.56347  21695878.565    21695887.2034
  22401627.740   -13116910.995 8 -10198876.60246  22401631.416    22401640.6604
  24582704.628    -2371689.723 7  -1829026.26945  24582707.920    24582722.6694
  20654012.389   -24099469.271 9 -18763925.14148  20654016.139    20654023.1374
  23331815.821    -7026881.748 8  -5461396.67346  23331821.258    23331831.9754
  24060666.301    -6334085.052 7  -4923899.71245  24060672.146    24060683.9224
 00  7  5  2 15  0.0000000  0  7 20 22 29 16 25 30 06
  22292304.273   -13459569.318 8 -10470463.95446  22292306.613    22292315.8974
  21677607.386   -19675282.563 9 -15301138.71647  21677608.884    21677617.4564
  22415953.361   -13041638.776 8 -10140222.98746  22415955.971    22415963.7304
  24565450.453    -2462396.292 7  -1899706.64045  24565446.428    24565458.2264
  20656261.271   -24087649.503 9 -18754714.91648  20656265.417    20656272.3734
  23349691.120    -6932952.037 8  -5388204.74246  23349695.037    23349705.5654
  24053998.892    -6369142.397 8  -4951217.02445  24054001.392    24054011.7944
 00  7  5  2 15 30.0000000  0  7 20 22 29 16 25 30 06
  22283738.313   -13504587.114 8 -10505542.69547  22283740.502    22283749.2424
  21659404.114   -19770926.653 8 -15375666.49547  21659407.994    21659416.8434
  22430326.629   -12966091.833 8 -10081355.30146  22430331.508    22430340.3574
  24548235.695    -2552796.752 7  -1970148.42845  24548243.572    24548256.3554
  20658557.081   -24075595.935 9 -18745322.50648  20658559.103    20658566.1554
  23367620.669    -6838748.676 8  -5314799.57746  23367622.477    23367632.0684
  24047404.127    -6403790.423 8  -4978215.37445  24047408.991    24047418.6774
 00  7  5  2 16  0.0000000  0  7 20 22 29 16 25 30 06
  22275274.892   -13549054.065 8 -10540192.20847  22275278.254    22275287.5374
  21641277.122   -19866204.582 8 -15449908.95947  21641277.123    21641285.9354
  22444759.874   -12890270.693 8 -10022273.96646  22444760.038    22444768.4594
  24531095.477    -2642888.362 7  -2040349.54345  24531099.230    24531113.4794
  20660892.976   -24063309.211 9 -18735748.42048  20660896.914    20660904.1424
  23385603.844    -6744274.116 8  -5241183.10146  23385600.329    23385609.6454
  24040888.720    -6438027.066 8  -5004893.22545  24040894.193    24040903.3564
 00  7  5  2 16 30.0000000  0  7 20 22 29 16 25 30 06
  22266919.904   -13592968.581 8 -10574411.25446  22266921.036    22266929.8534
  21623212.735   -19961114.374 8 -15523864.54847  21623216.339    21623225.8584
  22459235.261   -12814176.135 8  -9962979.54546  22459239.579    22459248.5424
  24514016.005    -2732668.163 7  -2110307.71145  24514015.354    24514029.8024
  20663276.440   -24050789.556 9 -18725992.83048  20663279.525    20663286.5444
  23403622.211    -6649531.187 8  -5167357.48646  23403628.941    23403638.4084
  24034453.570    -6471850.262 8  -5031248.91245  24034457.672    24034468.1054
 00  7  5  2 17  0.0000000  0  7 20 22 29 16 25 30 06
  22258664.653   -13636329.061 8 -10608198.58146  22258669.586    22258678.9324
  21605220.029   -20055653.795 9 -15597531.54347  21605226.481    21605235.0414
  22473770.915   -12737808.676 8  -9903472.51346  22473771.708    22473781.1084
  24496980.792    -2822133.753 7  -2180021.06445  24496990.337    24497004.8944
  20665703.725   -24038037.312 9 -18716056.00148  20665706.121    20665713.2414
  23421707.124    -6554522.589 8  -5093324.84846  23421708.399    23421718.5104
  24028102.881    -6505258.350 8  -5057281.09945  24028100.693    24028110.7504
 00  7  5  2 17 30.0000000  0  7 20 22 29 16 25 30 06
  22250525.009   -13679134.060 8 -10641553.08947  22250525.075    22250533.5974
  21587306.317   -20149820.313 9 -15670907.98547  21587307.108    21587315.5374
  22488351.566   -12661168.921 8  -9843753.27546  22488355.753    22488364.4514
  24480028.790    -2911282.601 7  -2249487.57245  24480025.505    24480039.0184
  20668175.550   -24025053.416 9 -18705938.66848  20668176.924    20668184.1144
  23439827.652    -6459250.934 8  -5019087.28046  23439838.104    23439848.6554
  24021819.430    -6538249.132 8  -5082988.16245  24021822.320    24021832.6964
 00  7  5  2 18  0.0000000  0  7 20 22 29 16 25 30 06
  22242478.901   -13721382.138 8 -10674473.61947  22242484.904    22242493.6124
  21569458.192   -20243611.277 8 -15743991.77047  21569458.620    21569467.6784
  22502992.911   -12584257.669 8  -9783822.49246  22502992.781    22503001.2484
  24463121.983    -3000112.013 7  -2318705.15245  24463122.556    24463135.3544
  20670688.725   -24011838.543 9 -18695641.34848  20670691.556    20670698.8734
  23458015.202    -6363718.666 8  -4944646.62046  23458017.126    23458027.4984
  24015624.137    -6570820.828 8  -5108368.64645  24015623.601    24015633.8634
 00  7  5  2 18 30.0000000  0  7 20 22 29 16 25 30 06
  22234548.595   -13763071.734 8 -10706958.95847  22234551.484    22234560.9524
  21551680.188   -20337024.209 9 -15816781.00547  21551683.376    21551691.7844
  22517675.306   -12507075.270 8  -9723680.41646  22517679.472    22517688.3254
  24446283.679    -3088618.973 7  -2387671.50145  24446279.913    24446293.4804
  20673248.559   -23998393.567 9 -18685164.72748  20673250.521    20673257.2694
  23476244.133    -6267928.678 8  -4870005.13246  23476245.460    23476255.6694
  24009502.792    -6602971.368 8  -5133420.99245  24009506.363    24009515.6294
 00  7  5  2 19  0.0000000  0  7 20 22 29 16 25 30 06
  22226722.394   -13804201.383 8 -10739007.97746  22226724.493    22226733.2924
  21533978.489   -20430057.238 9 -15889274.19747  21533979.518    21533988.1754
  22532416.315   -12429622.423 8  -9663327.60446  22532418.118    22532427.4614
  24429499.949    -3176801.289 7  -2456384.88545  24429499.094    24429511.6564
  20675848.054   -23984718.392 9 -18674508.73848  20675852.587    20675859.5664
  23494514.790    -6171883.543 8  -4795164.78345  23494521.855    23494532.4884
  24003462.044    -6634698.984 8  -5158143.78345  24003467.946    24003478.3354
 00  7  5  2 19 30.0000000  0  7 20 22 29 16 25 30 06
  22219000.453   -13844769.641 8 -10770619.56847  22219005.846    22219014.1104
  21516348.063   -20522708.234 8 -15961469.70247  21516348.278    21516357.4614
  22547201.125   -12351900.027 8  -9602764.75046  22547208.044    22547217.1124
  24412770.154    -3264655.913 7  -2524842.90245  24412779.704    24412792.9144
  20678496.539   -23970813.917 9 -18663674.06848  20678498.646    20678505.6284
  23512850.896    -6075586.091 8  -4720127.84345  23512847.891    23512857.7204
  23997501.820    -6666001.801 8  -5182535.58345  23997511.607    23997522.9004
 00  7  5  2 20  0.0000000  0  8 20 22 29 16 01 25 30 06
  22211391.604   -13884775.079 8 -10801792.58847  22211392.795    22211401.6214
  21498787.544   -20614974.567 8 -16033365.47347  21498790.473    21498799.4324
  22562040.451   -12273908.553 8  -9541992.24346  22562049.190    22562058.7924
  24396131.788    -3352180.416 7  -2593043.68345  24396125.102    24396137.8204
  24783865.762    -1220820.56017   -933207.85855  24783866.910    24783879.7714
  20681184.384   -23956680.618 9 -18652661.09348  20681188.271    20681195.2654
  23531222.429    -5979038.816 8  -4644896.26146  23531219.991    23531230.7134
  23991626.821    -6696877.894 8  -5206594.82245  23991635.640    23991646.0184
 00  7  5  2 20 30.0000000  0  8 20 22 29 16 01 25 30 06
  22203883.114   -13924216.351 8 -10832525.99047  22203886.598    22203896.2464
  21481300.879   -20706853.545 9 -16104959.40547  21481306.493    21481315.4394
  22576942.589   -12195648.873 8  -9481010.72646  22576942.739    22576950.8224
  24379532.816    -3439372.045 7  -2660985.06745  24379532.152    24379546.0354
  24765847.331    -1315504.901 7  -1006987.84945  24765848.970    24765861.3264
  20683916.632   -23942318.768 9 -18641470.03048  20683921.030    20683928.1774
  23549635.505    -5882244.510 8  -4569472.17545  23549638.779    23549649.0264
  23985834.862    -6727325.454 8  -5230320.14645  23985841.794    23985851.2184
 00  7  5  2 21  0.0000000  0  8 20 22 29 16 01 25 30 06
  22196488.911   -13963092.092 8 -10862818.74547  22196489.167    22196497.9354
  21463893.872   -20798343.050 8 -16176249.85947  21463896.720    21463905.2244
  22591882.445   -12117121.466 8  -9419820.59046  22591886.449    22591894.5134
  24363010.525    -3526228.337 7  -2728665.18345  24363004.781    24363017.7414
  24747822.969    -1410213.306 7  -1080786.60145  24747826.118    24747840.0984
  20686694.136   -23927729.481 9 -18630101.73748  20686697.160    20686704.3384
  23568103.287    -5785205.609 8  -4493857.48145  23568104.784    23568115.5914
  23980130.753    -6757342.603 8  -5253710.06545  23980129.135    23980139.7404
 00  7  5  2 21 30.0000000  0  8 20 22 29 16 01 25 30 06
  22189197.826   -14001401.011 8 -10892669.80547  22189198.435    22189208.0324
  21446559.305   -20889441.177 9 -16247235.34147  21446561.420    21446569.5384
  22606871.324   -12038327.101 8  -9358422.44446  22606879.469    22606888.8634
  24346532.410    -3612746.692 7  -2796081.97645  24346540.202    24346552.8694
  24729800.834    -1504944.698 7  -1154603.21645  24729799.211    24729812.5964
  20689512.639   -23912912.716 9 -18618556.20048  20689516.681    20689523.8114
  23586612.549    -5687924.894 8  -4418054.38446  23586616.899    23586628.1444
  23974493.661    -6786927.622 8  -5276763.28245  23974499.562    23974510.2804
 00  7  5  2 22  0.0000000  0  8 20 22 29 16 01 25 30 06
  22182013.825   -14039141.645 8 -10922078.04147  22182016.849    22182025.8464
  21429297.009   -20980145.777 9 -16317914.18447  21429300.365    21429309.2584
  22621917.820   -11959266.466 8  -9296816.83046  22621924.167    22621934.3264
  24330145.614    -3698924.500 7  -2863233.38045  24330141.527    24330155.2834
  24711760.028    -1599697.810 7  -1228436.78845  24711769.090    24711781.6434
  20692375.278   -23897869.286 9 -18606834.03848  20692379.306    20692386.3104
  23605172.488    -5590404.854 8  -4342064.81246  23605174.117    23605184.5394
  23968950.643    -6816078.808 8  -5299478.44545  23968953.123    23968962.5494
 00  7  5  2 22 30.0000000  0  8 20 22 29 16 01 25 30 06
  22174942.420   -14076312.668 8 -10951042.43447  22174943.998    22174951.6924
  21412109.089   -21070454.163 8 -16388284.28847  21412115.476    21412123.7074
  22637015.894   -11879940.413 8  -9235004.37146  22637019.776    22637028.6784
  24313803.195    -3784758.839 7  -2930117.19445  24313808.086    24313821.6154
  24693721.399    -1694471.523 7  -1302286.41445  24693734.175    24693744.8974
  20695282.060   -23882599.455 9 -18594935.45548  20695285.014    20695292.0924
  23623774.154    -5492648.236 8  -4265890.86946  23623777.172    23623787.5404
  23963482.220    -6844794.168 8  -5321854.00445  23963488.182    23963498.2804
 00  7  5  2 23  0.0000000  0  8 20 22 29 16 01 25 30 06
  22167972.199   -14112912.909 8 -10979562.07147  22167978.231    22167987.3314
  21395005.984   -21160363.881 9 -16458343.73947  21395006.019    21395014.6214
  22652159.794   -11800349.479 8  -9172985.51446  22652165.557    22652174.8914
  24297538.020    -3870247.745 7  -2996731.81745  24297539.753    24297551.7134
  24675692.804    -1789264.592 7  -1376151.06945  24675695.855    24675708.4114
  20698230.834   -23867103.668 9 -18582860.80648  20698233.579    20698240.8164
  23642419.288    -5394657.530 8  -4189534.50945  23642423.639    23642433.6834
  23958103.753    -6873072.026 8  -5343888.64545  23958106.226    23958117.2314
 00  7  5  2 23 30.0000000  0  8 20 22 29 16 01 25 30 06
  22161118.861   -14148941.089 8 -11007635.92346  22161121.852    22161131.5554
  21377971.729   -21249872.797 9 -16528090.87547  21377972.981    21377981.5744
  22667355.665   -11720494.525 8  -9110760.93346  22667361.221    22667370.4254
  24281332.987    -3955387.995 7  -3063074.77445  24281338.597    24281351.3174
  24657654.312    -1884075.953 8  -1450030.01245  24657654.726    24657666.5674
  20701222.471   -23851382.819 9 -18570610.78448  20701224.918    20701232.4324
  23661110.373    -5296435.686 8  -4112998.05045  23661114.129    23661125.3214
  23952802.754    -6900910.874 8  -5365581.20045  23952809.027    23952820.3784
 00  7  5  2 24  0.0000000  0  8 20 22 29 16 01 25 30 06
  22154373.646   -14184395.839 8 -11035262.95347  22154375.488    22154385.0974
  21361013.100   -21338979.090 9 -16597524.27847  21361016.648    21361025.5384
  22682601.087   -11640376.126 8  -9048331.09146  22682607.343    22682617.1764
  24265200.441    -4040177.209 7  -3129144.20845  24265203.375    24265216.9834
  24639615.637    -1978904.362 7  -1523922.22445  24639608.874    24639621.1744
  20704255.978   -23835437.486 9 -18558185.84348  20704259.335    20704266.6614
  23679836.810    -5197985.285 8  -4036283.52145  23679849.558    23679859.5984
  23947594.499    -6928308.898 8  -5386930.25845  23947596.212    23947605.8234
 00  7  5  2 24 30.0000000  0  8 20 22 29 16 01 25 30 06
  22147737.199   -14219276.069 8 -11062442.32147  22147739.028    22147747.4504
  21344133.351   -21427680.598 9 -16666642.26447  21344137.362    21344146.4764
  22697895.874   -11559995.259 8  -8985696.70846  22697903.492    22697912.5274
  24249136.025    -4124612.761 8  -3194938.01945  24249135.883    24249147.1684
  24621567.821    -2073748.390 7  -1597826.55845  24621560.239    24621573.0164
  20707333.300   -23819268.074 9 -18545586.30148  20707336.025    20707343.5794
  23698614.001    -5099308.787 8  -3959392.80545  23698626.745    23698637.4654
  23942462.343    -6955264.174 8  -5407934.32745  23942466.153    23942476.2214
 00  7  5  2 25  0.0000000  0  8 20 22 29 16 01 25 30 06
  22141207.124   -14253580.604 8 -11089173.08547  22141210.477    22141219.4644
  21327331.431   -21515974.648 9 -16735442.75547  21327335.419    21327344.3624
  22713246.645   -11479352.614 8  -8922858.36646  22713249.944    22713258.7614
  24233136.954    -4208691.906 8  -3260454.14745  24233137.883    24233149.4354
  24603506.475    -2168607.041 8  -1671742.25245  24603509.497    24603522.5304
  20710452.190   -23802874.913 9 -18532812.40248  20710455.419    20710463.0624
  23717439.935    -5000408.808 8  -3882327.94645  23717446.418    23717456.9424
  23937420.510    -6981775.025 8  -5428592.10345  23937421.832    23937432.6514
 00  7  5  2 25 30.0000000  0  8 20 22 29 16 01 25 30 06
  22134788.800   -14287308.252 8 -11115454.35547  22134791.768    22134800.7784
  21310611.681   -21603858.823 9 -16803923.86947  21310611.638    21310620.0284
  22728646.821   -11398448.854 8  -8859816.55246  22728645.070    22728653.6734
  24217201.289    -4292412.235 8  -3325690.64445  24217203.913    24217216.7854
  24585448.868    -2263478.867 7  -1745668.22145  24585454.676    24585467.9854
  20713614.086   -23786258.620 9 -18519864.63748  20713617.424    20713625.1104
  23736310.863    -4901287.802 8  -3805090.85245  23736308.511    23736319.5034
  23932458.234    -7007839.870 8  -5448902.37145  23932461.884    23932471.9484
 00  7  5  2 26  0.0000000  0  8 20 22 29 16 01 25 30 06
  22128478.030   -14320457.896 8 -11141285.22747  22128483.609    22128492.3104
  21293964.014   -21691331.326 9 -16872084.19047  21293965.719    21293974.4314
  22744086.766   -11317284.875 8  -8796571.97346  22744089.894    22744098.1454
  24201344.155    -4375771.400 8  -3390645.73245  24201341.980    24201355.0454
  24567397.960    -2358362.809 7  -1819603.63645  24567399.579    24567411.1724
  20716817.971   -23769419.953 9 -18506743.59748  20716821.741    20716829.3514
  23755206.835    -4801948.707 8  -3727683.83145  23755212.105    23755223.4144
  23927585.367    -7033457.145 8  -5468863.86445  23927586.274    23927597.9704
 00  7  5  2 26 30.0000000  0  8 20 22 29 16 01 25 30 06
  22122281.729   -14353028.391 8 -11166664.80747  22122285.808    22122294.9634
  21277397.680   -21778390.134 9 -16939922.16547  21277399.499    21277408.2254
  22759578.345   -11235861.410 8  -8733125.20846  22759584.152    22759593.1424
  24185542.588    -4458766.273 8  -3455316.98445  24185548.821    24185560.2654
  24549342.550    -2453257.675 8  -1893547.63645  24549341.786    24549353.3484
  20720065.826   -23752359.378 9 -18493449.64148  20720068.460    20720075.8574
  23774152.735    -4702394.005 8  -3650108.78845  23774157.516    23774168.7354
  23922791.377    -7058625.042 8  -5488475.20845  23922797.396    23922808.7644
 00  7  5  2 27  0.0000000  0  8 20 22 29 16 01 25 30 06
  22116199.639   -14385018.683 8 -11191592.26147  22116198.935    22116207.2514
  21260907.894   -21865033.236 9 -17007436.20247  21260911.557    21260919.9664
  22775125.671   -11154179.311 8  -8669476.89246  22775128.275    22775136.1304
  24169826.819    -4541394.792 8  -3519702.70945  24169824.701    24169837.4274
  24531280.113    -2548161.919 8  -1967498.93845  24531282.249    24531293.2624
  20723354.008   -23735076.848 9 -18479982.73148  20723357.428    20723364.8924
  23793130.485    -4602626.252 8  -3572367.72945  23793142.461    23793153.7644
  23918089.229    -7083341.960 8  -5507735.12845  23918093.538    23918104.7804
 00  7  5  2 27 30.0000000  0  8 20 22 29 16 01 25 30 06
  22110221.195   -14416427.433 8 -11216066.58647  22110221.304    22110230.4794
  21244502.655   -21951257.925 9 -17074624.20347  21244503.648    21244512.2324
  22790718.713   -11072239.245 8  -8605627.54646  22790720.219    22790730.1264
  24154164.508    -4623654.007 8  -3583800.68045  24154171.200    24154184.0334
  24513220.792    -2643074.463 8  -2041456.67345  24513221.345    24513232.0134
  20726683.866   -23717573.245 9 -18466343.55848  20726688.203    20726695.4734
  23812157.253    -4502648.099 8  -3494462.74045  23812167.655    23812179.4604
  23913475.503    -7107606.346 8  -5526642.39745  23913476.158    23913486.5794
 00  7  5  2 28  0.0000000  0  8 20 22 29 16 01 25 30 06
  22104352.029   -14447253.711 8 -11240087.02547  22104355.316    22104364.8764
  21228173.008   -22037062.005 9 -17141484.45347  21228175.247    21228184.3024
  22806354.694   -10990042.092 8  -8541577.92146  22806362.659    22806371.7664
  24138587.226    -4705541.895 8  -3647609.31845  24138587.932    24138601.0904
  24495149.920    -2737993.998 7  -2115419.87945  24495157.675    24495169.8404
  20730055.848   -23699849.313 9 -18452532.69948  20730061.062    20730068.2254
  23831233.565    -4402462.334 8  -3416395.98745  23831233.171    23831243.8074
  23908944.373    -7131416.611 8  -5545195.82145  23908945.472    23908955.7604
 00  7  5  2 28 30.0000000  0  8 20 22 29 16 01 25 30 06
  22098600.683   -14477496.451 8 -11263652.76147  22098601.067    22098609.3314
  21211923.948   -22122443.619 9 -17208015.50847  21211927.772    21211936.3274
  22822051.157   -10907588.703 8  -8477328.61146  22822053.363    22822063.1444
  24123071.075    -4787055.349 8  -3711126.19045  24123076.177    24123088.4574
  24477089.634    -2832919.234 8  -2189387.52545  24477094.067    24477106.3334
  20733473.526   -23681904.968 9 -18438550.09148  20733476.179    20733483.0054
  23850332.707    -4302071.339 8  -3338169.31845  23850336.390    23850347.1854
  23904501.407    -7154771.202 8  -5563394.19745  23904502.259    23904510.6934
 00  7  5  2 29  0.0000000  0  8 20 22 29 16 01 25 30 06
  22092952.872   -14507154.715 8 -11286763.06047  22092956.724    22092966.0454
  21195758.687   -22207401.019 9 -17274216.01447  21195760.781    21195769.1904
  22837788.108   -10824880.013 8  -8412880.37246  22837791.854    22837801.2004
  24107647.977    -4868192.118 7  -3774349.53945  24107636.726    24107650.1154
  24459023.406    -2927848.918 7  -2263358.59745  24459028.661    24459042.3204
  20736928.893   -23663740.910 9 -18424396.27048  20736932.546    20736939.7194
  23869469.073    -4201477.497 8  -3259784.59745  23869478.843    23869489.4814
  23900140.596    -7177668.548 8  -5581236.27945  23900143.590    23900154.9014
 00  7  5  2 29 30.0000000  0  8 20 22 29 16 01 25 30 06
  22087422.651   -14536227.670 8 -11309417.26647  22087424.407    22087433.0004
  21179672.283   -22291931.964 9 -17340084.21247  21179675.297    21179683.3114
  22853575.219   -10741916.638 8  -8348233.69546  22853580.181    22853588.3904
  24092260.379    -4948949.675 7  -3837277.36445  24092268.030    24092281.5354
  24440960.920    -3022781.734 7  -2337332.12445  24440964.453    24440975.0214
  20740427.505   -23645357.764 9 -18410071.74048  20740430.810    20740437.9464
  23888661.949    -4100683.727 8  -3181244.04645  23888659.574    23888670.6004
  23895869.559    -7200107.063 8  -5598720.82445  23895873.077    23895882.8054
 00  7  5  2 30  0.0000000  0  8 20 22 29 16 01 25 30 06
  22082003.604   -14564714.166 8 -11331614.49847  22082003.676    22082012.1824
  21163668.889   -22376033.907 9 -17405618.14147  21163671.317    21163679.1644
  22869411.133   -10658699.505 8  -8283389.25746  22869415.415    22869423.4374
  24076967.762    -5029325.442 7  -3899907.72345  24076974.434    24076987.0974
  24422899.236    -3117716.313 7  -2411307.03745  24422899.132    24422910.9074
  20743968.449   -23626755.968 9 -18395576.82348  20743970.807    20743977.3774
  23907873.096    -3999692.257 8  -3102549.47045  23907877.782    23907888.4944
  23891684.774    -7222085.320 8  -5615846.73245  23891690.476    23891701.1934
 00  7  5  2 30 30.0000000  0  8 20 22 29 16 01 25 30 06
  22076692.742   -14592613.304 8 -11353354.06147  22076694.266    22076702.6574
  21147748.531   -22459704.800 9 -17470816.18547  21147749.541    21147757.4524
  22885295.125   -10575229.433 8  -8218347.71546  22885299.075    22885307.2474
  24061754.361    -5109316.751 8  -3962238.51345  24061753.053    24061763.2204
  24404829.161    -3212651.118 7  -2485282.09545  24404831.664    24404845.3424
  20747549.995   -23607936.084 9 -18380911.96948  20747552.155    20747558.6574
  23927129.894    -3898505.996 8  -3023703.11345  23927133.161    23927143.9484
  23887594.226    -7243601.929 8  -5632612.88545  23887596.151    23887605.7514
 00  7  5  2 31  0.0000000  0  8 20 22 29 16 01 25 30 06
  22071494.851   -14619924.154 8 -11374635.20147  22071497.187    22071506.0774
  21131907.866   -22542942.771 9 -17535676.86947  21131909.420    21131918.0094
  22901226.117   -10491507.320 8  -8153109.81746  22901230.790    22901239.9944
  24046599.003    -5188921.455 7  -4024268.04745  24046603.752    24046616.0654
  24386762.196    -3307585.057 7  -2559256.50445  24386767.208    24386780.7654
  20751170.269   -23588898.734 9 -18366077.66248  20751174.717    20751181.4614
  23946431.737    -3797127.448 8  -2944706.96045  23946424.383    23946435.4354
  23883585.916    -7264655.487 8  -5649018.23745  23883590.834    23883600.5714
 00  7  5  2 31 30.0000000  0  8 20 22 29 16 01 25 30 06
  22066406.560   -14646645.880 8 -11395457.27047  22066411.522    22066420.9804
  21116149.914   -22625746.119 9 -17600198.89347  21116152.014    21116160.7104
  22917203.922   -10407534.062 8  -8087676.20746  22917211.094    22917217.9964
  24031524.263    -5268136.893 7  -4085994.18645  24031528.411    24031541.3744
  24368696.534    -3402516.783 7  -2633229.14245  24368703.831    24368714.7974
  20754834.995   -23569643.893 9 -18351073.88548  20754838.336    20754845.6294
  23965748.822    -3695559.009 8  -2865562.81145  23965752.438    23965763.0314
  23879666.555    -7285244.468 8  -5665061.61145  23879672.147    23879682.9174
 00  7  5  2 32  0.0000000  0  8 20 22 29 16 01 25 30 06
  22061438.319   -14672777.662 8 -11415819.65947  22061439.859    22061448.1484
  21100475.091   -22708112.625 9 -17664380.51947  21100478.109    21100486.7634
  22933232.658   -10323310.428 8  -8022047.47846  22933237.271    22933246.8914
  24016530.040    -5346960.332 8  -4147414.92945  24016528.837    24016541.5744
  24350635.261    -3497444.821 7  -2707198.93645  24350637.709    24350650.6664
  20758540.456   -23550172.177 9 -18335901.11548  20758543.521    20758550.7834
  23985114.351    -3593803.608 8  -2786272.92645  23985116.127    23985126.6794
  23875844.656    -7305367.219 8  -5680741.69045  23875842.791    23875853.0434
 00  7  5  2 32 30.0000000  0  8 20 22 29 16 01 25 30 06
  22056576.235   -14698318.602 8 -11435721.64847  22056579.010    22056588.1334
  21084883.013   -22790039.940 9 -17728219.92947  21084888.109    21084896.4044
  22949309.857   -10238837.531 8  -7956224.56946  22949313.236    22949322.2894
  24001596.332    -5425389.524 8  -4208528.46845  24001605.135    24001617.0274
  24332572.934    -3592367.758 7  -2781164.76045  24332575.773    24332586.8924
  20762286.620   -23530484.222 9 -18320559.84348  20762289.830    20762297.1994
  24004514.958    -3491863.524 7  -2706839.24345  24004513.775    24004525.5064
  23872100.947    -7325022.326 8  -5696057.35845  23872102.957    23872113.8134
 00  7  5  2 33  0.0000000  0  8 20 22 29 16 01 25 30 06
  22051831.405   -14723267.792 8 -11455162.51747  22051832.011    22051840.8354
  21069377.777   -22871526.027 9 -17791715.52347  21069381.512    21069389.9454
  22965433.192   -10154116.107 8  -7890207.98046  22965435.251    22965443.4424
  23986756.856    -5503421.825 8  -4269332.71445  23986755.810    23986768.7524
  24314509.408    -3687284.419 7  -2855125.66345  24314513.686    24314524.4514
  20766073.298   -23510579.983 9 -18305050.04748  20766077.488    20766085.0704
  24023942.308    -3389741.476 8  -2627263.81145  24023947.084    24023958.2594
  23868450.527    -7344208.519 8  -5711007.63445  23868452.409    23868461.8514
 00  7  5  2 33 30.0000000  0  8 20 22 29 16 01 25 30 06
  22047193.006   -14747624.504 8 -11474141.73347  22047196.428    22047205.1054
  21053957.732   -22952569.166 9 -17854865.97047  21053959.167    21053968.2474
  22981603.988   -10069147.104 8  -7823998.43746  22981604.204    22981611.5054
  23971979.708    -5581054.997 8  -4329826.00545  23971982.549    23971993.7594
  24296449.173    -3782193.279 7  -2929080.50145  24296451.439    24296464.8104
  20769902.734   -23490460.216 9 -18289372.30548  20769905.941    20769913.6974
  24043413.732    -3287439.761 8  -2547548.33145  24043414.626    24043426.0634
  23864882.013    -7362924.308 8  -5725591.34445  23864890.450    23864901.9284
 00  7  5  2 34  0.0000000  0  8 20 22 29 16 01 25 30 06
  22042671.620   -14771387.917 8 -11492658.62147  22042674.807    22042683.5554
  21038619.017   -23033167.607 9 -17917669.89147  21038622.162    21038630.2934
  22997813.840    -9983931.309 8  -7757596.62146  22997819.488    22997829.7214
  23957287.513    -5658286.551 8  -4390006.30245  23957286.170    23957298.4264
  24278390.836    -3877092.953 8  -3003028.16945  24278393.653    24278405.2664
  20773772.318   -23470125.617 9 -18273527.15648  20773775.726    20773783.1764
  24062909.144    -3184961.017 8  -2467694.86945  24062916.577    24062927.6574
  23861414.022    -7381168.321 8  -5739807.43545  23861418.850    23861431.0454
 00  7  5  2 34 30.0000000  0  8 20 22 29 16 01 25 30 06
  22038262.729   -14794557.476 8 -11510712.77247  22038265.475    22038273.7354
  21023365.764   -23113319.185 9 -17980125.60647  21023369.217    21023378.3364
  23014076.941    -9898469.800 8  -7691003.35646  23014082.306    23014091.1474
  23942658.661    -5735114.031 7  -4449871.69745  23942664.817    23942678.3054
  24260335.479    -3971982.110 8  -3076967.62945  24260336.771    24260348.0764
  20777682.467   -23449576.578 9 -18257514.91648  20777686.089    20777693.5554
  24082446.816    -3082307.962 8  -2387705.60745  24082450.843    24082462.6274
  23858035.284    -7398939.165 8  -5753654.80745  23858037.467    23858047.9244
 00  7  5  2 35  0.0000000  0  8 20 22 29 16 01 25 30 06
  22033967.297   -14817132.283 8 -11528303.48147  22033969.996    22033976.9394
  21008200.894   -23193021.595 9 -18042231.32847  21008202.598    21008211.6804
  23030393.888    -9812763.463 8  -7624219.28546  23030392.921    23030400.7864
  23928118.885    -5811534.913 7  -4509420.35145  23928122.995    23928135.2054
  24242278.202    -4066859.292 8  -3150897.76745  24242281.268    24242292.6504
  20781635.365   -23428813.735 9 -18241336.07648  20781637.250    20781644.5964
  24102015.763    -2979482.746 8  -2307582.18345  24102017.988    24102028.7344
  23854745.308    -7416235.497 8  -5767132.46345  23854745.438    23854757.3034
 00  7  5  2 35 30.0000000  0  8 20 22 29 16 01 25 30 06
  22029785.447   -14839111.817 8 -11545430.32247  22029786.774    22029794.5794
  20993121.471   -23272273.000 9 -18103985.60847  20993121.664    20993130.5654
  23046737.563    -9726813.262 8  -7557245.17946  23046747.594    23046757.1284
  23913655.558    -5887547.014 7  -4568650.43545  23913657.499    23913671.3934
  24224227.988    -4161722.927 8  -3224817.40245  24224229.830    24224240.5804
  20785626.055   -23407836.903 9 -18224990.49248  20785629.083    20785636.2164
  24121613.732    -2876488.163 7  -2227326.77545  24121617.775    24121627.5824
  23851541.214    -7433056.206 8  -5780239.48045  23851543.231    23851555.3664
 00  7  5  2 36  0.0000000  0  8 20 22 29 16 01 25 30 06
  22025714.494   -14860495.338 8 -11562092.75947  22025717.440    22025725.2224
  20978126.547   -23351071.694 9 -18165387.13647  20978126.881    20978135.6964
  23063152.732    -9640620.127 8  -7490081.79746  23063150.091    23063159.6484
  23899269.370    -5963147.578 8  -4627559.82245  23899272.945    23899284.7964
  24206180.921    -4256571.696 8  -3298725.39845  24206180.157    24206192.7894
  20789657.735   -23386646.939 9 -18208478.83648  20789661.116    20789668.4424
  24141248.672    -2773326.783 8  -2146941.43745  24141248.648    24141259.1044
  23848426.866    -7449400.156 7  -5792975.00845  23848434.298    23848445.6174
 00  7  5  2 36 30.0000000  0  8 20 22 29 16 01 25 30 06
  22021758.148   -14881282.130 8 -11578290.20247  22021761.349    22021769.9904
  20963217.158   -23429416.082 9 -18226434.65647  20963218.740    20963226.7444
  23079591.463    -9554184.962 8  -7422729.82246  23079598.669    23079608.1934
  23884956.982    -6038334.189 8  -4686146.70945  23884964.307    23884975.7854
  24188134.114    -4351404.262 7  -3372620.76645  24188134.883    24188147.6534
  20793730.884   -23365244.314 9 -18191801.46648  20793734.004    20793741.0824
  24160909.348    -2670000.963 8  -2066427.92145  24160910.654    24160920.9274
  23845415.762    -7465265.940 8  -5805337.93745  23845414.800    23845426.4534
 00  7  5  2 37  0.0000000  0  8 20 22 29 16 01 25 30 06
  22017917.606   -14901471.579 8 -11594022.17947  22017920.646    22017928.8454
  20948391.715   -23507303.819 9 -18287126.35047  20948396.895    20948404.9554
  23096086.905    -9467508.904 8  -7355190.14346  23096092.339    23096102.6474
  23870735.241    -6113104.805 8  -4744409.41145  23870735.394    23870747.8534
  24170090.071    -4446219.162 8  -3446502.37345  24170092.471    24170103.6444
  20797844.054   -23343629.301 9 -18174958.59848  20797847.270    20797854.2004
  24180602.538    -2566513.318 8  -1985788.33245  24180604.307    24180614.8304
  23842477.898    -7480652.181 8  -5817327.17345  23842486.334    23842499.0944
 00  7  5  2 37 30.0000000  0  8 20 22 29 16 01 25 30 06
  22014190.953   -14921063.236 9 -11609288.34547  22014192.462    22014200.7914
  20933660.547   -23584732.953 9 -18347460.68347  20933662.125    20933671.1624
  23112629.228    -9380592.656 8  -7287463.29846  23112631.060    23112642.9674
  23856583.544    -6187456.690 8  -4802345.84445  23856587.726    23856599.7824
  24152051.074    -4541014.927 8  -3520369.07245  24152053.680    24152065.2094
  20801998.382   -23321802.304 9 -18157950.55848  20802000.882    20802007.9374
  24200316.263    -2462866.274 7  -1905024.54345  24200327.023    24200338.5734
  23839645.412    -7495557.742 8  -5828941.85345  23839650.425    23839662.3294
 00  7  5  2 38  0.0000000  0  8 20 22 29 16 01 25 30 06
  22010573.351   -14940056.396 9 -11624088.15147  22010578.425    22010586.7054
  20919017.260   -23661701.571 9 -18407436.17247  20919016.226    20919024.0214
  23129216.541    -9293437.413 8  -7219550.25246  23129216.675    23129227.3364
  23842516.013    -6261387.730 8  -4859954.32745  23842518.671    23842530.2564
  24134018.133    -4635790.106 8  -3594219.71245  24134018.129    24134029.9974
  20806190.720   -23299763.935 9 -18140777.80748  20806194.728    20806201.6654
  24220071.443    -2359061.928 7  -1824138.16245  24220080.666    24220091.4144
  23836898.917    -7509981.336 8  -5840180.97545  23836906.428    23836916.5704
 00  7  5  2 38 30.0000000  0  8 20 22 29 16 01 25 30 06
  22007076.159   -14958450.468 9 -11638421.13547  22007077.849    22007086.3024
  20904452.451   -23738208.185 9 -18467051.66847  20904457.023    20904465.2094
  23145846.768    -9206044.151 8  -7151451.68445  23145846.792    23145857.0654
  23828530.071    -6334895.033 8  -4917232.63145  23828530.818    23828542.3244
  24115978.546    -4730543.054 7  -3668053.06845  24115986.131    24115997.5874
  20810425.273   -23277514.415 9 -18123440.53348  20810428.835    20810435.4844
  24239868.564    -2255103.314 8  -1743131.54845  24239864.434    24239874.4344
  23834247.998    -7523921.793 8  -5851043.64445  23834253.322    23834264.1584
 00  7  5  2 39  0.0000000  0  8 20 22 29 16 01 25 30 06
  22003687.630   -14976245.218 8 -11652287.11347  22003690.949    22003699.7534
  20889985.033   -23814251.118 9 -18526305.85047  20889986.677    20889994.7974
  23162518.979    -9118413.777 8  -7083168.35445  23162523.140    23162532.5374
  23814619.346    -6407976.911 8  -4974179.40745  23814623.009    23814635.2004
  24097963.301    -4825272.422 8  -3741867.99845  24097960.542    24097972.2144
  20814698.330   -23255054.095 9 -18105938.98848  20814702.570    20814709.7394
  24259679.524    -2150992.650 8  -1662006.45745  24259675.129    24259685.0204
  23831688.273    -7537378.030 8  -5861528.97945  23831692.828    23831704.1004
 00  7  5  2 39 30.0000000  0  8 20 22 29 16 01 25 30 06
  22000418.213   -14993440.096 8 -11665685.65947  22000418.618    22000427.4244
  20875601.211   -23889828.144 9 -18585196.98147  20875604.493    20875613.1214
  23179240.017    -9030547.342 8  -7014701.10146  23179243.616    23179253.0884
  23800795.170    -6480630.519 8  -5030792.48645  23800798.397    23800809.0624
  24079929.108    -4919976.670 8  -3815663.36545  24079938.135    24079950.1374
  20819014.803   -23232383.135 9 -18088273.31548  20819016.558    20819024.1694
  24279508.753    -2046732.396 7  -1580764.79645  24279515.129    24279526.8944
  23829225.707    -7550349.042 8  -5871636.22345  23829224.354    23829235.7224
 00  7  5  2 40  0.0000000  0  8 20 22 29 16 01 25 30 06
  21997260.523   -15010034.504 8 -11678616.31147  21997261.092    21997269.3894
  20861311.074   -23964937.273 9 -18643723.51647  20861311.915    20861320.2414
  23196004.084    -8942445.679 8  -6946050.54545  23196008.650    23196018.4494
  23787048.883    -6552853.893 8  -5087070.30045  23787053.559    23787066.0284
  24061919.063    -5014654.231 8  -3889437.93845  24061921.865    24061932.8764
  20823366.842   -23209502.491 9 -18070444.24648  20823370.581    20823378.1354
  24299372.029    -1942325.285 7  -1499408.70745  24299383.472    24299395.3984
  23826849.968    -7562833.548 8  -5881364.36845  23826848.778    23826859.2934
 00  7  5  2 40 30.0000000  0  8 20 22 29 16 01 25 30 06
  21994214.733   -15026027.920 8 -11691078.66247  21994217.533    21994225.8044
  20847108.063   -24039576.828 9 -18701884.15547  20847108.845    20847116.8294
  23212815.104    -8854109.982 8  -6877217.62845  23212818.731    23212827.9084
  23773393.975    -6624644.454 8  -5143010.88445  23773392.841    23773403.2014
  24043906.155    -5109303.832 8  -3963190.71245  24043909.796    24043920.6894
  20827762.707   -23186412.392 9 -18052451.97348  20827764.750    20827772.0294
  24319276.897    -1837773.519 8  -1417939.90545  24319279.637    24319290.4254
  23824559.473    -7574830.468 8  -5890712.58845  23824565.873    23824576.5734
 00  7  5  2 41  0.0000000  0  8 20 22 29 16 01 25 30 06
  21991286.503   -15041420.047 8 -11703072.46847  21991288.820    21991296.7914
  20832991.782   -24113745.508 9 -18759677.87547  20832994.494    20833002.9204
  23229665.569    -8765541.473 8  -6808203.32745  23229672.860    23229683.1894
  23759812.264    -6695999.892 8  -5198612.40445  23759813.377    23759826.4604
  24025900.154    -5203923.759 8  -4036920.36245  24025904.533    24025915.9314
  20832192.491   -23163113.407 9 -18034296.93348  20832198.085    20832205.6314
  24339185.814    -1733079.825 7  -1336360.49345  24339201.177    24339211.9274
  23822375.696    -7586338.787 8  -5899680.05246  23822375.776    23822387.8914
 00  7  5  2 41 30.0000000  0  8 20 22 29 16 01 25 30 06
  21988470.440   -15056210.482 8 -11714597.43647  21988473.713    21988481.9784
  20818969.438   -24187441.453 9 -18817103.23147  20818970.908    20818979.0634
  23246570.576    -8676740.985 8  -6739008.24045  23246571.616    23246581.5584
  23746314.553    -6766917.985 8  -5253873.07745  23746318.833    23746332.1764
  24007906.560    -5298512.590 8  -4110625.76845  24007903.980    24007916.1554
  20836668.722   -23139605.587 9 -18015979.16648  20836671.640    20836679.0304
  24359137.267    -1628246.488 7  -1254672.28245  24359151.356    24359161.3404
  23820277.638    -7597357.302 8  -5908265.89546  23820279.552    23820290.5794
 00  7  5  2 42  0.0000000  0  8 20 22 29 16 01 25 30 06
  21985771.236   -15070399.002 8 -11725653.38747  21985773.204    21985782.1434
  20805037.697   -24260662.538 9 -18874158.55147  20805037.195    20805045.5684
  23263507.171    -8587709.333 8  -6669633.04245  23263513.592    23263523.6134
  23732906.743    -6837396.246 8  -5308791.08245  23732907.479    23732918.6634
  23989907.151    -5393068.756 8  -4184305.73045  23989911.971    23989921.2154
  20841181.147   -23115889.564 9 -17997499.15848  20841184.656    20841192.1644
  24379132.185    -1523275.918 7  -1172877.12945  24379126.708    24379137.2224
  23818273.871    -7607884.936 8  -5916469.20345  23818275.564    23818287.1054
 00  7  5  2 42 30.0000000  0  8 20 22 29 16 01 25 30 06
  21983186.975   -15083985.155 8 -11736239.95947  21983188.965    21983196.4734
  20791190.532   -24333406.931 9 -18930842.44947  20791194.157    20791202.4904
  23280503.174    -8498448.023 8  -6600078.86045  23280498.813    23280510.1004
  23719577.981    -6907432.723 8  -5363364.82945  23719579.139    23719590.6514
  23971921.076    -5487590.594 8  -4257958.99745  23971925.236    23971934.6414
  20845733.652   -23091965.538 9 -17978857.07448  20845737.452    20845744.6584
  24399126.849    -1418170.441 7  -1090976.77945  24399127.371    24399137.1564
  23816357.820    -7617920.745 8  -5924289.25445  23816364.774    23816376.9564
 00  7  5  2 43  0.0000000  0  8 20 22 29 16 01 25 30 06
  21980715.663   -15096968.608 8 -11746356.88847  21980718.306    21980725.5154
  20777440.509   -24405673.251 9 -18987153.80647  20777442.170    20777450.3904
  23297521.328    -8408957.912 8  -6530346.42545  23297528.281    23297538.4104
  23706336.624    -6977025.203 8  -5417592.59945  23706336.408    23706347.9064
  23953940.469    -5582076.547 8  -4331584.26645  23953943.093    23953955.1114
  20850325.458   -23067833.837 9 -17960053.16148  20850329.842    20850336.8294
  24419144.624    -1312932.714 7  -1008973.42445  24419152.935    24419162.6704
  23814546.578    -7627463.648 8  -5931725.25445  23814549.036    23814559.2754
 00  7  5  2 43 30.0000000  0  8 20 22 29 16 01 25 30 06
  21978360.173   -15109349.284 8 -11756004.13447  21978361.155    21978370.2014
  20763780.243   -24477460.080 9 -19043091.54747  20763781.773    20763789.7184
  23314600.726    -8319240.108 8  -6460436.54245  23314602.007    23314609.8944
  23693177.740    -7046170.798 8  -5471472.15046  23693178.580    23693190.8164
  23935963.261    -5676525.168 8  -4405180.37545  23935970.543    23935981.4494
  20854959.073   -23043494.760 9 -17941087.64648  20854961.542    20854968.2114
  24439197.864    -1207564.816 7   -926868.62245  24439203.243    24439214.6604
  23812821.999    -7636512.629 8  -5938776.36645  23812828.001    23812838.8104
 00  7  5  2 44  0.0000000  0  8 20 22 29 16 01 25 30 06
  21976118.656   -15121126.818 8 -11765181.40447  21976120.712    21976129.0814
  20750208.647   -24548765.523 9 -19098654.16547  20750212.567    20750220.7784
  23331705.989    -8229295.537 8  -6390349.99245  23331717.636    23331727.3624
  23680097.644    -7114868.100 8  -5525002.37645  23680106.098    23680116.7904
  23918006.806    -5770934.810 8  -4478746.14545  23918005.454    23918015.7514
  20859628.737   -23018949.262 9 -17921961.28448  20859632.203    20859639.1524
  24459278.112    -1102069.643 7   -844664.65945  24459278.868    24459290.1194
  23811194.811    -7645066.917 8  -5945442.02446  23811201.180    23811211.6344
 00  7  5  2 44 30.0000000  0  8 20 22 29 16 01 25 30 06
  21973992.946   -15132300.913 8 -11773888.45547  21973994.173    21974003.4614
  20736732.679   -24619587.620 9 -19153840.16747  20736735.617    20736743.7224
  23348879.500    -8139125.427 8  -6320087.69045  23348876.098    23348885.9534
  23667119.709    -7183114.637 8  -5578181.35345  23667119.181    23667130.3294
  23900047.166    -5865304.070 8  -4552280.52945  23900047.705    23900057.9284
  20864339.420   -22994197.319 9 -17902674.05448  20864342.599    20864349.1534
  24479374.294     -996449.321 7   -762363.19545  24479378.841    24479388.1024
  23809664.893    -7653125.582 8  -5951721.45945  23809666.901    23809678.1124
 00  7  5  2 45  0.0000000  0  8 20 22 29 16 01 25 30 06
  21971980.800   -15142871.340 8 -11782125.12247  21971982.689    21971991.3934
  20723348.490   -24689924.692 9 -19208648.21247  20723350.915    20723359.1184
  23366071.799    -8048730.664 8  -6249650.36245  23366077.207    23366086.1464
  23654217.255    -7250907.600 8  -5631006.89946  23654219.157    23654229.0974
  23882095.859    -5959631.207 8  -4625782.00745  23882097.219    23882109.3324
  20869088.095   -22969239.491 9 -17883226.39348  20869091.679    20869098.6124
  24499488.959     -890706.186 7   -679965.92345  24499501.279    24499511.1164
  23808224.691    -7660687.711 8  -5957613.99545  23808227.429    23808238.6824
 00  7  5  2 45 30.0000000  0  8 20 22 29 16 01 25 30 06
  21970083.770   -15152838.015 8 -11789891.33747  21970085.317    21970093.8724
  20710056.579   -24759775.317 9 -19263077.22347  20710058.711    20710066.9694
  23383311.021    -7958112.781 8  -6179039.18345  23383321.312    23383332.3974
  23641398.659    -7318245.189 8  -5683477.61045  23641403.437    23641414.8094
  23864157.563    -6053914.569 8  -4699249.39645  23864156.384    23864167.4884
  20873877.012   -22944075.784 9 -17863618.30848  20873880.210    20873887.0564
  24519637.858     -784842.672 7   -597474.91745  24519645.722    24519655.7764
  23806881.103    -7667752.268 8  -5963118.82945  23806883.735    23806894.4114
 00  7  5  2 46  0.0000000  0  8 20 22 29 16 01 25 30 06
  21968302.701   -15162200.896 8 -11797187.05347  21968304.438    21968312.3674
  20696856.423   -24829138.328 9 -19317126.26447  20696859.542    20696867.5164
  23400604.443    -7867272.780 8  -6108254.93845  23400608.733    23400618.3044
  23628674.260    -7385125.412 8  -5735591.95445  23628677.282    23628687.9854
  23846219.362    -6148152.724 8  -4772681.57945  23846222.635    23846232.7944
  20878704.202   -22918706.879 9 -17843850.31748  20878707.434    20878714.5244
  24539803.024     -678861.480 7   -514892.20645  24539813.112    24539823.6304
  23805634.702    -7674318.334 8  -5968235.20945  23805633.506    23805644.2234
 00  7  5  2 46 30.0000000  0  8 20 22 29 16 01 25 30 06
  21966634.190   -15170959.743 8 -11804012.09247  21966637.717    21966646.2474
  20683749.092   -24898011.865 9 -19370793.90247  20683753.205    20683761.0754
  23417934.266    -7776211.434 8  -6037298.16945  23417937.831    23417947.3614
  23616034.771    -7451545.672 8  -5787347.90145  23616038.107    23616048.7894
  23828297.804    -6242343.976 8  -4846077.25946  23828299.009    23828309.3504
  20883571.229   -22893133.034 9 -17823922.65048  20883573.853    20883581.3514
  24560004.691     -572764.703 7   -432219.40545  24560002.306    24560013.6124
  23804472.206    -7680385.328 8  -5972962.71045  23804479.108    23804488.7734
 00  7  5  2 47  0.0000000  0  7 20 22 29 16 01 25 06
  21965082.371   -15179114.479 9 -11810366.41047  21965086.429    21965093.9644
  20670739.025   -24966393.927 9 -19424078.57947  20670740.741    20670748.2524
  23435307.985    -7684930.243 8  -5966170.11145  23435308.054    23435316.9234
  23603486.180    -7517503.952 8  -5838743.85945  23603485.727    23603498.1424
  23810379.868    -6336486.624 8  -4919435.03346  23810383.514    23810395.5284
  20888476.541   -22867354.413 9 -17803835.40948  20888479.274    20888486.9814
  23803414.669    -7685952.315 8  -5977300.59045  23803418.784    23803428.5374
 00  7  5  2 47 30.0000000  0  7 20 22 29 16 01 25 06
  21963644.870   -15186665.164 8 -11816250.03947  21963648.687    21963657.3704
  20657819.684   -25034282.992 9 -19476979.09747  20657821.605    20657829.8444
  23452713.787    -7593430.036 8  -5894871.40045  23452719.029    23452730.1464
  23591024.932    -7582998.219 8  -5889778.21546  23591022.871    23591034.9894
  23792481.853    -6430579.193 8  -4992753.77245  23792476.741    23792489.7304
  20893419.980   -22841371.398 9 -17783588.89448  20893423.631    20893431.2084
  23802454.628    -7691018.192 8  -5981248.00245  23802455.393    23802465.7474
 00  7  5  2 48  0.0000000  0  7 20 22 29 16 01 25 06
  21962325.949   -15193611.644 8 -11821662.86747  21962326.857    21962335.2664
  20644993.637   -25101677.788 9 -19529494.46947  20644996.659    20645004.9314
  23470176.489    -7501712.014 8  -5823402.95845  23470173.727    23470182.1964
  23578641.988    -7648026.429 8  -5940449.44545  23578647.948    23578658.7624
  23774577.016    -6524619.872 8  -5066032.06945  23774583.219    23774593.9524
  20898403.798   -22815184.385 9 -17763183.42048  20898406.978    20898414.5134
  23801578.358    -7695582.281 8  -5984804.40145  23801586.693    23801598.5574
 00  7  5  2 48 30.0000000  0  7 20 22 29 16 01 25 06
  21961121.055   -15199953.841 9 -11826604.82647  21961120.979    21961128.6554
  20632263.210   -25168577.220 9 -19581623.84947  20632266.198    20632274.2264
  23487663.265    -7409777.545 8  -5751765.87245  23487667.359    23487677.3254
  23566365.162    -7712586.437 8  -5990755.85945  23566362.886    23566374.5674
  23756687.648    -6618607.164 8  -5139268.81546  23756697.775    23756709.3094
  20903425.623   -22788793.624 9 -17742619.17248  20903429.377    20903436.4514
  23800812.274    -7699643.976 8  -5987969.33945  23800814.731    23800824.4844
 00  7  5  2 49  0.0000000  0  7 20 22 29 16 01 25 06
  21960025.389   -15205691.837 8 -11831075.96747  21960027.837    21960036.5424
  20619626.961   -25234979.416 9 -19633365.76248  20619630.482    20619638.2364
  23505205.058    -7317627.587 8  -5679960.80345  23505203.876    23505212.9804
  23554163.970    -7776675.786 8  -6040695.51046  23554166.836    23554178.7094
  23738824.330    -6712539.255 8  -5212462.53445  23738823.010    23738833.5724
  20908487.484   -22762199.759 9 -17721896.65348  20908490.204    20908497.0434
  23800133.479    -7703202.550 8  -5990742.23545  23800136.689    23800147.1524
 00  7  5  2 49 30.0000000  0  7 20 22 29 16 01 25 06
  21959049.136   -15210825.478 8 -11835076.20047  21959051.593    21959058.2774
  20607088.433   -25300882.484 9 -19684718.76448  20607089.565    20607096.9594
  23522770.093    -7225263.325 8  -5607988.77745  23522779.326    23522790.0384
  23542058.434    -7840292.563 8  -6090266.96946  23542061.153    23542072.3314
  23720952.386    -6806414.360 8  -5285611.86846  23720959.112    23720969.8684
  20913585.052   -22735402.942 9 -17701015.97748  20913589.265    20913596.3294
  23799551.202    -7706257.218 8  -5993122.49745  23799554.865    23799566.1104
 00  7  5  2 50  0.0000000  0  7 20 22 29 16 01 25 06
  21958187.990   -15215355.004 9 -11838605.68247  21958190.056    21958197.7914
  20594641.733   -25366285.119 9 -19735681.81248  20594643.637    20594651.3964
  23540399.043    -7132685.914 8  -5535850.67345  23540396.507    23540406.8334
  23530044.626    -7903435.069 8  -6139468.81146  23530045.659    23530056.5214
  23703096.889    -6900230.819 8  -5358715.53146  23703106.051    23703117.6514
  20918724.727   -22708403.604 9 -17679977.50748  20918727.103    20918733.5974
  23799066.576    -7708807.238 8  -5995109.46845  23799069.365    23799080.5704
 00  7  5  2 50 30.0000000  0  7 20 22 29 16 01 25 06
  21957441.653   -15219280.582 9 -11841664.54347  21957443.152    21957450.4924
  20582291.437   -25431186.054 9 -19786253.92248  20582293.302    20582301.0404
  23558049.030    -7039896.606 8  -5463547.42745  23558054.092    23558064.1724
  23518118.192    -7966100.321 8  -6188298.79746  23518122.179    23518131.8464
  23685258.977    -6993987.050 8  -5431772.19546  23685265.244    23685276.7324
  20923897.257   -22681201.984 9 -17658781.42948  20923903.030    20923910.0464
  23798681.572    -7710852.007 8  -5996702.79245  23798681.714    23798692.2844
 00  7  5  2 51  0.0000000  0  7 20 22 29 16 01 25 06
  21956806.305   -15222602.321 8 -11844252.90647  21956810.603    21956818.7864
  20570038.752   -25495584.201 9 -19836434.25848  20570038.871    20570046.5954
  23575741.597    -6946896.544 7  -5391079.97945  23575750.204    23575760.0524
  23506286.893    -8028287.115 8  -6236755.96746  23506286.706    23506298.3794
  23667437.509    -7087681.327 8  -5504780.62146  23667434.423    23667446.3394
  20929114.065   -22653798.399 9 -17637427.99048  20929117.619    20929124.9614
  23798382.080    -7712390.941 8  -5997901.93545  23798389.261    23798398.7814
 00  7  5  2 51 30.0000000  0  7 20 22 29 16 01 25 06
  21956291.002   -15225320.265 9 -11846370.76947  21956293.471    21956301.5344
  20557876.281   -25559477.799 9 -19886221.43048  20557880.043    20557887.8174
  23593494.192    -6853686.883 8  -5318449.18045  23593488.718    23593498.1814
  23494542.393    -8089992.943 8  -6284838.34946  23494544.099    23494556.0404
  23649614.078    -7181311.895 8  -5577739.37946  23649618.289    23649629.7114
  20934367.561   -22626192.988 9 -17615917.27748  20934370.865    20934378.0314
  23798188.553    -7713423.135 8  -5998706.24745  23798191.956    23798202.0434
 00  7  5  2 52  0.0000000  0  7 20 22 29 16 01 25 06
  21955889.971   -15227434.603 9 -11848018.30147  21955890.753    21955899.0384
  20545816.153   -25622865.154 9 -19935614.13348  20545818.078    20545825.5924
  23611261.496    -6760269.030 7  -5245656.19245  23611265.604    23611275.9464
  23482892.879    -8151216.171 8  -6332544.68646  23482895.112    23482906.2094
  23631810.885    -7274877.189 8  -5650647.30646  23631813.513    23631823.8744
  20939658.535   -22598386.253 9 -17594249.70548  20939662.100    20939669.6114
  23798091.705    -7713948.169 8  -5999115.35745  23798091.901    23798101.0784
 00  7  5  2 52 30.0000000  0  7 20 22 29 16 01 25 06
  21955599.724   -15228945.616 8 -11849195.70547  21955603.090    21955611.2914
  20533849.535   -25685744.940 9 -19984611.32648  20533852.146    20533860.2104
  23629071.368    -6666643.907 8  -5172701.64745  23629081.567    23629092.2574
  23471332.964    -8211954.546 8  -6379873.22546  23471336.165    23471346.7154
  23614017.975    -7368375.439 8  -5723502.95946  23614020.230    23614031.5474
  20944989.476   -22570378.767 9 -17572425.70548  20944992.069    20944999.0214
  23798086.922    -7713965.380 8  -5999128.72445  23798088.705    23798097.5114
 00  7  5  2 53  0.0000000  0  7 20 22 29 16 01 25 06
  21955428.645   -15229853.573 8 -11849903.18847  21955430.177    21955438.6984
  20521980.369   -25748116.269 9 -20033212.31848  20521983.538    20521991.3604
  23646931.224    -6572812.910 7  -5099586.70145  23646936.651    23646948.5854
  23459869.070    -8272206.060 8  -6426822.37646  23459870.924    23459880.4334
  23596240.113    -7461804.900 8  -5796305.01445  23596241.773    23596250.7694
  20950355.224   -22542170.478 9 -17550445.23648  20950359.950    20950366.9354
  23798178.536    -7713473.990 8  -5998745.78545  23798182.484    23798191.4964
 00  7  5  2 53 30.0000000  0  7 20 22 29 16 01 25 06
  21955368.750   -15230158.660 8 -11850140.89547  21955371.927    21955380.8954
  20510208.422   -25809977.756 9 -20081416.03548  20510211.437    20510219.3084
  23664835.420    -6478777.262 8  -5026312.29745  23664831.797    23664842.2534
  23448491.169    -8331968.745 8  -6473390.62846  23448496.931    23448509.5754
  23578475.561    -7555163.770 8  -5869052.08446  23578476.450    23578486.2364
  20955763.166   -22513761.505 9 -17528308.39448  20955765.843    20955773.4614
  23798367.753    -7712473.611 8  -5997966.25545  23798372.487    23798382.7394
 00  7  5  2 54  0.0000000  0  7 20 22 29 16 01 25 06
  21955426.062   -15229861.220 8 -11849909.11647  21955428.769    21955437.0794
  20498535.073   -25871327.802 9 -20129221.21948  20498536.782    20498544.5784
  23682754.243    -6384538.201 7  -4952879.34445  23682764.921    23682776.6914
  23437215.274    -8391240.750 8  -6519576.52546  23437219.165    23437230.1524
  23560718.417    -7648450.405 8  -5941742.87246  23560723.767    23560735.6924
  20961206.909   -22485152.446 9 -17506015.63648  20961210.399    20961217.3824
  23798661.003    -7710963.700 8  -5996789.69345  23798659.599    23798670.6894
 00  7  5  2 54 30.0000000  0  7 20 22 29 16 01 25 06
  21955597.450   -15228961.526 8 -11849208.04147  21955600.148    21955609.0404
  20486955.719   -25932164.813 9 -20176626.64848  20486959.782    20486967.5504
  23700727.803    -6290096.971 7  -4879288.92545  23700736.109    23700748.8104
  23426031.025    -8450019.953 8  -6565378.40246  23426032.873    23426043.5234
  23542985.867    -7741663.047 8  -6014375.92946  23542986.174    23542996.2304
  20966688.783   -22456343.339 9 -17483566.97248  20966692.937    20966699.4014
  23799040.172    -7708943.717 8  -5995215.63445  23799044.191    23799055.3044
 00  7  5  2 55  0.0000000  0  7 20 22 29 16 01 25 06
  21955882.797   -15227459.826 8 -11848037.87347  21955885.630    21955894.6874
  20475478.635   -25992487.740 9 -20223631.47748  20475480.554    20475488.8224
  23718744.122    -6195454.854 7  -4805541.99845  23718745.903    23718755.8494
  23414939.015    -8508304.280 8  -6610794.68546  23414941.976    23414953.2064
  23525263.184    -7834799.844 8  -6086949.98846  23525263.626    23525273.2364
  20972210.034   -22427334.861 9 -17460962.96248  20972212.751    20972219.3894
  23799523.349    -7706413.145 8  -5993243.75745  23799525.615    23799537.0994
 00  7  5  2 55 30.0000000  0  7 20 22 29 16 01 25 06
  21956284.009   -15225356.441 9 -11846398.86547  21956286.074    21956294.2984
  20464097.150   -26052295.758 9 -20270235.07848  20464099.806    20464107.6784
  23736789.573    -6100612.889 7  -4731639.22345  23736793.411    23736806.3794
  23403939.851    -8566092.262 8  -6655824.19146  23403945.261    23403956.5404
  23507551.493    -7927858.768 8  -6159463.29746  23507554.301    23507564.5324
  20977768.539   -22398127.120 9 -17438203.68148  20977770.678    20977777.3764
  23800101.106    -7703371.581 8  -5990873.68645  23800104.819    23800114.9324
 00  7  5  2 56  0.0000000  0  7 20 22 29 16 01 25 06
  21956800.464   -15222651.945 9 -11844291.43947  21956800.984    21956808.1594
  20452816.407   -26111587.498 9 -20316436.39948  20452816.915    20452824.3724
  23754879.963    -6005572.555 7  -4657582.02545  23754879.732    23754892.5034
  23393043.002    -8623381.720 8  -6700465.24146  23393043.968    23393055.7034
  23489855.058    -8020838.393 8  -6231914.78746  23489860.762    23489870.7194
  20983363.556   -22368720.416 9 -17415289.36548  20983366.602    20983373.6234
  23800781.753    -7699818.645 8  -5988105.13145  23800781.778    23800791.0764
 00  7  5  2 56 30.0000000  0  7 20 22 29 16 01 25 06
  21957424.479   -15219346.448 8 -11841715.70747  21957429.580    21957437.8734
  20441628.150   -26170361.350 9 -20362234.16148  20441632.039    20441640.0584
  23772999.913    -5910334.859 7  -4583370.98045  23773003.292    23773014.8814
  23382234.829    -8680170.892 8  -6744716.44846  23382236.212    23382247.7474
  23472174.978    -8113736.694 8  -6304302.99946  23472182.697    23472193.4434
  20988995.490   -22339114.832 9 -17392220.09348  20988999.813    20989007.4794
  23801555.711    -7695753.947 8  -5984937.81845  23801554.327    23801563.5004
 00  7  5  2 57  0.0000000  0  7 20 22 29 16 01 25 06
  21958170.922   -15215440.684 8 -11838672.24447  21958173.011    21958181.1704
  20430545.193   -26228616.064 9 -20407627.40248  20430546.915    20430554.4274
  23791164.834    -5814901.435 7  -4509007.40245  23791162.117    23791174.3994
  23371524.265    -8736457.744 8  -6788576.22046  23371526.071    23371536.8024
  23454517.682    -8206552.145 8  -6376626.57146  23454520.058    23454529.6794
  20994667.697   -22309310.862 9 -17368996.21947  20994670.918    20994678.7974
  23802422.087    -7691176.891 8  -5981371.26945  23802425.751    23802435.4214
 00  7  5  2 57 30.0000000  0  7 20 22 29 16 01 25 06
  21959028.972   -15210935.253 8 -11835161.50847  21959030.309    21959038.6974
  20419558.691   -26286350.558 9 -20452615.27748  20419560.423    20419568.0394
  23809356.151    -5719273.315 7  -4434492.13445  23809361.194    23809373.6714
  23360905.798    -8792240.763 8  -6832043.44146  23360910.982    23360920.8254
  23436873.071    -8299282.651 8  -6448883.99946  23436874.709    23436884.6164
  21000376.989   -22279308.912 9 -17345618.07247  21000380.165    21000387.9154
  23803390.287    -7686087.180 8  -5977405.21245  23803393.343    23803404.1994
 00  7  5  2 58  0.0000000  0  7 20 22 29 16 01 25 06
  21959997.226   -15205830.541 8 -11831183.79847  21960001.117    21960010.1614
  20408671.656   -26343564.032 9 -20497197.15948  20408672.561    20408680.8204
  23827584.209    -5623451.994 7  -4359826.35245  23827595.729    23827605.4814
  23350386.131    -8847517.619 8  -6875116.19446  23350391.325    23350402.4464
  23419244.761    -8391926.509 8  -6521073.85046  23419244.798    23419255.6964
  21006121.637   -22249109.008 9 -17322085.70547  21006127.097    21006134.8684
  23804460.580    -7680484.541 8  -5973039.50745  23804460.377    23804470.2734
 00  7  5  2 58 30.0000000  0  7 20 22 29 16 01 25 06
  21961080.806   -15200127.093 8 -11826739.54347  21961087.253    21961095.3944
  20397882.775   -26400255.309 9 -20541372.13548  20397885.022    20397892.5164
  23845865.814    -5527438.429 8  -4285010.71245  23845867.188    23845877.7194
  23339965.920    -8902286.919 8  -6917793.46946  23339968.598    23339979.8164
  23401631.515    -8484481.927 8  -6593194.83946  23401631.416    23401641.6034
  21011909.334   -22218711.409 9 -17298399.27747  21011911.892    21011919.2454
  23805618.574    -7674368.694 8  -5968273.87146  23805623.469    23805634.5644
 00  7  5  2 59  0.0000000  0  7 20 22 29 16 01 25 06
  21962281.460   -15193825.325 8 -11821829.05147  21962286.820    21962294.6004
  20387195.452   -26456422.863 9 -20585139.01948  20387196.298    20387204.1084
  23864176.586    -5431234.204 8  -4210046.56845  23864175.512    23864185.3174
  23329646.163    -8956546.657 8  -6960073.71246  23329644.594    23329654.4624
  23384033.836    -8576946.931 8  -6665245.36046  23384037.006    23384046.4934
  21017731.518   -22188116.340 9 -17274558.96447  21017734.351    21017741.2934
  23806881.557    -7667739.184 8  -5963107.98745  23806885.407    23806895.8254
 00  7  5  2 59 30.0000000  0  7 20 22 29 16 01 25 06
  21963597.064   -15186925.741 9 -11816452.72847  21963599.327    21963606.9524
  20376605.314   -26512065.363 9 -20628496.76448  20376607.898    20376615.9844
  23882515.254    -5334840.585 7  -4134934.83445  23882515.831    23882528.4134
  23319415.639    -9010295.096 8  -7001955.49946  23319415.296    23319427.1594
  23366463.537    -8669319.828 8  -6737224.09646  23366457.843    23366468.1714
  21023591.189   -22157324.084 9 -17250564.98947  21023593.943    21023601.0114
  23808243.603    -7660595.537 8  -5957541.50145  23808243.312    23808255.2174
 00  7  5  3  0  0.0000000  0  7 20 22 29 16 01 25 06
  21965024.904   -15179428.850 9 -11810610.96847  21965026.560    21965033.7434
  20366118.747   -26567182.045 9 -20671444.78848  20366119.836    20366127.8414
  23900891.373    -5238258.956 7  -4059676.57245  23900895.586    23900906.3114
  23309285.106    -9063530.506 8  -7043437.52146  23309285.765    23309294.9854
  23348894.031    -8761598.712 8  -6809129.57946  23348897.914    23348907.2944
  21029488.199   -22126334.772 9 -17226417.46047  21029490.870    21029497.7224
  23809699.990    -7652937.507 8  -5951574.16045  23809701.929    23809713.1714
 00  7  5  3  0 30.0000000  0  7 20 22 29 16 01 25 06
  21966562.790   -15171335.523 9 -11804304.46747  21966566.154    21966574.3284
  20355728.583   -26621772.276 9 -20713982.58448  20355731.317    20355739.4664
  23919308.499    -5141490.468 7  -3984272.71545  23919309.467    23919322.5474
  23299246.692    -9116251.193 8  -7084518.48446  23299252.735    23299262.5394
  23331349.323    -8853781.754 8  -6880960.40446  23331355.438    23331366.4404
  21035421.399   -22095148.970 9 -17202116.84147  21035425.082    21035432.2154
  23811253.829    -7644764.856 8  -5945205.82145  23811256.926    23811268.5304
 00  7  5  3  1  0.0000000  0  7 20 22 29 16 01 25 06
  21968216.866   -15162646.408 9 -11797533.70647  21968219.653    21968227.2944
  20345440.637   -26675834.701 9 -20756109.09848  20345443.869    20345451.7624
  23937749.736    -5044536.692 7  -3908724.57245  23937760.046    23937772.0074
  23289316.354    -9168455.319 8  -7125196.92546  23289318.815    23289327.5204
  23313832.222    -8945867.066 8  -6952715.03746  23313832.235    23313842.2524
  21041392.457   -22063766.532 9 -17177662.99547  21041396.871    21041404.0764
  23812906.295    -7636077.536 8  -5938436.44745  23812910.441    23812920.5054
 00  7  5  3  1 30.0000000  0  7 20 22 29 16 01 25 06
  21969983.354   -15153362.087 9 -11790299.15147  21969986.351    21969993.8104
  20335254.905   -26729368.007 9 -20797823.32648  20335256.810    20335264.5344
  23956248.246    -4947398.556 7  -3833032.69845  23956245.005    23956255.8584
  23279479.798    -9220141.333 8  -7165471.64046  23279482.632    23279493.6484
  23296316.620    -9037852.720 8  -7024392.02746  23296327.262    23296338.8934
  21047402.072   -22032187.948 9 -17153056.30447  21047406.153    21047413.6874
  23814657.601    -7626875.290 8  -5931265.82745  23814661.523    23814672.6134
 00  7  5  3  2  0.0000000  0  7 20 22 29 16 01 25 06
  21971863.876   -15143483.383 8 -11782601.44747  21971866.209    21971873.6204
  20325166.587   -26782371.006 9 -20839124.32448  20325170.524    20325178.0764
  23974761.641    -4850077.655 7  -3757198.42245  23974765.278    23974776.2024
  23269748.038    -9271307.300 8  -7205341.12346  23269746.279    23269757.0844
  23278842.072    -9129736.802 8  -7095989.87146  23278842.636    23278852.8814
  21053451.432   -22000413.239 9 -17128296.79947  21053452.767    21053460.2854
  23816510.711    -7617157.920 8  -5923693.82945  23816511.086    23816520.6434
 00  7  5  3  2 30.0000000  0  7 20 22 29 16 01 25 06
  21973858.050   -15133011.133 9 -11774441.23247  21973858.798    21973866.7974
  20315183.034   -26834843.168 9 -20880011.68348  20315185.170    20315193.2654
  23993311.789    -4752575.357 7  -3681222.78845  23993318.522    23993329.2884
  23260104.564    -9321951.855 8  -7244804.29246  23260108.198    23260119.4164
  23261376.941    -9221517.601 8  -7167507.22146  23261378.383    23261387.9434
  21059534.121   -21968443.040 9 -17103384.95747  21059536.597    21059543.8984
  23818455.067    -7606925.069 8  -5915720.14445  23818457.749    23818467.0744
 00  7  5  3  3  0.0000000  0  7 20 22 29 16 01 25 06
  21975960.897   -15121945.957 8 -11765818.99747  21975964.502    21975971.9674
  20305298.964   -26886783.739 9 -20920484.80648  20305301.177    20305309.4434
  24011903.705    -4654893.015 7  -3605106.92545  24011905.120    24011917.0504
  23250565.072    -9372073.248 8  -7283859.84446  23250570.966    23250581.7184
  23243927.151    -9313193.099 8  -7238942.52946  23243932.011    23243941.6614
  21065655.674   -21936277.407 9 -17078320.82647  21065658.179    21065664.6944
  23820504.699    -7596176.815 8  -5907344.83245  23820502.497    23820512.9224
 00  7  5  3  3 30.0000000  0  7 20 22 29 16 01 25 06
  21978182.836   -15110288.660 9 -11756735.35647  21978182.973    21978190.7674
  20295514.920   -26938191.466 9 -20960542.73448  20295518.525    20295526.3304
  24030522.973    -4557031.920 7  -3528851.73845  24030529.761    24030541.2904
  23241134.512    -9421669.808 8  -7322506.39946  23241133.395    23241144.2874
  23226510.448    -9404761.428 8  -7310294.34446  23226507.817    23226517.1634
  21071812.196   -21903916.536 9 -17053104.56147  21071816.161    21071822.9774
  23822639.662    -7584913.200 8  -5898567.94145  23822646.487    23822656.1684
 00  7  5  3  4  0.0000000  0  7 20 22 29 16 01 25 06
  21980508.493   -15098039.831 8 -11747190.78747  21980513.246    21980522.0514
  20285836.373   -26989065.175 9 -21000184.54148  20285837.727    20285845.4004
  24049181.244    -4458993.516 7  -3452458.38845  24049185.940    24049198.3244
  23231791.460    -9470739.910 8  -7360742.73046  23231795.313    23231806.6024
  23209101.543    -9496220.690 8  -7381561.16246  23209103.285    23209111.8844
  21078008.149   -21871360.426 9 -17027736.15747  21078011.380    21078018.3624
  23824883.754    -7573134.061 8  -5889389.36345  23824887.893    23824897.3244
 00  7  5  3  4 30.0000000  0  7 20 22 29 16 01 25 06
  21982954.726   -15085200.451 8 -11737186.05347  21982956.430    21982965.3604
  20276259.088   -27039403.876 9 -21039409.46248  20276258.767    20276266.3324
  24067873.229    -4360779.177 7  -3375927.92445  24067876.235    24067887.8914
  23222554.917    -9519281.645 8  -7398567.37346  23222558.231    23222569.2594
  23191715.155    -9587568.877 8  -7452741.44446  23191720.564    23191729.7944
  21084240.806   -21838609.264 9 -17002215.76147  21084243.805    21084250.5714
  23827220.106    -7560839.271 8  -5879808.98045  23827227.439    23827237.9024
 00  7  5  3  5  0.0000000  0  7 20 22 29 16 01 25 06
  21985512.242   -15071771.407 8 -11726721.84147  21985512.048    21985519.9104
  20266780.390   -27089207.051 9 -21078217.09548  20266781.423    20266789.1234
  24086601.743    -4262390.397 7  -3299261.52745  24086596.663    24086612.2634
  23213417.580    -9567294.095 8  -7435979.57846  23213421.508    23213432.6044
  23174358.509    -9678804.135 8  -7523833.71446  23174359.093    23174367.5174
  21090510.494   -21805663.473 9 -16976543.69947  21090512.680    21090519.7154
  23829662.358    -7548028.666 8  -5869826.66045  23829666.177    23829674.2874
 00  7  5  3  5 30.0000000  0  7 20 22 29 16 01 25 06
  21988179.331   -15057753.798 9 -11715798.99647  21988179.712    21988187.0514
  20257406.158   -27138474.135 9 -21116606.99048  20257406.124    20257413.8204
  24105357.725    -4163828.314 7  -3222460.12745  24105357.320    24105366.9134
  23204383.980    -9614775.242 8  -7472977.76446  23204385.960    23204396.6074
  23157014.353    -9769924.216 8  -7594836.25746  23157019.100    23157028.4664
  21096815.563   -21772523.165 9 -16950720.06247  21096818.736    21096826.0624
  23832195.876    -7534702.271 8  -5859442.41345  23832201.203    23832210.3504
 00  7  5  3  6  0.0000000  0  7 20 22 29 16 01 25 06
  21990955.195   -15043148.427 9 -11704418.17047  21990959.187    21990967.4314
  20248130.222   -27187203.752 9 -21154578.07848  20248133.108    20248140.9024
  24124140.692    -4065094.414 7  -3145524.78245  24124143.706    24124154.8124
  23195453.525    -9661723.777 8  -7509560.92846  23195452.488    23195462.2104
  23139699.301    -9860927.251 8  -7665747.57646  23139701.941    23139710.1624
  21103159.024   -21739188.564 9 -16924745.03447  21103161.952    21103169.5234
  23834835.431    -7520860.137 8  -5848656.31545  23834835.729    23834844.3414
 00  7  5  3  6 30.0000000  0  7 20 22 29 16 01 25 06
  21993847.403   -15027956.011 8 -11692579.89947  21993849.775    21993857.8634
  20238961.356   -27235394.916 9 -21192129.58948  20238962.786    20238970.3764
  24142968.030    -3966190.095 7  -3068456.77745  24142964.831    24142976.9004
  23186615.539    -9708137.933 8  -7545727.72146  23186620.037    23186630.2264
  23122403.076    -9951811.590 8  -7736566.41846  23122406.945    23122416.0824
  21109537.087   -21705659.955 9 -16898618.83547  21109542.297    21109549.5634
  23837567.482    -7506502.209 8  -5837468.29545  23837566.633    23837576.1184
 00  7  5  3  7  0.0000000  0  7 20 22 29 16 01 25 06
  21996847.540   -15012177.860 8 -11680285.22147  21996852.055    21996860.6984
  20229894.398   -27283046.856 9 -21229260.93348  20229894.846    20229902.5024
  24161822.129    -3867116.898 7  -2991257.08945  24161817.835    24161828.2024
  23177886.536    -9754016.379 8  -7581477.04146  23177888.075    23177899.5104
  23105130.165   -10042575.120 8  -7807291.11746  23105134.597    23105144.2354
  21115958.017   -21671937.258 9 -16872341.40047  21115960.025    21115966.7304
  23840393.133    -7491628.596 8  -5825878.44845  23840397.569    23840406.9484
 00  7  5  3  7 30.0000000  0  7 20 22 29 16 01 25 06
  21999964.364   -14995814.819 9 -11667534.78247  21999966.750    21999974.2344
  20220926.620   -27330159.286 9 -21265971.88048  20220929.400    20220937.1914
  24180685.811    -3767876.050 7  -2913926.73445  24180701.114    24180715.0444
  23169259.609    -9799357.627 8  -7616807.81546  23169261.277    23169270.2234
  23087881.617   -10133215.910 8  -7877920.17446  23087886.084    23087895.7234
  21122410.657   -21638021.321 9 -16845913.39247  21122413.695    21122420.7634
  23843322.207    -7476239.213 8  -5813886.72445  23843325.548    23843335.2504
 00  7  5  3  8  0.0000000  0  7 20 22 29 16 01 25 06
  22003191.706   -14978867.922 9 -11654329.38647  22003191.111    22003198.8204
  20212065.635   -27376731.440 9 -21302261.82848  20212067.341    20212074.8564
  24199616.632    -3668469.001 7  -2836466.94845  24199619.999    24199631.4214
  23160734.322    -9844160.332 8  -7651718.94446  23160734.818    23160745.8334
  23070661.779   -10223731.992 8  -7948452.07246  23070660.422    23070671.3554
  21128900.252   -21603911.891 9 -16819334.60947  21128904.640    21128911.7804
  23846354.214    -7460334.145 8  -5801493.14045  23846352.758    23846362.2584
 00  7  5  3  8 30.0000000  0  7 20 22 29 16 01 25 06
  22006522.458   -14961338.048 8 -11640669.73947  22006526.224    22006534.7064
  20203305.677   -27422762.199 9 -21338129.91348  20203308.019    20203315.3594
  24218562.567    -3568897.268 7  -2758878.78945  24218566.596    24218578.4074
  23152307.130    -9888422.915 8  -7686209.15846  23152312.157    23152322.5194
  23053460.694   -10314121.287 8  -8018885.14546  23053461.150    23053471.2194
  21135430.724   -21569609.174 9 -16792605.20947  21135432.127    21135439.2534
  23849469.399    -7443913.489 8  -5788697.78345  23849477.790    23849487.7144
 00  7  5  3  9  0.0000000  0  7 20 22 29 16 01 25 06
  22009971.823   -14943226.391 8 -11626556.73647  22009972.766    22009981.3904
  20194650.528   -27468250.614 9 -21373575.40048  20194651.696    20194659.1244
  24237545.237    -3469162.321 7  -2681163.45145  24237546.720    24237558.7214
  23143991.588    -9932144.079 8  -7720277.50346  23143992.148    23144002.0214
  23036280.377   -10404381.814 8  -8089217.89046  23036284.247    23036294.4354
  21141992.227   -21535113.386 9 -16765725.37047  21141996.151    21142003.6404
  23852696.023    -7426977.389 8  -5775500.81545  23852699.846    23852710.6804
 00  7  5  3  9 30.0000000  0  7 20 22 29 16 01 25 06
  22013528.531   -14924534.309 8 -11611991.46347  22013530.355    22013538.3054
  20186096.857   -27513196.168 9 -21408597.87548  20186099.002    20186106.0034
  24256555.598    -3369265.569 7  -2603322.03345  24256558.041    24256569.0014
  23135772.476    -9975322.178 8  -7753922.71646  23135775.952    23135785.5374
  23019131.382   -10494511.661 8  -8159448.82646  23019133.622    23019142.6114
  21148593.474   -21500424.453 9 -16738695.03247  21148597.099    21148604.8884
  23856012.656    -7409525.918 8  -5761902.22145  23856021.300    23856031.2414
 00  7  5  3 10  0.0000000  0  7 20 22 29 16 01 25 06
  22017194.205   -14905262.651 8 -11596974.57447  22017197.255    22017205.2534
  20177645.648   -27557598.584 9 -21443197.12748  20177649.052    20177656.4464
  24275601.554    -3269208.197 7  -2525355.48445  24275598.148    24275608.8824
  23127663.445   -10017955.928 8  -7787143.72146  23127663.295    23127672.9444
  23002005.936   -10584508.830 8  -8229576.36146  23002007.952    23002017.2204
  21155230.174   -21465543.011 9 -16711514.69347  21155234.567    21155242.3644
  23859441.882    -7391559.469 8  -5747902.37345  23859440.464    23859450.4454
 00  7  5  3 10 30.0000000  0  7 20 22 29 16 01 25 06
  22020971.733   -14885412.583 8 -11581506.99047  22020975.001    22020982.7924
  20169301.436   -27601457.065 9 -21477372.52748  20169302.942    20169310.7214
  24294668.743    -3168991.990 7  -2447265.10445  24294668.130    24294678.3114
  23119652.372   -10060044.293 8  -7819939.77346  23119653.243    23119663.9254
  22984904.598   -10674371.311 8  -8299598.95946  22984907.353    22984916.3474
  21161905.288   -21430469.019 9 -16684184.32147  21161908.952    21161916.5774
  23862953.556    -7373078.087 8  -5733501.27645  23862957.007    23862966.8694
 00  7  5  3 11  0.0000000  0  7 20 22 29 16 01 25 06
  22024862.422   -14864985.029 9 -11565589.39247  22024862.331    22024870.8294
  20161059.039   -27644770.670 9 -21511123.35248  20161060.871    20161068.1954
  24313770.276    -3068618.245 7  -2369052.03045  24313769.529    24313780.8434
  23111745.087   -10101585.726 8  -7852309.64046  23111748.474    23111758.9324
  22967826.367   -10764097.000 8  -8369514.97646  22967832.839    22967841.9074
  21168616.375   -21395202.377 9 -16656703.82947  21168620.526    21168627.3554
  23866567.145    -7354082.048 8  -5718699.14145  23866570.666    23866581.7034
 00  7  5  3 11 30.0000000  0  7 20 22 29 16 01 25 06
  22028857.790   -14843981.633 9 -11549223.10347  22028858.991    22028866.9444
  20152920.300   -27687538.591 9 -21544448.97548  20152922.439    20152929.7874
  24332902.092    -2968088.511 7  -2290717.41145  24332899.117    24332910.7244
  23103941.388   -10142578.802 8  -7884252.22646  23103946.306    23103957.3324
  22950782.624   -10853683.964 8  -8439322.88746  22950784.630    22950794.3764
  21175366.495   -21359743.573 9 -16629073.59547  21175368.558    21175374.8944
  23870278.744    -7334571.500 8  -5703496.10645  23870283.821    23870295.0134
 00  7  5  3 12  0.0000000  0  7 20 22 29 16 01 25 06
  22032963.852   -14822403.498 9 -11532408.97147  22032965.430    22032972.8144
  20144885.443   -27729760.372 9 -21577349.03148  20144887.804    20144895.4134
  24352044.335    -2867404.299 7  -2212262.37745  24352059.419    24352070.2954
  23096248.623   -10183022.270 8  -7915766.54646  23096250.997    23096262.0384
  22933763.329   -10943129.982 8  -8509020.96346  22933762.904    22933773.5324
  21182148.947   -21324092.712 9 -16601293.71447  21182152.683    21182159.1324
  23874092.061    -7314546.571 8  -5687892.23745  23874094.414    23874104.2604
 00  7  5  3 12 30.0000000  0  7 20 22 29 16 01 25 06
  22037178.555   -14800251.823 8 -11515147.91947  22037180.761    22037188.8814
  20136953.718   -27771435.922 9 -21609823.44848  20136957.210    20136964.6974
  24371258.546    -2766566.882 7  -2133687.95145  24371247.595    24371261.6264
  23088658.262   -10222915.179 8  -7946851.86546  23088659.549    23088670.0204
  22916765.451   -11032433.130 8  -8578607.72946  22916770.308    22916778.7564
  21188970.216   -21288249.597 9 -16573364.01547  21188973.650    21188979.8804
  23878002.031    -7294007.802 8  -5671888.00445  23878003.676    23878013.1574
 00  7  5  3 13  0.0000000  0  6 20 22 16 01 25 06
  22041503.104   -14777528.023 8 -11497441.05447  22041504.462    22041513.1124
  20129128.492   -27812564.567 9 -21641871.70648  20129130.701    20129137.9764
  23081173.331   -10262255.853 8  -7977506.85146  23081174.488    23081183.8934
  22899801.667   -11121591.208 8  -8648081.44746  22899803.874    22899812.7604
  21195826.609   -21252214.729 9 -16545284.90547  21195830.724    21195837.3584
  23882003.876    -7272955.408 8  -5655483.50545  23882009.482    23882020.1154
 00  7  5  3 13 30.0000000  0  6 20 22 16 01 25 06
  22045936.339   -14754233.309 9 -11479289.33247  22045937.498    22045945.6234
  20121405.753   -27853145.355 9 -21673493.06548  20121408.276    20121415.6794
  23073789.971   -10301043.145 8  -8007730.65746  23073792.760    23073803.5384
  22882863.215   -11210602.333 8  -8717440.68046  22882865.221    22882873.8414
  21202720.028   -21215988.198 9 -16517056.42647  21202724.068    21202731.1944
  23886107.009    -7251389.625 8  -5638678.99245  23886113.650    23886123.5764
 00  7  5  3 14  0.0000000  0  7 03 20 22 16 01 25 06
  24687681.098    -1544357.86217  -1185078.70255  24687685.034    24687695.9894
  22050475.316   -14730368.804 8 -11460693.61447  22050478.834    22050486.6484
  20113786.868   -27893177.723 9 -21704687.08348  20113790.273    20113797.9414
  23066517.166   -10339276.241 8  -8037522.59746  23066517.400    23066527.2934
  22865953.379   -11299464.242 8  -8786683.63846  22865955.603    22865964.7214
  21209652.486   -21179570.059 9 -16488678.64847  21209654.112    21209661.5884
  23890313.442    -7229310.912 8  -5621474.77545  23890314.391    23890325.1494
 00  7  5  3 14 30.0000000  0  7 03 20 22 16 01 25 06
  24668112.422    -1647231.842 7  -1265240.16345  24668109.703    24668119.6324
  22055126.393   -14705935.838 9 -11441654.93247  22055128.786    22055136.0104
  20106273.377   -27932661.288 9 -21735453.46048  20106276.968    20106284.2514
  23059342.332   -10376953.691 8  -8066881.57746  23059346.138    23059358.2724
  22849073.808   -11388174.853 8  -8855808.69446  22849074.908    22849084.0564
  21216616.278   -21142960.598 9 -16460151.79547  21216620.472    21216627.9184
  23894607.391    -7206719.617 8  -5603871.15545  23894613.696    23894623.6834
 00  7  5  3 15  0.0000000  0  7 03 20 22 16 01 25 06
  24648516.088    -1750171.324 7  -1345452.68245  24648519.927    24648530.8144
  22059884.264   -14680935.792 9 -11422174.36047  22059885.529    22059893.3024
  20098865.970   -27971596.104 9 -21765792.24348  20098867.694    20098875.0594
  23052279.123   -10414074.421 8  -8095806.76146  23052283.376    23052293.1274
  22832219.151   -11476732.253 8  -8924814.35346  22832222.434    22832231.4194
  21223620.293   -21106160.009 9 -16431476.02447  21223623.539    21223630.8074
  23899011.091    -7183616.078 8  -5585868.38345  23899009.801    23899020.1664
 00  7  5  3 15 30.0000000  0  7 03 20 22 16 01 25 06
  24628912.183    -1853173.803 7  -1425714.29445  24628919.571    24628931.5234
  22064745.831   -14655370.261 8 -11402253.17347  22064749.778    22064759.1524
  20091561.144   -28009981.440 9 -21795702.85848  20091563.352    20091570.7424
  23045318.724   -10450637.033 8  -8124297.03746  23045324.776    23045335.1244
  22815399.915   -11565134.419 8  -8993699.08946  22815399.988    22815409.2954
  21230660.001   -21069168.264 9 -16402651.29747  21230663.027    21230670.0264
  23903499.443    -7160000.594 8  -5567466.68345  23903504.174    23903514.2254
 00  7  5  3 16  0.0000000  0  7 03 20 22 16 01 25 06
  24609308.421    -1956236.575 7  -1506022.88545  24609307.014    24609319.0954
  22069720.544   -14629240.674 8 -11381892.44847  22069722.850    22069730.7274
  20084363.059   -28047816.446 9 -21825184.64748  20084363.720    20084370.9874
  23038471.959   -10486640.469 8  -8152351.59046  23038474.779    23038483.9794
  22798600.805   -11653379.247 8  -9062461.18346  22798607.481    22798616.5074
  21237734.780   -21031985.610 9 -16373677.77547  21237738.733    21237745.8184
  23908091.411    -7135873.677 8  -5548666.49145  23908095.241    23908105.3434
 00  7  5  3 16 30.0000000  0  7 03 20 22 16 01 25 06
  24589676.893    -2059357.073 7  -1586376.44845  24589684.268    24589697.2014
  22074799.227   -14602548.550 8 -11361093.38147  22074802.083    22074810.0714
  20077267.341   -28085100.698 9 -21854237.27848  20077268.574    20077276.0434
  23031725.876   -10522083.832 8  -8179969.70746  23031729.898    23031740.0054
  22781838.341   -11741464.622 8  -9131099.04746  22781844.491    22781854.3274
  21244848.769   -20994612.168 9 -16344555.60747  21244850.997    21244857.7904
  23912774.703    -7111235.722 8  -5529468.06945  23912783.138    23912793.2024
 00  7  5  3 17  0.0000000  0  7 03 20 22 16 01 25 06
  24570044.216    -2162532.456 7  -1666772.84845  24570048.819    24570060.7794
  22079984.962   -14575294.951 8 -11339856.82347  22079988.210    22079996.4054
  20070276.230   -28121834.139 9 -21882860.69848  20070278.274    20070285.6844
  23025089.181   -10556966.168 8  -8207150.67946  23025091.833    23025102.0114
  22765109.519   -11829388.310 8  -9199610.93046  22765113.077    22765122.7494
  21251996.820   -20957048.277 9 -16315285.02147  21251999.310    21252006.1504
  23917568.355    -7086087.084 8  -5509871.72145  23917569.563    23917577.9814
 00  7  5  3 17 30.0000000  0  7 03 20 22 16 01 25 06
  24550399.896    -2265760.354 7  -1747210.10644  24550405.641    24550418.1934
  22085275.267   -14547481.701 8 -11318184.15547  22085280.768    22085288.9514
  20063390.634   -28158016.712 9 -21911054.87848  20063392.973    20063400.1494
  23018558.376   -10591286.197 8  -8233893.48146  23018560.678    23018571.3334
  22748410.676   -11917148.158 8  -9267995.11246  22748412.936    22748422.6314
  21259181.909   -20919293.552 9 -16285865.75347  21259183.716    21259190.5524
  23922445.988    -7060428.397 8  -5489877.90845  23922451.955    23922462.3484
 00  7  5  3 18  0.0000000  0  7 03 20 22 16 01 25 06
  24530744.836    -2369037.664 7  -1827685.90544  24530752.586    24530764.6444
  22090677.084   -14519110.361 8 -11296076.61347  22090680.137    22090687.3544
  20056610.608   -28193647.712 9 -21938819.26048  20056612.474    20056619.9614
  23012137.085   -10625042.841 8  -8260197.27946  23012136.833    23012147.7404
  22731740.247   -12004741.988 8  -9336249.95546  22731744.856    22731753.7964
  21266402.435   -20881348.274 9 -16256298.01147  21266404.554    21266411.2164
  23927428.970    -7034260.134 8  -5469487.04845  23927430.950    23927442.0834
 00  7  5  3 18 30.0000000  0  7 03 20 22 16 01 25 06
  24511089.463    -2472361.906 7  -1908198.19944  24511091.341    24511104.5934
  22096183.740   -14490182.432 8 -11273535.35947  22096184.640    22096192.1674
  20049934.604   -28228726.645 9 -21966153.45448  20049937.215    20049944.6944
  23005816.941   -10658235.144 8  -8286061.34746  23005820.089    23005830.3164
  22715104.078   -12092167.809 8  -9404373.89646  22715107.915    22715117.0464
  21273657.384   -20843212.454 9 -16226581.77347  21273661.288    21273668.2884
  23932502.667    -7007582.924 8  -5448699.59945  23932508.412    23932518.0874
 00  7  5  3 19  0.0000000  0  7 03 20 22 16 01 25 06
  24491408.737    -2575730.594 7  -1988745.10645  24491422.195    24491431.8484
  22101791.017   -14460699.179 8 -11250561.39847  22101795.122    22101802.8904
  20043363.150   -28263253.036 9 -21993057.10548  20043367.110    20043374.3624
  22999607.937   -10690862.421 8  -8311485.12846  22999611.703    22999621.0014
  22698500.348   -12179423.467 8  -9472365.22446  22698504.975    22698511.6684
  21280950.870   -20804886.424 9 -16196717.32347  21280954.182    21280961.3274
  23937683.735    -6980397.251 8  -5427515.96345  23937681.633    23937691.7064
 00  7  5  3 19 30.0000000  0  7 03 20 22 16 01 25 06
  24471741.563    -2679140.885 7  -2069324.49445  24471741.633    24471754.2734
  22107506.004   -14430662.420 8 -11227156.12747  22107510.556    22107518.6184
  20036900.165   -28297226.998 9 -22019530.28848  20036902.099    20036909.4454
  22993512.031   -10722923.572 8  -8336467.78746  22993511.318    22993520.8024
  22681930.568   -12266506.898 8  -9540222.37546  22681932.696    22681941.1054
  21288281.397   -20766370.335 9 -16166704.77447  21288283.286    21288290.5184
  23942944.547    -6952703.641 8  -5405936.52645  23942951.079    23942961.3564
 00  7  5  3 20  0.0000000  0  7 03 20 22 16 01 25 06
  24452053.196    -2782589.831 7  -2149933.95945  24452056.391    24452067.8624
  22113329.477   -14400073.657 8 -11203320.72447  22113331.877    22113339.8784
  20030539.374   -28330648.617 9 -22045573.07548  20030542.081    20030549.3704
  22987519.870   -10754417.385 8  -8361008.37346  22987517.969    22987527.5334
  22665388.737   -12353415.868 8  -9607943.54646  22665393.068    22665402.6164
  21295645.394   -20727664.156 9 -16136544.09547  21295648.768    21295655.6894
  23948312.625    -6924502.662 7  -5383961.71945  23948316.998    23948327.4044
 00  7  5  3 20 30.0000000  0  7 03 20 22 16 01 25 06
  24432364.990    -2886075.200 7  -2230571.77745  24432364.099    24432375.6624
  22119256.389   -14368934.709 8 -11179056.60747  22119257.360    22119264.9824
  20024282.891   -28363517.236 9 -22071184.96048  20024287.337    20024294.3564
  22981628.606   -10785343.250 8  -8385106.37546  22981632.443    22981642.2614
  22648886.463   -12440148.243 8  -9675527.10546  22648889.379    22648898.2884
  21303046.653   -20688768.384 9 -16106235.68647  21303050.323    21303057.6354
  23953776.401    -6895794.996 8  -5361592.09845  23953780.551    23953791.1144
 00  7  5  3 21  0.0000000  0  7 03 20 22 16 01 25 06
  24412663.218    -2989594.297 7  -2311235.86245  24412665.490    24412676.2784
  22125284.421   -14337247.163 8 -11154365.00947  22125287.103    22125295.2184
  20018137.148   -28395832.210 9 -22096365.42948  20018138.256    20018145.1514
  22975854.680   -10815700.192 8  -8408761.08046  22975855.221    22975865.4024
  22632419.232   -12526701.897 8  -9742971.42046  22632418.680    22632426.6694
  21310484.441   -20649682.613 9 -16075779.22347  21310488.247    21310495.6694
  23959336.374    -6866581.161 8  -5338828.04645  23959340.180    23959350.6484
 00  7  5  3 21 30.0000000  0  7 03 20 22 16 01 25 06
  24392959.981    -3093144.174 7  -2391923.93845  24392961.369    24392971.7834
  22131420.850   -14305012.779 8 -11129247.30947  22131421.558    22131428.6084
  20012092.685   -28427593.466 9 -22121114.43148  20012094.385    20012101.1664
  22970185.441   -10845487.277 8  -8431971.75646  22970187.992    22970196.8754
  22615981.415   -12613074.605 8  -9810274.73446  22615982.216    22615991.8574
  21317958.229   -20610407.220 9 -16045175.00747  21317962.131    21317969.3024
  23964995.432    -6836861.833 8  -5315670.11545  23964994.951    23965005.9894
 00  7  5  3 22  0.0000000  0  7 03 20 22 16 01 25 06
  24373253.468    -3196722.147 7  -2472633.94545  24373249.831    24373261.3054
  22137658.052   -14272233.141 8 -11103704.72847  22137658.494    22137667.0324
  20006152.631   -28458801.359 9 -22145432.23848  20006155.325    20006162.9674
  22964625.493   -10874703.920 8  -8454737.90446  22964627.597    22964637.9504
  22599581.221   -12699264.179 8  -9877435.35246  22599581.401    22599590.1394
  21325468.137   -20570942.319 9 -16014423.10947  21325471.819    21325479.3964
  23970738.411    -6806637.668 8  -5292118.81045  23970746.565    23970757.2654
 00  7  5  3 22 30.0000000  0  7 03 20 22 16 01 25 06
  24353527.205    -3300325.623 7  -2553363.80145  24353534.171    24353545.1654
  22143995.703   -14238909.871 8 -11077738.55047  22143999.890    22144007.8154
  20000320.151   -28489455.782 9 -22169318.76648  20000322.100    20000329.2624
  22959172.689   -10903349.223 8  -8477058.85746  22959176.320    22959186.7444
  22583212.188   -12785268.419 8  -9944451.56346  22583215.563    22583224.2434
  21333014.393   -20531287.853 9 -15983523.50447  21333017.791    21333024.9524
  23976593.903    -6775909.477 8  -5268174.73945  23976593.597    23976604.2384
 00  7  5  3 23  0.0000000  0  7 03 20 22 16 01 25 06
  24333810.036    -3403951.693 7  -2634111.26245  24333814.474    24333826.7454
  22150444.099   -14205044.846 8 -11051350.21847  22150444.738    22150452.3694
  19994592.317   -28519556.214 9 -22192773.61448  19994594.189    19994601.4984
  22953833.427   -10931422.136 8  -8498933.80046  22953835.748    22953844.8324
  22566876.072   -12871085.170 8 -10011321.68846  22566884.278    22566893.7654
  21340595.622   -20491443.900 9 -15952476.23947  21340599.834    21340607.2254
  23982531.708    -6744677.884 8  -5243838.44045  23982536.823    23982547.8334
 00  7  5  3 23 30.0000000  0  7 03 20 22 16 01 25 06
  24314090.805    -3507597.708 7  -2714874.28045  24314091.322    24314103.7314
  22156991.034   -14170639.603 8 -11024540.95147  22156991.633    22156999.9624
  19988969.056   -28549102.268 9 -22215796.48548  19988971.606    19988979.0524
  22948596.488   -10958922.268 8  -8520362.42046  22948601.602    22948611.2454
  22550585.990   -12956712.396 8 -10078044.09046  22550589.901    22550598.7604
  21348215.760   -20451410.440 9 -15921281.33847  21348218.007    21348225.1824
  23988575.291    -6712943.665 8  -5219110.46545  23988576.108    23988586.3314
 00  7  5  3 24  0.0000000  0  7 03 20 22 16 01 25 06
  24294358.970    -3611260.783 7  -2795650.54945  24294365.039    24294376.8314
  22163638.306   -14135696.284 8 -10997312.41247  22163641.060    22163649.5784
  19983452.874   -28578094.067 9 -22238387.46648  19983454.475    19983462.1894
  22943476.975   -10985848.572 8  -8541343.91646  22943477.890    22943486.6744
  22534326.439   -13042147.825 8 -10144617.08046  22534333.159    22534341.0204
  21355868.697   -20411187.604 9 -15889938.88447  21355872.205    21355879.2094
  23994712.679    -6680707.670 8  -5193991.49245  23994710.518    23994720.3784
 00  7  5  3 24 30.0000000  0  7 03 20 22 16 01 25 06
  24274629.716    -3714938.121 7  -2876437.91145  24274634.371    24274646.7304
  22170387.832   -14100216.524 8 -10969665.85247  22170392.249    22170400.1664
  19978041.349   -28606531.872 9 -22260546.75448  19978042.905    19978050.4994
  22938460.237   -11012200.433 8  -8561877.78846  22938462.562    22938471.4484
  22518113.541   -13127389.045 8 -10211038.73246  22518112.097    22518119.8644
  21363558.226   -20370775.626 9 -15858449.05547  21363562.123    21363569.4464
  24000934.569    -6647970.504 8  -5168482.02245  24000939.939    24000951.0744
 00  7  5  3 25  0.0000000  0  7 03 20 22 16 01 25 06
  24254902.779    -3818627.101 7  -2957234.35745  24254905.046    24254915.7174
  22177243.702   -14064202.297 8 -10941602.81647  22177246.067    22177253.9814
  19972734.203   -28634415.737 9 -22282274.41548  19972736.924    19972744.3394
  22933556.349   -11037977.276 8  -8581963.56846  22933557.622    22933566.5274
  22501928.288   -13212433.897 8 -10277307.35246  22501927.948    22501936.8934
  21371285.617   -20330174.477 9 -15826811.82047  21371288.591    21371295.7414
  24007257.300    -6614733.054 8  -5142582.71345  24007265.156    24007276.3264
 00  7  5  3 25 30.0000000  0  7 03 20 22 16 01 25 06
  24235169.287    -3922325.266 7  -3038037.93145  24235171.220    24235182.2434
  22184201.170   -14027655.367 8 -10913124.70647  22184201.240    22184209.0484
  19967534.150   -28661745.103 9 -22303569.99448  19967536.134    19967543.7084
  22928756.317   -11063178.295 8  -8601600.67046  22928761.178    22928770.8224
  22485781.688   -13297280.293 8 -10343421.34446  22485782.656    22485790.0184
  21379046.656   -20289384.233 9 -15795027.24547  21379050.668    21379057.8154
  24013678.067    -6580996.139 7  -5116294.21345  24013684.047    24013695.2554
 00  7  5  3 26  0.0000000  0  7 03 20 22 16 01 25 06
  24215438.970    -4026029.688 8  -3118846.37945  24215438.369    24215446.7004
  22191254.367   -13990577.421 8 -10884232.82547  22191256.376    22191264.9074
  19962440.028   -28688519.910 9 -22324433.44948  19962441.315    19962448.5144
  22924074.051   -11087802.932 8  -8620788.65646  22924075.250    22924085.3804
  22469670.110   -13381926.170 8 -10409379.10346  22469674.373    22469682.7734
  21386844.797   -20248405.194 9 -15763095.54747  21386848.489    21386855.8194
  24020199.904    -6546760.537 8  -5089617.14845  24020198.189    24020210.2954
 00  7  5  3 26 30.0000000  0  7 03 20 22 16 01 25 06
  24195694.476    -4129737.456 8  -3199657.47045  24195702.914    24195712.7594
  22198411.045   -13952970.429 8 -10854928.70247  22198412.672    22198421.2774
  19957447.788   -28714740.255 9 -22344864.85948  19957451.711    19957458.7484
  22919494.853   -11111850.557 8  -8639527.02746  22919499.197    22919510.3174
  22453601.606   -13466369.114 8 -10475178.70147  22453605.815    22453615.0824
  21394680.550   -20207237.263 9 -15731016.66847  21394682.660    21394689.5734
  24026806.439    -6512027.171 8  -5062552.21145  24026809.046    24026819.4894
 00  7  5  3 27  0.0000000  0  7 03 20 22 16 01 25 06
  24175962.067    -4233445.887 8  -3280469.06245  24175966.133    24175978.3374
  22205665.726   -13914836.421 8 -10825213.90947  22205669.109    22205677.8154
  19952565.752   -28740406.663 9 -22364864.63348  19952567.592    19952574.8664
  22915034.404   -11135320.424 8  -8657815.20146  22915034.028    22915043.1534
  22437569.412   -13550607.053 8 -10540818.56646  22437575.064    22437584.8744
  21402550.405   -20165880.525 9 -15698790.66747  21402552.635    21402559.7844
  24033502.836    -6476796.800 7  -5035099.97845  24033512.384    24033524.4274
 00  7  5  3 27 30.0000000  0  7 03 20 22 16 01 25 06
  24156227.220    -4337152.059 8  -3361278.86545  24156232.215    24156242.0384
  22213024.442   -13876177.257 8 -10795089.90947  22213026.319    22213034.1684
  19947786.621   -28765519.036 9 -22384432.68648  19947788.843    19947795.7854
  22910677.370   -11158212.258 8  -8675652.94546  22910677.983    22910687.5004
  22421587.099   -13634637.774 8 -10606296.97347  22421585.073    22421594.1274
  21410455.619   -20124335.026 9 -15666417.58247  21410458.700    21410465.9134
  24040309.400    -6441070.429 8  -5007261.25745  24040312.021    24040322.6724
 00  7  5  3 28  0.0000000  0  7 03 20 22 16 01 25 06
  24136498.193    -4440853.214 7  -3442084.75245  24136497.806    24136509.0434
  22220479.894   -13836994.962 8 -10764558.27147  22220482.029    22220490.0184
  19943112.807   -28790077.069 9 -22403568.78848  19943115.409    19943122.5254
  22906430.794   -11180525.277 8  -8693039.67346  22906431.152    22906441.5334
  22405632.080   -13718458.983 8 -10671612.11647  22405634.309    22405643.4004
  21418397.555   -20082600.688 9 -15633897.35547  21418400.260    21418407.5764
  24047202.080    -6404848.976 8  -4979036.77045  24047203.872    24047215.4024
 00  7  5  3 28 30.0000000  0  7 03 20 22 16 01 25 06
  24116750.309    -4544546.587 7  -3522884.56445  24116765.526    24116776.4954
  22228034.142   -13797291.506 8 -10733620.52646  22228037.047    22228045.0514
  19938544.025   -28814080.769 9 -22422272.94448  19938547.638    19938554.9924
  22902295.152   -11202259.024 8  -8709975.01546  22902296.121    22902305.6314
  22389721.310   -13802068.346 8 -10736762.17947  22389724.386    22389733.0334
  21426374.548   -20040677.609 9 -15601230.07747  21426377.922    21426385.6894
  24054186.893    -6368133.222 8  -4950427.12645  24054190.663    24054201.8414
 00  7  5  3 29  0.0000000  0  7 03 20 22 16 01 25 06
  24097040.695    -4648229.219 8  -3603676.03945  24097036.141    24097045.5224
  22235688.625   -13757068.697 8 -10702278.09847  22235691.554    22235699.3054
  19934083.085   -28837530.496 9 -22440545.43348  19934085.262    19934092.4554
  22898266.464   -11223413.136 8  -8726458.67046  22898269.128    22898279.7974
  22373849.704   -13885463.421 8 -10801745.27047  22373854.145    22373862.8314
  21434390.467   -19998565.861 9 -15568415.77847  21434391.649    21434399.0844
  24061264.971    -6330924.214 8  -4921433.11345  24061272.562    24061282.6474
 00  7  5  3 29 30.0000000  0  7 03 20 22 16 01 25 06
  24077300.016    -4751898.666 8  -3684457.25845  24077307.952    24077317.5994
  22243439.019   -13716328.716 8 -10670532.66747  22243444.009    22243452.3324
  19929725.496   -28860426.778 9 -22458386.67148  19929727.892    19929735.5114
  22894352.598   -11243986.786 8  -8742490.02246  22894354.665    22894364.5484
  22358020.273   -13968642.134 8 -10866559.76747  22358025.990    22358034.5014
  21442436.061   -19956265.448 9 -15535454.46147  21442441.044    21442448.7054
  24068445.275    -6293222.974 8  -4892055.53145  24068446.849    24068456.2734
 00  7  5  3 30  0.0000000  0  7 03 20 22 16 01 25 06
  24057579.830    -4855552.012 8  -3765225.87845  24057583.211    24057593.1344
  22251289.632   -13675073.684 8 -10638385.90247  22251294.660    22251302.8384
  19925473.457   -28882769.456 9 -22475796.52548  19925476.243    19925483.7384
  22890549.136   -11263980.061 8  -8758069.14546  22890550.508    22890558.6924
  22342237.367   -14051602.132 8 -10931203.85347  22342238.824    22342247.4434
  21450523.207   -19913776.593 9 -15502346.33747  21450526.516    21450534.1124
  24075713.850    -6255030.307 8  -4862295.01145  24075714.506    24075724.5524
 00  7  5  3 30 30.0000000  0  7 03 20 22 16 01 25 06
  24037851.858    -4959186.201 8  -3845979.62245  24037861.882    24037872.4684
  22259240.390   -13633305.636 8 -10605839.39147  22259242.763    22259251.3324
  19921327.263   -28904558.526 9 -22492774.99748  19921329.762    19921337.5624
  22886853.855   -11283392.185 8  -8773195.42846  22886856.091    22886865.1854
  22326487.260   -14134341.265 8 -10995675.81147  22326493.606    22326503.0714
  21458645.610   -19871099.398 9 -15469091.40247  21458648.103    21458655.3044
  24083072.674    -6216347.316 8  -4832152.44045  24083074.401    24083085.5324
 00  7  5  3 31  0.0000000  0  7 03 20 22 16 01 25 06
  24018138.830    -5062798.566 8  -3926716.35745  24018144.512    24018156.0254
  22267288.330   -13591026.610 8 -10572894.72447  22267288.731    22267296.6134
  19917286.832   -28925794.051 9 -22509322.13348  19917289.026    19917296.5034
  22883268.450   -11302223.053 8  -8787868.78346  22883272.548    22883282.5364
  22310790.598   -14216857.293 8 -11059973.94247  22310791.848    22310799.8234
  21466804.697   -19828233.806 9 -15435689.66247  21466805.040    21466812.1744
  24090525.336    -6177175.073 8  -4801628.64045  24090528.851    24090540.3114
 00  7  5  3 31 30.0000000  0  7 03 20 22 16 01 25 06
  23998430.946    -5166386.349 8  -4007433.97645  23998432.914    23998442.7924
  22275429.084   -13548238.623 8 -10539553.43447  22275431.363    22275439.0474
  19913352.500   -28946476.586 9 -22525438.37348  19913353.525    19913360.7364
  22879797.153   -11320471.719 8  -8802088.49746  22879801.088    22879810.3284
  22295127.463   -14299147.981 8 -11124096.50447  22295132.165    22295140.4924
  21474993.081   -19785179.462 9 -15402140.85747  21474997.843    21475005.4254
  24098075.074    -6137514.503 7  -4770724.35645  24098076.161    24098086.5334
 00  7  5  3 32  0.0000000  0  7 03 20 22 16 01 25 06
  23978728.002    -5269946.544 8  -4088130.07045  23978725.257    23978737.0394
  22283666.517   -13504943.891 8 -10505817.29647  22283669.462    22283677.6804
  19909521.225   -28966606.556 9 -22541124.04648  19909523.018    19909530.0084
  22876433.698   -11338138.263 8  -8815854.57646  22876438.733    22876448.1594
  22279514.042   -14381210.977 8 -11188041.60047  22279515.308    22279524.8114
  21483223.197   -19741936.675 9 -15368445.21647  21483226.966    21483234.2524
  24105711.901    -6097366.797 7  -4739440.48745  24105716.165    24105726.6074
 00  7  5  3 32 30.0000000  0  7 03 20 22 16 01 25 06
  23959025.203    -5373476.626 8  -4168802.73645  23959025.069    23959035.0694
  22292000.502   -13461144.777 8 -10471688.14647  22292003.845    22292012.6674
  19905795.370   -28986184.010 9 -22556379.18548  19905797.473    19905804.3584
  22873182.306   -11355222.324 8  -8829166.78446  22873187.363    22873197.3754
  22263942.964   -14463043.906 8 -11251807.44247  22263944.556    22263952.3604
  21491488.787   -19698505.758 9 -15334602.96447  21491492.006    21491498.6884
  24113443.233    -6056733.007 8  -4707777.81345  24113449.298    24113459.2324
 00  7  5  3 33  0.0000000  0  7 03 20 22 16 01 25 06
  23939330.987    -5476973.607 8  -4249449.58245  23939329.350    23939341.0144
  22300430.109   -13416842.990 8 -10437167.28847  22300434.618    22300442.6044
  19902175.707   -29005208.948 9 -22571203.78848  19902177.033    19902184.4084
  22870045.405   -11371723.807 8  -8842025.01146  22870046.505    22870057.3004
  22248409.923   -14544644.682 8 -11315392.40147  22248416.109    22248424.3614
  21499787.577   -19654886.924 9 -15300614.27047  21499792.289    21499799.4784
  24121270.098    -6015614.202 8  -4675737.23345  24121274.296    24121283.9474
 00  7  5  3 33 30.0000000  0  7 03 20 22 16 01 25 06
  23919636.969    -5580434.587 8  -4330068.38745  23919641.486    23919652.0404
  22308959.307   -13372040.809 8 -10402256.50347  22308960.816    22308968.4814
  19898659.626   -29023681.639 9 -22585598.06948  19898662.016    19898668.9424
  22867014.452   -11387641.993 8  -8854428.72946  22867017.595    22867027.1224
  22232929.579   -14626010.839 8 -11378794.51947  22232931.969    22232940.5214
  21508126.918   -19611079.709 9 -15266478.80247  21508128.536    21508135.5244
  24129189.895    -5974011.288 8  -4643319.41045  24129190.162    24129201.8794
 00  7  5  3 34  0.0000000  0  7 03 20 22 16 01 25 06
  23899956.077    -5683856.910 8  -4410657.07445  23899960.334    23899970.8094
  22317579.042   -13326740.542 8 -10366957.59847  22317580.885    22317588.6614
  19895249.900   -29041602.685 9 -22599562.50248  19895251.649    19895258.6684
  22864098.085   -11402976.917 8  -8866377.95546  22864100.181    22864109.2914
  22217492.373   -14707140.194 8 -11442012.11547  22217493.699    22217502.3074
  21516498.264   -19567084.043 9 -15232196.49147  21516500.693    21516507.5284
  24137192.706    -5931925.622 8  -4610525.41245  24137199.377    24137209.4214
 00  7  5  3 34 30.0000000  0  7 03 20 22 16 01 25 06
  23880287.345    -5787237.397 8  -4491213.16645  23880287.686    23880298.0434
  22326294.233   -13280944.394 8 -10331272.29346  22326295.406    22326302.4994
  19891943.826   -29058972.866 9 -22613097.69048  19891946.033    19891953.3894
  22861289.898   -11417728.543 8  -8877872.69146  22861293.212    22861301.1044
  22202096.080   -14788030.513 8 -11505043.45847  22202100.867    22202109.0304
  21524904.707   -19522900.220 9 -15197767.57147  21524908.615    21524915.8684
  24145302.288    -5889358.323 8  -4577356.10445  24145300.221    24145309.1954
 00  7  5  3 35  0.0000000  0  7 03 20 22 16 01 25 06
  23860626.710    -5890573.302 8  -4571734.50045  23860623.331    23860633.6574
  22335103.541   -13234654.766 8 -10295202.46346  22335103.335    22335112.4554
  19888743.333   -29075792.129 9 -22626203.58948  19888745.438    19888752.6714
  22858593.702   -11431896.400 8  -8888912.52646  22858597.028    22858605.1264
  22186754.939   -14868679.461 8 -11567886.72247  22186753.765    22186762.5544
  21533350.366   -19478528.052 9 -15163191.88347  21533352.379    21533359.4444
  24153488.955    -5846310.469 8  -4543812.34345  24153490.778    24153501.6114
 00  7  5  3 35 30.0000000  0  7 03 20 22 16 01 25 06
  23840957.140    -5993861.634 8  -4652218.83245  23840968.367    23840978.0934
  22344003.369   -13187873.588 8 -10258749.62746  22344005.683    22344014.0874
  19885648.000   -29092060.551 9 -22638880.26948  19885650.016    19885656.8414
  22856009.405   -11445480.455 8  -8899497.46546  22856012.929    22856020.5204
  22171448.178   -14949084.727 8 -11630540.09847  22171453.377    22171460.8614
  21541824.407   -19433967.513 9 -15128469.37747  21541831.307    21541838.8294
  24161769.376    -5802783.320 8  -4509895.08945  24161773.527    24161784.3664
 00  7  5  3 36  0.0000000  0  7 03 20 22 16 01 25 06
  23821317.825    -6097099.650 8  -4732663.94145  23821323.316    23821332.5154
  22352997.086   -13140603.280 8 -10221915.64546  22353000.987    22353008.7804
  19882656.359   -29107778.540 9 -22651128.03948  19882658.667    19882665.7594
  22853536.115   -11458480.318 8  -8909627.18946  22853538.860    22853545.9334
  22156194.487   -15029243.813 8 -11693001.64947  22156199.576    22156206.8334
  21550343.576   -19389218.721 9 -15093600.18947  21550346.945    21550354.6014
  24170143.992    -5758778.087 8  -4475605.33645  24170147.673    24170158.6504
 00  7  5  3 36 30.0000000  0  7 03 20 22 16 01 25 06
  23801688.831    -6200284.435 8  -4813067.60345  23801687.892    23801697.4724
  22362087.599   -13092846.202 8 -10184702.35046  22362089.506    22362096.9424
  19879769.376   -29122946.879 9 -22662947.51248  19879772.150    19879779.1814
  22851173.621   -11470896.200 8  -8919301.87946  22851175.717    22851184.0494
  22140990.422   -15109154.510 8 -11755269.64447  22140992.868    22141001.6284
  21558894.804   -19344282.253 9 -15058584.78147  21558898.022    21558905.2824
  24178608.755    -5714296.149 7  -4440944.09345  24178612.011    24178622.7304
 00  7  5  3 37  0.0000000  0  7 03 20 22 16 01 25 06
  23782053.997    -6303413.243 8  -4893427.59745  23782062.806    23782072.6104
  22371266.178   -13044604.612 8 -10147111.51246  22371269.687    22371277.7554
  19876988.145   -29137566.239 9 -22674339.19848  19876990.199    19876997.3814
  22848922.906   -11482727.844 8  -8928521.28846  22848923.994    22848932.9044
  22125831.694   -15188814.620 8 -11817342.37347  22125833.779    22125842.3344
  21567481.776   -19299157.786 9 -15023422.85347  21567484.585    21567492.2014
  24187163.875    -5669338.740 7  -4405912.39945  24187167.626    24187178.2804
 00  7  5  3 37 30.0000000  0  7 03 20 22 16 01 25 06
  23762444.989    -6406483.171 8  -4973741.71945  23762449.301    23762459.0274
  22380536.389   -12995880.869 8 -10109144.98646  22380540.981    22380549.3064
  19874311.478   -29151636.708 9 -22685303.18148  19874312.508    19874319.8034
  22846779.767   -11493975.211 8  -8937285.42146  22846782.355    22846792.4084
  22110716.438   -15268221.735 8 -11879217.96847  22110722.895    22110731.9164
  21576103.024   -19253845.153 9 -14988114.29147  21576107.726    21576114.8684
  24195811.065    -5623906.882 8  -4370510.92845  24195812.873    24195824.4374
 00  7  5  3 38  0.0000000  0  7 03 20 22 16 01 25 06
  23742834.777    -6509491.136 7  -5054007.54345  23742846.419    23742856.6194
  22389900.584   -12946677.251 8 -10070804.52946  22389903.940    22389912.4474
  19871737.401   -29165158.545 9 -22695839.66248  19871739.341    19871746.5744
  22844752.302   -11504638.242 8  -8945594.23146  22844753.958    22844763.2994
  22095660.284   -15347373.732 8 -11940894.77747  22095660.808    22095669.0934
  21584762.690   -19208344.397 9 -14952659.15047  21584766.252    21584773.7224
  24204547.936    -5578002.128 8  -4334741.04045  24204548.273    24204559.6064
 00  7  5  3 38 30.0000000  0  7 03 20 22 16 01 25 06
  23723259.128    -6612434.211 8  -5134222.85545  23723256.910    23723266.6634
  22399353.827   -12896996.002 8 -10032091.89346  22399357.482    22399366.2024
  19869270.068   -29178132.301 9 -22705949.06748  19869270.870    19869277.6394
  22842835.095   -11514716.833 8  -8953447.61946  22842835.453    22842845.9574
  22080644.136   -15426268.193 8 -12002370.90947  22080647.457    22080656.0024
  21593457.274   -19162655.522 9 -14917057.43047  21593460.665    21593468.0034
  24213363.267    -5531625.589 8  -4298603.49745  24213373.764    24213384.0924
 00  7  5  3 39  0.0000000  0  7 03 20 22 16 01 25 06
  23703670.731    -6715309.628 8  -5214385.44145  23703680.987    23703691.1354
  22408899.658   -12846839.569 8  -9993008.97846  22408903.036    22408909.8564
  19866903.161   -29190558.978 9 -22715632.17648  19866905.868    19866912.9814
  22841022.941   -11524211.334 8  -8960845.87746  22841028.439    22841039.2464
  22065680.807   -15504902.880 8 -12063644.61947  22065683.677    22065692.8634
  21602186.019   -19116778.753 9 -14881309.29047  21602190.679    21602197.9364
  24222289.145    -5484778.618 8  -4262099.40345  24222289.220    24222298.6674
 00  7  5  3 39 30.0000000  0  7 03 20 22 16 01 25 06
  23684111.093    -6818114.492 8  -5294493.09545  23684117.568    23684127.9374
  22418534.731   -12796210.477 8  -9953557.74346  22418537.341    22418544.7994
  19864643.838   -29202439.049 9 -22724889.35248  19864645.424    19864652.4494
  22839330.802   -11533121.318 8  -8967788.68646  22839333.365    22839344.0124
  22050766.374   -15583275.446 8 -12124714.07947  22050769.682    22050778.6674
  21610953.027   -19070713.953 9 -14845414.62247  21610956.475    21610964.1304
  24231290.020    -5437462.536 8  -4225229.72445  24231292.881    24231302.4874
 00  7  5  3 40  0.0000000  0  7 03 20 22 16 01 25 06
  23664564.677    -6920845.971 8  -5374543.51645  23664568.393    23664578.3664
  22428257.449   -12745111.020 8  -9913740.00046  22428260.972    22428269.2514
  19862486.223   -29213772.813 9 -22733720.83748  19862488.597    19862495.5624
  22837744.136   -11541447.304 8  -8974276.41146  22837749.180    22837759.5484
  22035904.104   -15661383.292 8 -12185577.27047  22035906.286    22035915.2894
  21619755.810   -19024461.186 9 -14809373.49747  21619758.212    21619765.6064
  24240380.541    -5389678.660 7  -4187995.50445  24240384.928    24240395.3474
 00  7  5  3 40 30.0000000  0  7 03 20 22 16 01 25 06
  23645028.853    -7023501.095 8  -5454534.48545  23645034.183    23645043.8774
  22438075.052   -12693543.717 8  -9873557.71546  22438074.321    22438082.7714
  19860433.737   -29224560.580 9 -22742126.87048  19860435.629    19860442.5414
  22836273.862   -11549188.973 8  -8980308.82546  22836275.866    22836286.0004
  22021091.831   -15739224.127 8 -12246232.40947  22021094.022    22021102.3944
  21628593.515   -18978020.321 9 -14773185.81547  21628595.397    21628602.8224
  24249560.991    -5341428.096 7  -4150397.68445  24249567.022    24249577.0414
 00  7  5  3 41  0.0000000  0  7 03 20 22 16 01 25 06
  23625509.100    -7126076.861 8  -5534463.58845  23625514.578    23625524.1544
  22447972.615   -12641511.038 8  -9833012.79746  22447975.533    22447983.9594
  19858482.417   -29234803.148 9 -22750108.07648  19858486.331    19858493.6884
  22834910.094   -11556346.798 8  -8985886.31846  22834914.370    22834922.6244
  22006330.236   -15816795.754 8 -12306677.78547  22006332.787    22006341.0454
  21637465.844   -18931391.328 9 -14736851.52947  21637468.098    21637476.1284
  24258835.243    -5292712.618 8  -4112437.52445  24258837.690    24258847.8224
 00  7  5  3 41 30.0000000  0  7 03 20 22 16 01 25 06
  23606004.791    -7228570.202 8  -5614328.41045  23606010.610    23606021.1324
  22457962.161   -12589015.215 8  -9792106.98446  22457965.270    22457973.4334
  19856638.384   -29244501.573 9 -22757665.27848  19856640.861    19856647.9514
  22833664.078   -11562920.750 8  -8991008.81746  22833663.382    22833671.8954
  21991623.734   -15894095.807 8 -12366911.54647  21991622.937    21991631.3384
  21646373.298   -18884574.330 9 -14700370.75447  21646377.052    21646384.8864
  24268195.081    -5243533.726 8  -4074116.31845  24268195.443    24268205.4064
 00  7  5  3 42  0.0000000  0  7 03 20 22 16 01 25 06
  23586519.348    -7330978.667 8  -5694127.12545  23586522.894    23586532.7284
  22468040.836   -12536058.909 8  -9750842.35446  22468043.098    22468050.7564
  19854896.929   -29253656.350 9 -22764798.85648  19854898.717    19854905.9554
  22832520.761   -11568911.038 8  -8995676.52946  22832523.611    22832531.6474
  21976961.766   -15971121.947 8 -12426931.85847  21976965.028    21976973.0984
  21655319.625   -18837569.455 9 -14663743.56947  21655322.107    21655329.9084
  24277638.569    -5193892.585 7  -4035434.94745  24277642.401    24277653.1144
 00  7  5  3 42 30.0000000  0  7 03 20 22 16 01 25 06
  23567049.551    -7433299.120 8  -5773857.24346  23567052.249    23567061.9564
  22478205.707   -12482644.419 8  -9709220.71346  22478206.793    22478215.0164
  19853258.086   -29262267.852 9 -22771509.10048  19853260.106    19853267.0494
  22831493.708   -11574317.779 8  -8999889.52046  22831494.536    22831503.1634
  21962357.562   -16047871.830 8 -12486736.91347  21962359.972    21962368.0754
  21664299.236   -18790376.342 9 -14626969.71647  21664303.036    21664310.2924
  24287172.047    -5143790.752 8  -3996394.57245  24287176.312    24287187.3544
 00  7  5  3 43  0.0000000  0  7 03 20 22 16 01 25 06
  23547599.643    -7535528.385 8  -5853516.33746  23547598.731    23547608.3264
  22488453.869   -12428774.532 8  -9667244.20546  22488457.399    22488466.2104
  19851721.054   -29270336.622 9 -22777796.44548  19851724.748    19851731.4904
  22830574.057   -11579141.273 8  -9003648.03946  22830575.868    22830584.9784
  21947806.248   -16124343.280 8 -12546325.00947  21947807.965    21947815.7614
  21673314.617   -18742995.286 9 -14590049.42547  21673319.047    21673326.6444
  24296791.099    -5093229.669 8  -3956996.30045  24296798.626    24296808.8434
 00  7  5  3 43 30.0000000  0  7 03 20 22 16 01 25 06
  23528157.835    -7637663.879 8  -5933102.35346  23528162.420    23528172.1764
  22498790.843   -12374451.645 8  -9624914.73146  22498794.706    22498803.1574
  19850291.045   -29277863.462 9 -22783661.50148  19850292.165    19850299.4154
  22829767.088   -11583381.764 8  -9006952.27546  22829769.434    22829778.4764
  21933304.224   -16200533.802 8 -12605694.20547  21933309.373    21933317.7784
  21682369.502   -18695426.028 9 -14552982.48947  21682371.189    21682378.6244
  24306506.585    -5042210.578 8  -3917241.14945  24306506.814    24306516.7234
 00  7  5  3 44  0.0000000  0  7 03 20 22 16 01 25 06
  23508738.119    -7739702.383 8  -6012612.79846  23508744.987    23508755.5174
  22509218.662   -12319678.218 8  -9582234.18046  22509218.628    22509226.2534
  19848960.733   -29284849.565 9 -22789105.20648  19848963.119    19848970.2404
  22829066.388   -11587039.634 8  -9009802.51846  22829072.943    22829083.3344
  21918860.507   -16276441.240 8 -12664842.80547  21918863.964    21918872.8724
  21691454.237   -18647668.559 9 -14515768.89647  21691459.325    21691466.3724
  24316301.214    -4990734.972 8  -3877130.28845  24316302.829    24316312.8184
 00  7  5  3 44 30.0000000  0  8 03 20 22 19 16 01 25 06
  23489346.635    -7841641.134 8  -6092045.49146  23489346.451    23489356.5054
  22519725.847   -12264456.923 8  -9539204.63646  22519726.828    22519734.8644
  19847732.643   -29291295.510 9 -22794128.01048  19847736.125    19847743.4004
  24704942.790     -235278.37717   -171850.64755  24704946.093    24704957.5584
  22828484.182   -11590114.845 8  -9012198.74546  22828487.883    22828498.1324
  21904470.373   -16352063.001 8 -12723768.80447  21904474.089    21904481.6724
  21700580.286   -18599723.141 9 -14478408.84247  21700582.787    21700589.9894
  24326180.722    -4938804.575 7  -3836665.07545  24326183.872    24326195.4454
 00  7  5  3 45  0.0000000  0  8 03 20 22 19 16 01 25 06
  23469965.858    -7943477.236 8  -6171398.24146  23469968.401    23469977.3914
  22530319.726   -12208790.237 8  -9495828.03446  22530319.470    22530327.6434
  19846611.135   -29297201.674 9 -22798730.20748  19846612.449    19846619.3534
  24689258.409     -317687.872 7   -236065.69545  24689264.684    24689275.0544
  22828012.586   -11592608.034 8  -9014141.45446  22828013.982    22828023.5244
  21890136.202   -16427396.652 9 -12782470.30947  21890138.992    21890146.7314
  21709738.352   -18551589.644 9 -14440902.22947  21709742.255    21709749.1474
  24336147.372    -4886420.780 8  -3795846.53645  24336152.757    24336163.1994
 00  7  5  3 45 30.0000000  0  8 03 20 22 19 16 01 25 06
  23450603.812    -8045207.634 8  -6250668.61646  23450609.859    23450619.1504
  22540993.641   -12152680.841 8  -9452106.44446  22540996.455    22541005.4084
  19845588.867   -29302568.710 9 -22802912.30848  19845591.230    19845598.0314
  24673578.305     -400098.107 7   -300281.32045  24673581.409    24673594.3944
  22827645.822   -11594519.285 8  -9015630.71646  22827649.538    22827659.6134
  21875854.868   -16502439.943 9 -12840945.53747  21875857.840    21875866.0604
  21718934.071   -18503268.154 9 -14403249.14847  21718937.799    21718944.7914
  24346203.102    -4833585.322 8  -3754676.07545  24346207.362    24346216.7024
 00  7  5  3 46  0.0000000  0  8 03 20 22 19 16 01 25 06
  23431266.899    -8146829.503 8  -6329854.43746  23431271.498    23431280.9784
  22551754.825   -12096131.151 8  -9408041.79146  22551758.222    22551767.0594
  19844671.043   -29307397.789 9 -22806675.22048  19844672.057    19844679.4094
  24657894.547     -482508.721 7   -364497.27945  24657898.641    24657911.5254
  22827394.266   -11595849.190 8  -9016666.97446  22827396.567    22827406.2484
  21861629.715   -16577190.532 9 -12899192.69747  21861633.802    21861641.6774
  21728166.729   -18454758.420 9 -14365449.36847  21728168.735    21728175.8834
  24356336.622    -4780299.593 8  -3713154.75845  24356346.963    24356356.1854
 00  7  5  3 46 30.0000000  0  8 03 20 22 19 16 01 25 06
  23411955.042    -8248339.781 8  -6408953.28646  23411954.759    23411964.2414
  22562599.866   -12039143.810 8  -9363636.11646  22562602.452    22562611.9374
  19843851.298   -29311689.960 9 -22810019.76248  19843855.174    19843862.5634
  24642211.436     -564919.313 7   -428713.20145  24642217.422    24642228.5104
  22827253.387   -11596598.116 8  -9017250.51746  22827254.526    22827262.9144
  21847462.613   -16651646.093 9 -12957209.96447  21847465.403    21847473.1644
  21737432.489   -18406060.666 9 -14327503.07747  21737435.549    21737442.4194
  24366562.407    -4726565.005 8  -3671283.64945  24366571.590    24366581.4974
 00  7  5  3 47  0.0000000  0  8 03 20 22 19 16 01 25 06
  23392654.520    -8349735.474 8  -6487962.84546  23392660.060    23392668.9544
  22573526.393   -11981721.529 8  -9318891.51846  22573529.632    22573538.3324
  19843138.418   -29315445.801 9 -22812946.38548  19843140.546    19843147.7484
  24626530.633     -647329.808 7   -492928.99945  24626535.220    24626545.0434
  22827219.432   -11596766.553 8  -9017381.73046  22827221.241    22827230.3104
  21833350.830   -16725804.235 9 -13014995.48447  21833353.683    21833361.4454
  21746733.581   -18357174.793 9 -14289410.23747  21746738.115    21746745.5794
  24376883.977    -4672383.382 8  -3629064.18145  24376882.340    24376892.5324
 00  7  5  3 47 30.0000000  0  8 03 20 22 19 16 01 25 06
  23373388.302    -8451013.528 8  -6566880.72146  23373386.464    23373396.6124
  22584536.857   -11923866.970 8  -9273810.07746  22584539.064    22584546.8354
  19842525.854   -29318665.792 9 -22815455.46448  19842527.837    19842534.7984
  24610847.642     -729739.970 7   -557144.60345  24610851.912    24610864.4644
  22827297.018   -11596354.902 8  -9017060.90746  22827299.971    22827309.5684
  21819296.452   -16799662.802 9 -13072547.56447  21819298.209    21819306.6194
  21756073.676   -18308100.949 9 -14251170.90947  21756076.971    21756084.0714
  24387272.065    -4617756.191 8  -3586497.53845  24387277.848    24387287.4344
 00  7  5  3 48  0.0000000  0  8 03 20 22 19 16 01 25 06
  23354132.424    -8552171.189 8  -6645704.79646  23354137.454    23354146.3584
  22595630.217   -11865582.680 8  -9228393.76346  22595630.475    22595638.1204
  19842013.985   -29321350.902 9 -22817547.74848  19842016.792    19842023.8114
  24595172.379     -812149.630 7   -621359.76245  24595170.607    24595181.8514
  22827486.602   -11595363.810 8  -9016288.59546  22827488.939    22827498.7234
  21805300.189   -16873219.277 9 -13129864.23247  21805301.663    21805309.5524
  21765448.435   -18258838.972 9 -14212784.97947  21765451.412    21765458.5654
  24397753.106    -4562684.894 7  -3543584.80545  24397756.762    24397767.5734
 00  7  5  3 48 30.0000000  0  8 03 20 22 19 16 01 25 06
  23334910.407    -8653205.537 8  -6724432.77746  23334911.615    23334920.4004
  22606801.429   -11806871.497 8  -9182644.82346  22606802.335    22606810.9604
  19841604.631   -29323502.315 9 -22819224.16448  19841607.403    19841614.6154
  24579482.723     -894558.567 7   -685574.41645  24579488.966    24579501.2134
  22827784.552   -11593793.201 8  -9015064.73146  22827787.273    22827797.4104
  21791360.445   -16946471.370 9 -13186943.73447  21791362.256    21791369.7614
  21774858.193   -18209388.660 9 -14174252.28447  21774861.485    21774868.7544
  24408322.005    -4507171.103 7  -3500327.27145  24408321.386    24408332.1904
 00  7  5  3 49  0.0000000  0  8 03 20 22 19 16 01 25 06
  23315701.038    -8754113.496 8  -6803062.24946  23315708.246    23315718.1584
  22618052.535   -11747736.011 8  -9136565.26946  22618055.302    22618063.8844
  19841296.278   -29325121.093 9 -22820485.54048  19841299.117    19841306.7024
  24563795.094     -976966.520 7   -749788.23645  24563806.759    24563817.5274
  22828190.550   -11591644.219 8  -9013390.16946  22828196.029    22828206.5434
  21777476.863   -17019416.738 9 -13243784.23847  21777480.759    21777488.6774
  21784304.219   -18159749.991 9 -14135572.81047  21784307.561    21784314.3834
  24418965.511    -4451216.381 7  -3456726.17245  24418968.720    24418979.7324
 00  7  5  3 49 30.0000000  0  8 03 20 22 19 16 01 25 06
  23296532.394    -8854892.153 8  -6881590.98346  23296530.574    23296540.7764
  22629385.480   -11688178.864 8  -9090157.14046  22629389.037    22629397.0704
  19841091.361   -29326207.928 9 -22821332.41048  19841092.502    19841099.9854
  24548125.321    -1059372.904 7   -814000.87145  24548125.202    24548137.6014
  22828714.342   -11588917.104 8  -9011265.12946  22828716.288    22828725.3484
  21763656.645   -17092053.048 9 -13300383.90547  21763658.249    21763666.9494
  21793784.982   -18109922.854 9 -14096746.47847  21793789.326    21793796.2864
  24429698.300    -4394822.460 8  -3412782.82245  24429700.926    24429709.9024
 00  7  5  3 50  0.0000000  0  8 03 20 22 19 16 01 25 06
  23277374.394    -8955538.552 8  -6960016.64346  23277378.449    23277387.8604
  22640798.703   -11628202.761 8  -9043422.54346  22640802.234    22640809.8934
  19840984.507   -29326763.398 9 -22821765.23848  19840986.677    19840994.1144
  24532440.448    -1141777.583 7   -878212.16245  24532444.585    24532454.0294
  22829343.507   -11585612.617 8  -9008690.19446  22829344.525    22829353.9904
  21749894.243   -17164377.856 9 -13356740.84547  21749895.890    21749903.6984
  21803306.186   -18059907.748 9 -14057773.69147  21803307.141    21803314.2364
  24440506.982    -4337991.040 8  -3368498.40745  24440515.303    24440525.8844
 00  7  5  3 50 30.0000000  0  8 03 20 22 19 16 01 25 06
  23258248.211    -9056049.797 8  -7038336.98646  23258251.284    23258261.3674
  22652289.608   -11567810.397 8  -8996363.58146  22652294.306    22652302.5314
  19840979.871   -29326788.518 9 -22821784.80448  19840981.868    19840989.0854
  24516759.032    -1224180.160 7   -942421.85645  24516762.596    24516773.7314
  22830079.669   -11581731.261 8  -9005665.73246  22830083.275    22830092.0744
  21736189.505   -17236388.826 9 -13412853.24847  21736192.686    21736200.7954
  21812857.065   -18009704.573 9 -14018654.36447  21812860.181    21812868.0074
  24451413.386    -4280724.094 8  -3323874.84545  24451412.357    24451422.7554
 00  7  5  3 51  0.0000000  0  8 03 20 22 19 16 01 25 06
  23239151.323    -9156422.792 8  -7116549.62246  23239151.249    23239160.5734
  22663863.543   -11507004.684 8  -8948982.53646  22663865.087    22663873.4654
  19841075.045   -29326284.496 9 -22821392.04548  19841077.600    19841084.9814
  24501079.489    -1306580.380 7  -1006629.73545  24501083.154    24501092.3824
  22830926.635   -11577273.585 8  -9002192.19246  22830931.408    22830941.0684
  21722546.093   -17308083.725 9 -13468719.36047  21722549.391    21722557.2504
  21822445.517   -17959313.058 9 -13979388.26747  21822449.294    21822456.7904
  24462388.471    -4223023.179 7  -3278913.09645  24462392.841    24462402.1014
 00  7  5  3 51 30.0000000  0  8 03 20 22 19 16 01 25 06
  23220077.427    -9256654.511 8  -7194652.17546  23220077.913    23220087.0294
  22675513.679   -11445788.170 8  -8901281.39146  22675515.046    22675522.9924
  19841272.392   -29325252.624 9 -22820587.97548  19841274.122    19841281.6624
  24485397.740    -1388977.839 7  -1070835.42745  24485401.866    24485413.7034
  22831888.709   -11572240.268 8  -8998270.10746  22831888.891    22831898.0274
  21708965.577   -17379460.023 9 -13524337.21647  21708967.011    21708974.5664
  21832070.949   -17908733.291 9 -13939975.47447  21832074.489    21832081.9374
  24473444.154    -4164889.927 7  -3233614.43945  24473455.018    24473464.6494
 00  7  5  3 52  0.0000000  0  8 03 20 22 19 16 01 25 06
  23201019.907    -9356742.060 8  -7272642.37346  23201030.659    23201041.1564
  22687239.565   -11384163.725 8  -8853262.37446  22687241.920    22687249.6194
  19841567.043   -29323693.668 9 -22819373.19048  19841570.795    19841578.0704
  24469723.848    -1471372.492 7  -1135038.87745  24469722.420    24469733.1734
  22832954.240   -11566631.989 8  -8993899.99946  22832955.872    22832965.6464
  21695442.573   -17450515.471 9 -13579705.05847  21695445.558    21695452.9364
  21841732.315   -17857964.963 8 -13900415.74247  21841735.073    21841742.3254
  24484596.706    -4106326.013 7  -3187980.21245  24484599.578    24484609.0804
 00  7  5  3 52 30.0000000  0  8 03 20 22 19 16 01 25 06
  23182014.485    -9456682.440 8  -7350517.90846  23182013.118    23182022.3934
  22699044.460   -11322134.120 8  -8804927.65146  22699045.699    22699053.2414
  19841966.027   -29321608.148 9 -22817748.09348  19841967.993    19841974.7154
  24454038.473    -1553763.992 7  -1199239.91745  24454045.823    24454054.0544
  22834128.333   -11560449.682 8  -8989082.58746  22834132.353    22834141.9434
  21681981.416   -17521247.650 9 -13634820.99047  21681985.208    21681993.0814
  21851428.219   -17807008.241 8 -13860709.23547  21851431.886    21851439.0314
  24495817.347    -4047333.234 7  -3142011.81445  24495825.655    24495835.3784
 00  7  5  3 53  0.0000000  0  8 03 20 22 19 16 01 25 06
  23163022.102    -9556472.837 8  -7428276.52046  23163023.394    23163033.9844
  22710923.344   -11259702.139 8  -8756279.38946  22710926.245    22710933.5134
  19842462.691   -29318997.420 9 -22815713.74748  19842464.844    19842471.5664
  24438362.165    -1636151.856 7  -1263438.11545  24438366.927    24438377.5294
  22835417.546   -11553693.865 8  -8983818.28646  22835418.127    22835427.0184
  21668584.017   -17591654.174 9 -13689683.16547  21668587.806    21668594.9804
  21861159.394   -17755863.048 8 -13820855.85147  21861164.180    21861171.5774
  24507134.910    -3987913.192 7  -3095710.47445  24507131.119    24507141.4154
 00  7  5  3 53 30.0000000  0  8 03 20 22 19 16 01 25 06
  23144063.461    -9656110.059 8  -7505915.80246  23144061.929    23144073.1634
  22722881.776   -11196870.489 8  -8707319.70946  22722882.192    22722890.5434
  19843058.959   -29315862.821 9 -22813271.18848  19843061.214    19843068.1604
  24422688.049    -1718536.075 7  -1327633.45945  24422690.946    24422699.7854
  22836810.025   -11546365.403 8  -8978107.78546  22836812.974    22836821.4394
  21655249.159   -17661732.657 9 -13744289.73647  21655252.134    21655259.7494
  21870928.766   -17704529.419 9 -13780855.63947  21870932.963    21870940.1294
  24518517.483    -3928067.757 7  -3049077.69645  24518520.438    24518530.5954
